GFSGL_700_spd_000.txt.gz
Wind_Speed
42 42 42 43 43 43 42 43 43 44 43 43 42 39 39 39 39 33 27 31 34 34 33 33 34 36 39 42 44 44 43 42 45 43 40 35 33 31 29 26 33 30 25
39 40 42 44 45 45 45 46 46 44 42 39 38 35 32 27 30 27 30 31 32 32 33 35 35 39 42 45 45 45 43 39 38 39 35 30 32 32 29 31 24 34 32
39 42 44 45 46 47 48 48 46 43 40 36 33 30 26 25 25 29 31 33 32 31 31 35 40 43 45 45 45 42 38 35 33 35 33 28 29 33 32 26 30 34 26
41 43 45 46 48 49 49 47 44 41 38 34 30 25 22 26 25 30 31 32 30 31 34 39 41 43 44 45 42 39 38 36 33 32 30 27 26 29 32 30 30 29 39
41 44 46 47 48 49 48 45 43 39 34 30 26 21 19 25 27 30 32 33 33 35 38 39 41 43 44 41 40 39 38 36 31 30 27 23 20 22 29 32 32 32 34
43 45 46 48 49 48 46 44 41 36 32 27 25 21 25 26 29 31 34 35 35 38 40 39 41 44 40 37 37 36 34 31 28 27 25 23 24 21 24 27 28 29 29
44 46 49 49 48 46 44 42 37 33 28 26 21 24 27 30 29 34 36 34 36 37 39 41 43 41 36 36 34 31 29 26 23 23 24 22 23 28 23 26 29 27 25
46 48 49 48 46 44 41 38 34 30 27 22 22 25 28 30 33 35 32 34 34 35 37 41 42 36 33 32 30 28 25 22 21 22 22 22 23 24 30 33 33 31 29
47 48 47 45 44 42 37 35 32 29 26 24 25 27 29 31 30 31 34 33 32 34 37 40 38 31 30 29 28 26 24 21 20 21 23 21 20 22 23 25 28 30 30
48 46 43 43 44 40 36 32 30 27 25 24 24 24 26 28 30 33 33 31 32 34 36 37 32 27 27 26 25 25 25 21 18 17 18 20 18 18 20 22 21 22 23
46 42 41 43 43 39 35 29 27 25 23 24 26 27 29 30 31 32 30 30 32 34 36 34 27 24 24 22 25 24 24 21 18 15 14 14 15 13 15 18 19 20 21
43 39 40 42 39 35 31 26 25 24 24 25 27 29 30 30 31 29 28 30 32 33 33 32 26 21 21 21 24 23 22 19 16 12 9 9 10 10 10 12 15 16 17
40 38 40 40 34 32 26 24 26 26 26 25 28 29 29 29 27 25 27 28 29 30 30 30 25 21 20 21 23 23 22 20 14 10 7 6 6 6 5 5 7 10 12
39 37 39 36 33 29 24 26 30 27 25 26 28 28 27 25 23 24 26 26 26 27 27 28 25 22 22 22 21 23 22 21 13 7 5 5 4 3 3 1 4 6 7
37 36 37 34 30 26 22 24 30 26 25 26 27 25 23 22 22 24 25 25 24 24 24 25 24 22 19 20 20 21 22 21 16 7 4 3 2 3 3 4 5 5 7
35 35 34 31 28 25 22 26 27 25 24 26 25 22 21 20 22 24 25 24 23 22 22 22 23 22 21 19 18 18 20 20 18 8 4 2 1 1 1 2 4 5 6
34 32 31 28 25 23 22 23 23 23 24 25 23 20 18 19 22 24 25 23 21 21 21 21 22 22 22 21 20 18 16 18 17 14 5 3 2 1 2 3 5 7 9
31 30 28 25 23 21 20 20 22 23 23 22 20 17 16 18 21 23 23 21 20 19 19 20 20 21 21 21 20 19 18 15 16 15 12 7 3 3 3 3 5 7 10
29 28 27 24 23 21 19 20 21 23 22 20 17 15 16 18 20 22 21 19 18 19 19 20 20 20 20 21 21 20 19 17 14 13 13 12 9 6 5 5 5 5 5
28 27 27 26 23 21 20 21 22 22 21 19 16 14 15 17 19 20 19 17 17 18 19 20 21 20 20 20 20 19 19 18 17 16 12 11 11 9 8 7 7 7 7
27 28 28 27 24 22 20 21 22 21 20 18 16 14 15 16 18 19 18 17 16 17 18 20 21 22 22 20 19 19 18 17 15 14 14 12 10 10 9 8 7 7 7
29 29 28 27 25 22 21 21 21 21 20 19 17 16 16 16 18 18 17 17 17 17 18 20 21 21 23 23 21 19 18 17 16 14 13 12 12 10 9 9 8 8 7
30 29 28 27 24 22 21 22 22 21 21 20 20 19 19 18 19 19 18 18 18 18 18 18 20 21 23 25 24 20 17 16 15 15 14 13 12 12 11 10 10 9 8
30 29 28 26 25 23 23 23 24 24 24 23 21 21 22 21 20 20 20 20 19 19 19 19 20 21 24 26 24 20 17 15 15 14 14 14 13 12 12 11 11 11 10
31 30 28 27 26 25 25 26 27 28 28 27 26 24 22 24 24 22 22 22 21 20 20 20 20 20 22 25 23 20 16 15 14 14 14 14 13 13 13 12 12 12 13
32 30 28 26 25 25 26 27 29 30 31 30 29 29 28 28 26 25 25 24 22 22 21 20 19 19 20 22 22 19 16 15 14 14 14 14 14 13 13 13 13 13 13

GFSGL_700_spd_003.txt.gz
Wind_Speed
40 39 37 37 39 42 42 43 44 44 43 40 38 34 31 29 28 28 30 30 31 31 32 31 30 32 34 37 40 43 44 44 46 38 35 32 29 30 27 26 26 33 30
35 35 37 40 42 44 45 46 45 44 43 40 35 31 27 26 23 25 28 32 32 33 32 32 32 33 37 39 41 42 44 42 40 38 35 34 30 28 28 26 25 30 29
34 36 39 42 44 45 46 47 46 44 41 38 34 30 25 22 22 25 28 33 32 33 33 32 33 36 38 39 41 44 42 39 38 38 37 34 31 26 28 29 25 26 33
35 37 40 43 44 47 47 47 45 43 41 37 32 26 23 22 21 28 30 31 34 34 33 33 35 37 38 40 42 41 39 38 36 35 32 30 26 24 25 25 26 29 28
34 38 41 43 45 47 46 44 43 41 39 34 29 24 24 20 26 29 31 33 33 33 33 34 35 35 38 40 40 35 36 35 33 31 29 27 22 20 17 21 25 29 32
35 39 42 45 46 47 45 43 41 39 37 32 28 25 22 25 24 32 33 34 35 33 34 34 35 36 38 38 33 32 32 31 30 28 26 24 21 19 22 20 24 23 25
37 40 43 46 47 46 43 42 40 37 34 31 27 25 24 28 29 31 33 33 32 33 33 34 35 36 37 34 31 30 29 27 27 27 25 22 21 19 21 28 20 26 25
39 42 45 47 47 44 41 41 38 35 32 29 27 26 26 26 27 28 29 30 32 31 31 34 34 34 34 30 30 28 27 25 25 23 22 21 21 18 21 24 29 28 27
41 43 46 46 44 41 40 39 37 34 29 26 25 24 24 26 27 29 30 31 30 28 30 32 33 33 29 27 27 27 26 23 22 21 20 19 18 18 19 21 19 32 34
42 44 46 44 41 39 39 37 36 31 26 24 25 25 26 28 30 31 31 29 26 27 28 30 31 30 25 24 24 26 25 23 22 20 18 18 16 14 17 21 23 24 17
43 45 43 40 38 37 38 35 33 27 24 25 26 27 27 30 31 30 29 25 26 26 27 28 29 28 23 21 22 24 25 24 22 19 17 13 12 11 11 15 18 21 22
43 42 40 37 35 36 36 34 30 24 25 28 27 26 28 30 29 27 23 24 25 26 26 27 28 26 22 21 21 22 24 24 23 17 13 11 10 10 9 9 12 14 17
41 40 37 35 34 35 34 32 28 25 27 30 27 26 28 29 25 21 21 23 24 24 25 25 26 26 23 21 21 21 22 23 22 14 10 9 9 8 7 5 5 7 10
38 35 34 34 33 33 31 29 25 23 25 28 27 27 27 24 20 19 20 22 23 23 23 23 23 25 25 24 22 21 21 22 21 12 8 7 6 6 6 5 1 2 4
34 35 34 31 30 30 27 25 23 21 25 26 26 26 24 20 17 18 21 22 22 21 20 21 20 21 22 22 23 21 20 20 20 13 8 6 4 3 4 4 5 4 6
35 34 31 29 28 26 23 22 19 20 22 24 26 23 20 17 15 18 20 22 20 18 19 19 19 20 21 21 22 21 20 18 17 16 8 5 4 2 1 1 3 5 6
33 30 28 26 26 24 21 19 18 19 21 23 25 21 18 15 15 18 20 20 17 16 17 18 19 20 20 20 21 21 20 18 15 14 12 8 6 4 4 4 6 7 8
30 28 26 25 24 23 20 19 19 19 22 23 23 20 18 15 15 17 19 18 16 15 16 18 19 19 20 20 19 20 20 19 17 14 12 10 7 5 5 5 6 8 10
28 26 25 25 25 23 21 19 19 20 22 23 20 18 17 15 15 16 18 17 15 14 16 17 18 19 20 20 21 19 18 18 17 15 13 11 9 7 6 5 6 6 6
28 26 26 26 26 24 22 20 19 19 20 21 20 18 18 16 16 17 17 17 15 15 16 16 18 18 19 21 21 20 19 16 16 16 15 13 10 9 8 6 5 5 4
30 29 28 27 27 25 23 21 19 19 19 19 19 18 18 17 17 18 18 18 16 15 16 16 17 18 19 20 22 22 19 17 14 14 14 13 13 11 9 8 7 6 5
29 29 29 28 28 26 24 22 21 21 20 20 19 18 20 19 19 19 19 19 18 17 17 16 16 17 19 20 23 23 19 16 15 13 12 12 12 12 11 10 8 7 6
31 31 30 29 28 27 26 23 22 23 23 23 23 22 23 22 20 21 22 21 20 19 19 18 17 18 18 19 21 21 19 16 14 13 12 12 12 12 11 11 10 9 8
34 33 32 30 29 28 27 25 23 23 25 26 27 27 26 26 25 23 22 23 24 22 22 20 19 19 18 18 19 20 17 15 14 13 12 12 12 12 12 11 11 10 10
38 36 33 30 29 28 26 25 25 25 26 28 29 29 29 29 28 28 29 28 25 25 24 23 21 20 18 17 17 18 16 14 14 14 12 12 11 12 12 11 11 11 11
38 35 32 29 27 26 25 24 24 25 26 28 30 32 32 32 32 32 31 31 31 28 26 26 23 21 19 17 17 16 15 14 13 13 13 12 12 12 12 12 11 11 12

GFSGL_700_spd_006.txt.gz
Wind_Speed
39 39 40 35 34 36 38 40 41 42 41 39 38 37 32 30 28 26 27 23 23 22 25 26 28 30 27 28 31 32 31 31 36 44 41 36 36 36 34 32 29 25 22
39 36 32 34 36 38 40 42 42 42 41 39 38 36 32 28 24 23 23 20 24 29 29 32 33 32 32 33 34 33 34 35 43 44 39 38 37 34 33 32 29 24 22
35 34 34 35 37 39 41 42 43 42 41 40 38 35 30 25 23 22 22 25 31 32 35 36 36 34 35 35 36 39 41 43 42 39 38 36 34 31 29 28 27 21 25
36 34 34 36 38 39 41 44 44 42 41 39 38 35 28 25 23 23 26 30 31 34 35 36 35 35 34 35 37 39 41 38 36 36 35 33 30 27 24 22 19 18 26
34 32 35 37 38 40 43 44 42 40 40 38 35 32 27 24 22 23 31 30 35 35 35 35 35 34 33 35 36 37 35 33 33 32 32 30 27 22 19 18 19 19 23
31 32 35 37 38 42 44 43 41 40 38 35 32 24 27 26 25 26 28 30 31 33 34 35 33 34 35 36 34 32 30 31 30 29 28 29 25 19 17 17 18 20 27
29 32 35 37 39 43 44 42 40 38 35 33 28 26 24 25 24 24 24 27 30 32 33 32 31 33 33 32 32 28 28 27 28 27 27 24 21 19 20 19 19 18 24
30 34 36 38 42 44 44 40 38 36 33 32 28 26 25 24 24 25 27 29 30 31 30 29 30 30 31 31 28 25 25 26 25 24 26 24 21 18 19 18 21 27 23
31 34 36 39 42 43 42 38 34 34 32 30 27 25 24 27 26 27 29 30 28 28 27 28 27 27 28 28 25 24 24 25 24 24 24 22 19 17 18 21 20 22 20
31 34 36 39 41 42 39 34 33 33 32 28 24 25 25 27 27 29 30 29 26 25 25 25 25 25 27 26 24 24 25 25 24 24 20 18 15 12 13 16 15 19 17
32 34 37 38 40 38 35 32 32 32 31 28 26 27 27 25 27 29 28 25 23 24 24 23 23 25 25 24 22 22 24 25 25 24 16 13 11 10 10 11 12 14 20
32 34 35 36 37 35 32 30 31 30 29 26 24 25 26 25 26 27 25 21 22 23 23 22 21 22 23 23 22 21 22 24 24 20 12 10 10 9 9 9 10 11 14
31 32 33 35 35 32 30 29 29 28 26 24 22 24 25 27 26 23 21 20 22 23 22 20 20 21 21 22 23 23 21 22 23 17 10 9 8 7 7 9 7 5 7
29 30 32 33 32 30 28 27 26 25 23 21 21 23 25 25 23 20 18 20 21 21 20 19 19 19 20 21 22 24 22 20 21 17 9 7 6 5 5 3 4 4 6
28 30 31 30 29 27 25 25 25 21 20 19 21 24 25 23 20 17 17 19 20 20 18 18 18 19 19 20 21 22 22 21 19 18 12 7 7 5 3 1 3 4 1
28 28 28 28 26 25 25 24 23 20 19 18 20 23 23 20 17 15 16 17 18 17 16 17 17 18 19 20 20 20 20 20 19 17 15 10 7 6 4 3 3 6 6
27 27 27 26 24 24 25 25 24 23 19 19 20 22 22 19 17 15 16 17 16 15 15 16 17 17 18 19 19 19 19 18 18 16 14 13 10 7 6 6 7 8 9
26 26 26 25 24 25 26 26 25 23 22 20 19 21 21 18 16 15 16 16 16 14 13 15 16 17 17 18 19 20 19 17 17 16 15 12 11 9 7 6 7 8 12
27 26 26 26 27 27 26 26 25 24 22 20 19 20 19 18 16 16 17 16 15 14 14 15 16 16 17 18 20 22 20 17 15 15 14 13 11 10 8 6 7 8 8
28 28 28 28 28 28 28 27 25 25 23 22 20 19 19 18 17 17 17 17 17 16 15 15 16 16 17 19 20 22 22 19 15 14 13 13 11 11 9 8 6 5 6
29 29 29 30 30 30 29 29 27 25 25 24 22 20 21 20 19 19 20 19 18 18 17 17 16 17 17 18 20 22 23 20 17 13 13 12 12 11 10 9 7 6 5
34 33 32 33 32 32 31 30 29 28 26 25 24 23 23 23 21 21 22 22 22 21 20 20 18 19 18 18 19 20 21 20 17 14 12 12 12 12 11 10 8 7 6
36 37 38 38 37 35 33 32 30 29 27 27 26 25 25 25 25 25 24 24 23 24 23 23 21 20 20 19 19 19 19 18 16 14 14 12 11 12 12 11 10 8 7
40 41 43 43 41 37 34 33 31 28 27 26 26 26 28 29 29 28 27 26 27 28 28 27 25 23 22 21 19 19 18 17 15 15 14 13 12 11 12 11 11 10 9
41 40 38 38 36 33 32 31 30 26 24 23 24 25 26 27 28 29 30 30 30 30 31 31 29 26 24 23 21 19 19 18 16 14 14 13 12 12 12 12 11 11 10
35 32 36 37 33 29 28 29 28 26 25 24 26 26 27 27 27 27 27 28 30 30 29 30 30 30 29 25 23 20 19 18 17 16 14 13 13 13 12 12 12 12 12

GFSGL_700_spd_009.txt.gz
Wind_Speed
36 40 43 41 36 35 36 36 38 40 41 40 38 37 36 34 25 25 25 22 21 27 25 22 26 31 30 29 27 29 30 31 38 43 39 40 44 40 39 36 35 32 29
39 43 41 37 35 35 36 38 40 40 41 40 40 40 37 30 26 25 19 19 22 23 26 31 33 30 31 29 28 29 31 32 37 45 45 44 40 39 37 33 30 27 27
42 41 38 36 35 35 37 39 40 41 40 41 41 39 33 31 25 19 19 21 22 26 30 34 36 34 33 33 34 35 36 39 43 44 43 39 38 35 32 29 27 26 23
41 36 35 36 35 36 38 39 40 41 41 42 42 37 35 25 21 18 20 23 27 29 31 38 37 36 36 35 34 35 38 40 41 39 37 36 34 30 27 26 25 17 18
37 33 36 36 34 36 38 38 40 41 41 41 39 32 26 25 28 25 24 26 28 31 32 34 35 37 35 32 33 33 36 37 35 34 33 32 30 27 26 22 20 19 17
38 33 35 32 34 36 35 38 39 41 41 38 30 27 22 22 28 26 25 24 26 29 33 33 33 33 33 34 34 32 32 31 29 30 30 29 27 25 21 17 20 19 18
35 37 29 31 35 34 36 38 39 39 39 32 25 24 23 23 22 26 26 26 27 30 32 31 29 30 31 30 32 32 30 28 28 28 28 26 27 25 20 20 20 20 20
43 37 29 31 34 34 36 38 38 35 30 27 24 24 24 27 25 27 26 27 29 31 30 28 28 28 30 28 29 29 26 25 26 26 27 28 28 25 24 25 25 25 24
43 25 28 32 33 35 36 37 35 33 28 25 23 24 25 28 26 26 26 27 30 29 28 26 27 26 27 27 28 27 25 24 24 27 28 28 23 20 19 19 20 23 22
30 25 27 33 35 35 36 35 34 32 30 26 26 28 26 26 27 26 26 27 28 27 25 27 28 24 24 24 26 26 25 24 24 25 27 20 16 15 13 13 13 14 16
23 22 27 33 34 35 35 34 31 30 30 30 29 27 25 24 27 25 25 26 25 23 24 26 26 24 22 22 24 25 25 24 23 25 23 15 13 11 10 11 13 15 15
19 18 26 30 33 34 33 31 30 30 30 28 27 23 24 25 24 22 24 23 22 22 24 25 23 21 21 21 21 22 23 23 22 23 20 13 12 10 9 8 11 13 14
16 20 25 30 32 31 30 29 28 28 28 27 24 23 22 23 26 25 21 21 19 22 24 23 20 19 19 20 21 21 21 22 22 21 18 13 11 9 7 6 9 10 11
18 21 26 30 30 28 27 27 26 25 25 24 23 22 21 21 24 28 22 19 19 21 22 19 17 18 18 19 19 21 22 22 21 20 19 13 11 9 8 6 4 4 10
19 24 27 29 29 28 25 23 23 23 24 23 22 22 22 21 24 21 21 20 20 22 21 18 17 17 18 19 19 20 20 20 20 20 18 16 12 10 8 5 2 2 7
23 25 27 28 27 27 26 24 23 23 23 23 22 22 22 22 22 19 19 18 18 20 19 17 17 17 18 18 19 19 20 20 19 19 18 17 14 11 9 7 6 6 3
25 26 28 28 27 27 27 27 27 26 26 25 23 22 22 22 21 19 19 18 18 18 18 16 16 16 16 17 19 20 22 21 19 17 17 16 14 13 10 9 9 10 11
26 27 28 27 27 28 28 28 28 30 29 28 26 24 22 21 21 19 19 19 17 18 17 17 16 15 15 16 18 20 23 23 20 17 16 15 14 13 11 9 9 10 12
28 28 28 29 30 29 28 29 29 30 31 29 28 27 23 22 20 19 19 19 18 19 19 18 17 16 16 16 18 20 22 24 22 19 15 14 13 13 12 10 9 8 10
30 31 30 30 30 31 30 31 32 32 32 32 30 27 25 26 22 19 20 20 20 19 19 20 19 18 18 18 19 20 21 23 23 20 16 14 13 12 12 11 9 8 8
33 31 33 36 36 35 35 35 34 33 33 33 32 29 25 27 28 24 23 22 22 22 21 22 21 20 20 19 19 20 20 21 21 20 18 15 13 12 11 11 10 9 7
37 38 40 40 40 41 41 41 39 37 36 34 32 31 29 29 29 27 26 25 24 24 25 25 24 24 23 22 20 20 20 20 20 19 18 17 15 12 11 10 10 9 9
42 43 44 43 42 42 41 38 38 37 35 34 33 30 29 29 30 29 29 27 27 27 26 27 28 28 27 25 23 22 21 20 19 19 18 17 16 13 12 11 10 8 8
46 46 43 39 39 37 35 34 35 33 33 32 30 28 26 26 29 30 30 29 28 28 27 28 28 29 31 31 26 23 23 21 19 19 19 17 16 14 12 11 11 10 9
46 44 41 42 46 36 40 34 33 30 31 28 27 26 25 25 26 29 30 30 29 28 28 28 29 30 29 29 30 27 24 23 21 19 18 18 17 15 14 12 11 11 11
45 42 40 38 37 37 32 33 30 28 29 28 28 28 28 28 29 29 29 28 27 27 28 28 28 29 30 28 29 30 28 24 23 21 19 18 17 16 15 14 13 12 12

GFSGL_700_spd_012.txt.gz
Wind_Speed
34 36 39 39 41 42 39 39 35 34 37 39 40 39 38 38 37 33 31 28 25 21 23 28 32 30 35 41 40 35 36 35 40 39 38 42 44 43 43 41 37 35 33
38 39 41 42 45 40 40 37 35 36 39 39 38 38 39 39 37 31 27 26 21 26 26 27 32 37 39 42 42 38 38 37 38 43 41 43 43 42 38 37 34 32 29
41 42 43 45 45 42 34 34 34 38 38 38 37 39 38 34 33 28 25 25 23 26 27 32 36 34 40 42 38 37 36 36 37 41 42 41 40 36 34 33 30 29 27
44 40 45 48 45 38 35 31 33 37 38 38 38 38 36 32 28 27 24 25 25 28 30 32 33 37 36 37 35 34 34 36 37 38 38 37 34 32 31 32 30 27 25
40 39 42 43 44 35 32 33 32 35 37 37 38 36 35 32 23 25 26 28 29 29 30 31 32 35 35 32 30 31 31 33 34 35 33 32 30 28 27 27 27 23 18
37 40 45 45 44 40 37 31 30 34 36 38 37 34 33 33 23 25 25 28 29 30 30 31 31 32 33 31 31 32 32 33 33 32 30 28 27 28 29 30 26 24 21
37 42 44 50 46 32 27 27 30 34 37 38 36 34 34 33 29 24 23 27 29 30 30 31 30 28 29 28 29 30 30 30 30 30 30 29 30 31 32 28 25 26 26
40 41 51 49 39 36 26 28 31 34 34 33 33 32 36 34 33 28 26 29 29 30 30 30 28 28 28 29 29 27 28 28 27 27 28 27 28 29 27 24 23 22 21
45 47 48 35 28 20 24 25 30 34 34 33 31 32 35 33 32 29 28 29 30 29 29 28 26 26 28 28 26 25 25 26 26 25 25 28 27 20 18 18 16 17 15
39 37 40 25 19 19 22 28 32 35 34 31 32 32 35 34 32 29 26 29 29 27 26 25 26 27 27 25 24 24 24 25 26 22 22 24 19 16 14 13 15 16 16
50 53 34 25 19 20 26 30 34 34 30 28 30 28 29 32 29 25 26 26 26 23 22 23 28 27 24 23 23 23 24 25 25 24 21 21 16 13 11 10 10 16 19
50 35 25 19 17 22 26 32 33 29 28 29 29 28 28 27 26 22 20 22 23 21 20 22 25 24 22 22 22 22 23 23 23 22 21 20 15 12 9 5 6 10 12
35 25 18 17 19 24 30 31 29 28 27 27 27 26 26 25 25 23 24 23 20 20 20 22 22 21 21 21 22 22 21 21 21 22 21 19 17 12 11 10 8 6 9
19 17 17 17 23 28 29 27 27 27 28 27 26 26 24 22 21 24 27 26 21 18 19 20 18 18 19 20 19 19 21 22 21 20 20 19 17 14 11 10 7 6 7
18 15 19 24 26 28 30 28 25 26 28 27 25 25 24 22 24 25 27 27 24 19 18 19 18 18 18 18 18 19 21 22 22 20 19 19 17 15 11 10 7 6 7
17 22 25 27 28 29 30 28 28 27 27 27 27 26 24 23 25 25 24 24 24 22 19 19 18 17 17 16 16 17 20 22 24 22 19 17 17 15 12 10 9 9 10
24 26 28 29 30 31 31 31 31 29 29 28 26 25 25 24 25 25 25 23 22 21 19 19 18 18 17 16 16 17 19 22 24 24 20 16 16 16 14 12 10 11 12
26 28 30 31 31 32 32 32 34 34 31 30 28 27 26 26 25 25 25 24 20 19 19 19 18 18 18 16 16 17 18 20 23 24 22 17 15 15 14 13 12 9 10
29 31 32 33 33 33 33 33 33 34 35 34 31 28 27 27 27 27 25 24 22 20 19 19 19 19 18 18 17 18 18 19 20 22 21 19 16 14 14 14 12 11 9
32 34 35 37 38 36 38 38 38 37 36 36 35 32 29 28 28 25 24 24 24 22 21 20 20 22 21 21 20 20 20 19 20 20 21 20 19 16 14 13 13 12 10
37 39 40 39 39 42 43 43 41 41 40 39 34 32 30 28 30 30 30 30 27 26 24 23 21 21 22 21 22 22 21 20 19 19 19 19 18 17 14 13 12 12 11
42 44 45 45 44 46 46 42 41 38 37 33 32 30 29 30 30 29 31 32 32 28 24 24 24 24 24 23 23 23 22 22 20 18 18 18 18 17 15 12 11 11 11
50 51 51 51 48 45 41 39 36 35 34 34 33 30 29 29 28 26 26 29 28 26 28 27 27 27 26 25 25 26 25 24 22 20 18 17 17 16 15 13 11 10 10
52 53 52 51 48 43 43 41 39 34 36 37 29 27 29 27 24 23 23 24 23 27 27 27 28 29 29 28 28 26 26 24 26 22 20 19 17 16 15 14 12 10 9
48 46 44 42 41 40 39 35 37 42 38 28 24 24 24 24 24 24 22 24 26 27 29 30 29 27 26 26 27 27 26 24 24 24 22 20 19 17 15 14 12 11 10
44 41 39 35 29 31 31 29 29 34 30 21 24 28 30 30 31 31 30 31 33 33 29 28 26 25 24 24 24 26 27 26 25 25 26 22 20 18 16 14 13 12 11

GFSGL_700_spd_015.txt.gz
Wind_Speed
31 32 35 38 39 42 45 46 47 46 42 35 34 33 34 34 35 33 32 31 31 31 29 28 25 31 34 35 39 44 42 45 46 43 39 38 39 40 39 38 38 37 35
37 38 40 41 41 44 48 49 49 42 37 35 33 33 34 35 35 34 31 28 29 26 26 26 28 32 33 38 43 42 41 40 42 42 37 38 38 38 38 36 33 31 31
42 43 44 43 43 46 47 50 47 39 38 36 33 31 33 34 31 33 30 29 28 26 27 28 30 33 35 36 37 37 36 33 34 38 38 36 36 36 33 31 30 30 29
45 44 44 42 44 47 49 45 42 36 38 27 27 30 33 37 35 31 28 28 29 28 31 32 32 34 35 37 36 33 31 32 33 34 35 34 33 30 29 31 30 28 28
45 42 41 42 45 47 42 42 40 38 26 25 27 29 33 37 37 28 26 28 28 27 31 31 33 34 36 35 31 29 31 31 32 32 31 31 28 28 28 28 31 32 26
41 39 39 43 46 47 47 47 41 37 21 24 25 29 34 37 36 31 28 29 28 29 30 32 32 33 34 30 28 29 31 33 32 33 32 30 27 27 28 30 32 28 22
40 40 42 44 47 53 54 45 34 33 24 23 28 33 35 38 36 32 30 32 31 31 32 33 33 33 30 27 28 29 27 27 29 30 30 29 28 28 31 29 23 22 21
42 44 47 49 51 54 53 35 34 21 22 26 31 33 37 38 35 33 34 36 34 32 32 33 33 31 25 26 27 26 24 25 26 28 30 28 28 28 27 23 21 19 18
44 47 51 51 55 55 41 34 26 21 23 28 34 36 35 34 33 32 34 36 33 32 32 32 31 26 24 27 24 23 22 23 24 25 27 25 25 25 21 19 18 17 15
45 49 53 55 57 41 26 25 19 22 26 32 34 32 30 27 28 30 32 31 30 30 31 30 25 23 25 25 23 22 21 22 23 23 23 23 22 19 16 16 13 10 14
52 54 57 56 41 31 23 15 17 23 32 32 30 27 25 25 27 30 29 27 27 29 28 24 22 22 23 22 21 22 22 23 23 23 23 21 19 16 14 13 9 11 13
51 55 51 37 36 23 17 15 25 31 31 28 28 26 25 25 27 28 27 23 25 25 24 21 20 23 22 21 21 21 21 21 21 21 21 21 18 16 13 12 11 12 11
49 40 36 32 21 19 18 25 28 29 30 28 28 27 26 27 29 27 23 23 24 23 23 20 19 21 20 19 19 19 18 19 20 20 20 19 19 16 14 12 11 11 9
37 32 25 22 14 20 26 28 29 26 28 29 29 29 29 29 29 28 26 27 25 25 23 20 18 19 18 17 17 17 17 19 21 21 20 18 18 17 16 13 10 9 7
21 22 18 19 24 26 27 29 30 29 27 28 30 31 31 31 30 29 27 27 27 26 24 20 18 18 17 15 16 16 16 18 20 22 22 19 17 17 16 14 11 9 8
20 20 24 26 27 28 30 30 30 32 32 30 29 30 30 31 31 30 28 26 29 26 24 20 18 18 17 15 15 15 15 17 19 22 23 21 17 16 15 14 12 10 11
25 26 28 29 30 32 32 33 34 34 33 32 32 33 32 31 31 30 28 25 28 28 23 21 20 18 18 17 16 16 15 16 17 19 21 21 19 17 15 15 12 11 11
27 27 29 30 33 35 36 36 37 38 36 37 35 34 33 32 31 28 27 28 29 27 23 21 20 19 19 18 17 17 17 16 16 17 19 20 20 18 15 15 14 11 10
31 32 34 35 37 38 40 41 41 40 39 41 40 38 33 33 33 30 27 27 26 25 24 22 20 20 20 19 19 18 17 16 16 17 17 17 18 18 16 14 14 13 11
35 37 39 41 43 44 44 45 43 45 45 45 43 39 36 35 30 29 29 30 28 25 25 25 23 21 20 19 20 21 18 17 17 16 17 17 17 17 17 15 13 13 12
40 43 45 46 48 49 50 50 48 48 48 45 39 36 31 29 30 28 28 30 31 32 28 27 27 24 21 20 20 17 14 15 17 18 17 18 16 16 15 16 13 12 11
48 50 52 52 52 52 52 51 46 49 43 39 37 35 30 28 31 31 27 27 27 29 29 24 26 25 23 22 21 21 20 18 17 17 17 17 17 15 14 13 13 11 10
51 51 50 49 47 46 46 44 43 40 35 35 39 36 27 27 28 28 26 25 25 25 24 19 23 26 26 25 24 23 24 21 19 19 18 17 17 15 14 13 12 11 10
48 48 45 44 43 41 39 38 35 32 33 36 36 34 25 26 23 24 20 19 19 19 21 16 21 25 26 26 26 27 26 24 22 21 19 17 17 16 15 13 12 10 9
46 45 44 42 40 38 34 29 25 28 27 25 30 26 26 21 21 22 21 21 17 19 19 21 26 29 28 27 27 26 24 22 22 21 20 20 19 18 16 14 13 11 10
43 42 40 38 36 33 29 27 27 28 27 31 30 27 21 24 25 26 27 29 29 27 27 27 29 32 32 25 24 23 23 22 21 21 21 21 20 19 19 16 14 13 11

GFSGL_700_spd_021.txt.gz
Wind_Speed
22 22 21 19 22 26 31 33 38 42 46 47 48 52 52 53 54 51 42 38 37 39 35 31 31 31 30 31 32 35 36 37 39 39 41 41 39 39 41 41 41 41 39
21 23 24 27 27 30 34 34 35 37 41 45 48 50 53 54 46 40 38 38 33 28 30 29 29 30 32 32 34 36 36 38 40 41 39 39 38 40 42 41 37 36 35
27 28 28 30 32 35 35 35 39 41 43 46 47 51 56 48 40 37 31 26 27 29 33 32 31 32 34 35 34 35 37 38 39 39 39 39 40 37 36 35 34 32 31
32 34 33 37 36 33 35 38 40 42 45 48 51 54 46 37 37 28 24 27 28 31 32 33 32 33 36 36 34 36 37 38 37 36 38 38 36 33 33 34 29 29 28
34 35 32 34 34 35 37 40 42 46 49 51 54 49 34 37 30 25 26 30 32 32 32 33 32 35 39 36 35 36 38 36 34 37 36 34 32 31 31 31 30 26 26
31 29 30 32 34 35 37 42 48 51 54 53 52 33 37 34 24 26 29 34 35 32 33 33 33 34 37 34 34 36 34 33 35 36 33 32 31 32 31 30 29 28 23
25 27 29 32 33 34 41 46 50 54 55 50 34 40 44 24 23 28 33 34 33 32 33 33 33 36 33 32 34 32 30 33 35 34 33 33 32 32 30 30 28 26 21
24 29 31 34 38 44 48 50 52 60 48 48 41 45 28 22 27 32 32 31 31 32 32 32 33 33 31 32 31 28 28 30 30 30 32 31 30 30 30 29 28 25 18
28 31 34 37 41 48 57 54 53 48 48 42 43 28 24 26 30 31 31 30 30 30 31 31 33 31 29 31 29 26 27 27 27 28 28 28 28 29 30 29 27 24 17
29 32 36 43 53 41 46 54 46 43 42 43 31 26 28 29 30 30 29 29 30 30 30 31 31 29 30 30 28 25 26 25 24 24 25 27 29 28 28 27 27 24 20
27 32 38 42 41 44 47 39 40 40 43 30 28 28 30 31 30 30 30 31 30 31 30 30 29 29 29 29 27 25 25 23 22 22 23 25 27 27 25 24 25 25 21
27 30 30 34 38 37 43 43 42 37 32 30 32 33 33 33 32 31 30 31 32 32 29 30 30 29 29 28 27 24 24 23 21 20 21 23 25 25 23 21 21 21 21
30 32 31 33 36 37 35 35 36 36 35 36 37 37 37 35 34 32 31 31 32 33 31 31 31 31 29 27 27 24 24 23 22 20 19 21 22 23 22 19 19 21 19
30 28 28 29 32 34 37 39 40 38 39 40 40 40 38 37 36 34 35 35 34 33 32 32 33 33 30 26 27 26 24 24 23 22 19 21 21 20 21 21 18 19 17
26 28 30 32 34 36 38 39 39 40 41 42 42 41 41 40 37 36 37 37 37 35 35 34 35 34 31 27 27 27 25 25 24 23 21 21 21 21 20 21 20 18 19
26 29 31 33 34 36 37 39 38 40 41 43 44 46 45 43 42 41 39 39 39 37 38 38 37 35 33 29 27 27 27 24 24 23 22 21 21 20 19 19 19 19 18
28 30 32 33 35 37 39 42 45 43 45 46 48 49 50 48 45 45 41 40 42 40 39 37 37 35 32 30 29 29 26 24 25 22 22 21 21 20 18 18 18 17 17
31 33 35 37 39 42 44 47 50 52 53 52 53 55 54 52 49 45 43 40 45 38 37 36 36 29 28 28 29 29 26 25 24 22 22 21 21 20 17 16 17 17 16
33 36 38 41 44 47 49 51 53 54 55 56 55 54 51 48 44 42 38 42 44 44 43 38 33 31 30 27 27 30 28 25 24 23 23 22 22 20 17 14 15 16 15
37 40 43 46 48 49 50 52 52 53 52 51 49 47 45 44 43 39 37 35 34 39 39 30 28 27 31 28 26 25 24 25 25 23 21 21 20 20 18 14 14 15 15
42 44 46 48 50 51 52 52 51 50 49 47 44 42 41 39 38 37 33 37 39 38 29 29 30 30 28 33 34 29 26 25 25 23 20 19 18 18 16 15 14 14 14
44 46 49 50 52 52 50 49 47 46 45 44 43 40 38 34 30 30 24 18 22 27 28 30 30 29 27 28 30 30 30 27 24 22 21 21 21 20 19 16 15 13 13
47 49 50 50 49 48 46 44 43 42 42 40 39 38 35 32 27 26 22 23 23 27 28 26 27 25 24 23 22 23 24 27 24 22 21 21 21 21 20 18 16 14 13
48 50 50 49 48 45 43 42 40 39 38 37 36 34 32 30 24 19 20 23 18 23 24 24 23 21 19 17 21 25 25 25 22 21 21 22 22 22 22 19 17 15 14
49 49 48 47 45 42 41 39 38 37 36 35 34 32 31 29 25 21 23 26 27 25 25 24 19 20 16 14 15 16 19 20 22 21 22 23 24 23 23 22 19 17 15
47 47 45 43 41 40 38 37 37 36 34 33 32 31 30 29 28 28 23 23 24 27 30 25 23 24 22 22 23 21 20 23 27 26 28 30 26 25 24 23 22 19 18

GFSGL_700_spd_024.txt.gz
Wind_Speed
17 22 24 24 24 24 24 26 27 27 31 35 35 41 39 44 45 47 47 41 40 38 35 29 29 31 30 29 29 31 33 34 36 35 37 39 39 39 39 40 40 38 37
21 23 25 25 26 26 28 28 26 27 32 35 34 40 41 46 48 49 43 40 40 33 30 30 31 32 31 32 33 34 36 35 36 37 38 38 37 38 39 38 35 35 36
27 30 32 30 33 30 29 27 26 30 34 36 42 43 45 52 49 36 36 42 33 30 30 31 32 33 33 34 33 36 37 35 37 39 37 36 37 37 36 34 32 32 33
31 33 33 33 31 28 28 27 29 33 37 41 46 49 52 53 44 36 42 32 27 29 30 32 32 33 32 33 33 36 35 35 37 37 35 36 36 34 34 34 30 31 30
33 33 34 31 29 27 29 32 35 37 44 39 45 51 58 47 38 42 38 28 27 31 33 32 32 32 32 32 34 35 34 35 36 34 34 35 34 33 33 33 33 30 26
29 29 30 26 28 28 30 34 37 39 41 45 50 55 48 45 39 43 30 27 31 33 34 33 31 32 32 33 33 33 33 35 33 33 33 33 32 33 32 32 32 30 27
28 26 26 27 27 29 33 37 46 51 50 52 62 49 45 41 43 36 25 31 34 35 33 32 31 32 32 33 33 31 32 33 31 32 32 31 30 31 32 32 31 29 26
26 26 26 27 29 31 36 41 45 43 47 45 48 44 44 42 41 28 29 34 35 33 32 31 31 31 31 32 31 30 31 30 30 30 30 29 28 29 32 33 31 28 24
29 29 28 28 29 33 39 41 46 54 45 42 40 40 41 39 30 30 33 35 34 33 32 31 31 32 31 32 31 30 30 28 28 28 28 26 26 28 31 33 31 28 23
27 27 27 25 28 31 41 45 38 36 37 38 38 39 36 32 30 33 34 34 34 33 33 33 32 32 32 31 32 30 29 27 26 26 26 24 24 26 29 31 31 29 26
26 25 27 28 31 32 32 33 34 37 41 40 37 34 33 34 35 36 36 36 35 35 35 35 33 34 33 31 32 30 29 28 25 25 24 23 23 23 25 27 28 28 26
26 25 26 28 29 31 32 34 36 36 36 37 38 38 36 37 40 39 38 37 37 37 36 36 35 35 35 31 32 30 30 28 26 25 23 22 22 23 24 25 25 26 24
28 29 28 28 29 29 30 33 34 36 39 40 41 41 41 40 41 42 40 39 39 39 37 36 36 35 35 33 31 30 30 29 28 25 23 23 23 23 23 24 24 24 23
25 25 26 27 28 31 32 35 37 38 39 40 41 43 43 43 42 41 42 41 42 41 40 39 38 35 34 35 33 31 30 29 30 26 24 24 23 23 23 23 22 23 21
25 26 27 29 31 33 34 36 38 39 41 43 45 47 49 49 48 48 44 44 44 43 42 43 43 39 37 35 32 34 31 30 31 27 25 24 23 23 22 22 22 22 22
26 27 29 31 33 35 37 37 38 41 43 45 48 51 53 54 55 55 55 51 47 45 46 48 45 38 37 33 31 31 30 29 29 28 27 24 23 23 22 21 21 20 21
26 28 30 32 34 37 39 42 44 45 48 50 52 54 56 57 55 51 51 52 50 45 43 47 44 40 37 28 29 30 29 27 30 31 26 24 23 22 21 20 20 19 18
29 31 33 35 38 41 44 47 49 51 52 53 53 55 55 55 53 51 46 42 43 41 45 50 50 46 32 26 27 28 26 27 31 30 25 24 23 22 20 19 19 18 16
31 33 36 39 42 44 46 49 51 53 54 55 54 51 50 47 44 42 40 39 36 38 44 41 40 39 39 30 29 30 31 23 28 30 26 24 23 22 20 19 18 18 15
34 37 39 41 43 46 48 51 53 54 54 53 50 48 45 43 41 39 35 33 30 30 33 37 35 29 33 29 27 26 29 31 27 25 22 23 23 22 18 17 16 16 15
36 38 40 42 45 49 51 53 54 53 51 48 46 44 43 43 41 39 35 31 27 26 24 27 32 27 24 23 25 24 28 29 27 24 20 20 22 20 19 17 15 15 13
38 39 42 45 49 51 52 53 52 49 47 44 43 41 40 39 38 36 31 28 26 24 22 20 20 23 19 24 24 24 25 26 27 30 24 20 20 21 19 19 17 15 13
40 42 45 48 50 51 51 50 47 44 43 42 41 40 38 36 35 34 31 26 24 21 21 24 24 20 20 23 23 21 21 21 25 27 26 22 20 20 19 18 18 15 14
42 44 47 49 51 50 48 45 43 41 40 39 38 36 35 34 33 33 31 26 25 22 23 23 23 23 22 19 18 18 20 22 24 25 23 22 20 19 19 18 17 16 15
44 46 48 49 49 47 45 42 40 39 37 36 34 34 33 32 32 30 30 27 27 24 21 18 22 25 23 18 12 13 18 20 23 23 22 20 20 19 19 20 20 19 16
45 46 47 47 46 44 41 38 37 36 34 33 32 32 31 31 30 29 29 26 23 22 21 21 22 21 23 19 17 17 15 11 13 17 20 21 21 19 18 22 22 21 20

GFSGL_700_spd_027.txt.gz
Wind_Speed
15 17 20 23 24 27 27 28 29 30 28 24 24 31 33 38 36 39 41 47 40 34 37 33 31 30 29 31 30 30 31 32 35 34 35 33 36 37 37 38 39 38 38
16 19 22 24 24 26 29 31 33 29 27 18 28 33 34 43 44 47 47 42 33 39 34 32 30 30 30 32 31 31 31 33 34 35 33 35 36 35 37 38 36 35 36
20 21 24 28 30 31 30 30 28 26 27 27 27 37 35 41 36 43 47 33 40 35 33 31 30 31 32 31 31 31 32 33 35 34 33 35 34 35 36 35 33 33 33
24 25 28 32 34 33 32 32 29 28 27 26 34 38 40 44 47 47 31 38 41 37 32 30 30 32 32 31 31 30 31 33 33 33 33 33 33 34 34 34 30 30 31
28 31 33 35 38 39 36 34 28 26 30 34 38 45 53 52 50 38 39 39 39 35 31 31 32 33 31 31 32 31 32 33 32 33 32 32 32 32 31 30 31 32 30
30 33 35 31 30 31 30 27 26 29 34 37 43 42 42 33 38 38 39 40 42 33 31 31 34 34 33 32 32 31 32 31 31 32 32 31 30 29 28 28 30 32 30
30 27 25 25 25 26 25 26 27 32 38 45 50 45 44 39 37 38 39 45 36 33 32 35 35 34 33 33 32 33 31 30 30 31 30 29 29 27 25 25 28 30 28
25 25 26 28 28 28 27 27 30 36 46 43 46 38 34 34 35 39 42 35 35 33 36 36 36 35 34 34 34 34 32 30 29 30 29 28 28 25 23 24 26 28 29
27 27 27 27 27 28 29 28 30 27 30 26 31 31 33 34 34 35 35 34 35 36 37 37 36 36 35 34 36 33 33 30 30 30 29 28 27 25 23 23 24 27 29
25 24 24 25 27 27 29 32 34 33 31 31 31 31 31 32 32 32 34 37 38 38 38 37 37 36 35 36 38 35 34 30 31 29 29 28 27 25 23 24 24 26 28
26 24 21 21 22 23 24 24 26 26 27 28 30 32 33 34 35 34 36 40 39 39 39 37 37 36 36 38 39 37 34 33 31 29 28 27 26 25 24 23 23 25 26
26 23 22 23 24 25 25 25 26 28 29 31 34 35 35 36 37 38 40 42 41 42 41 39 39 37 38 38 40 37 35 34 32 29 28 26 26 26 24 23 23 24 26
23 22 22 23 24 25 26 27 28 31 33 35 37 39 40 41 42 41 43 45 47 47 45 42 41 40 40 40 37 36 35 35 31 30 29 26 26 26 24 23 23 23 24
22 22 23 24 25 26 28 29 31 33 35 38 40 43 45 47 49 51 52 52 51 50 50 48 46 44 44 42 38 36 36 33 33 32 30 27 26 26 23 23 21 21 22
22 22 23 24 25 27 29 31 33 35 39 42 45 47 50 52 53 55 56 56 56 55 53 49 49 47 43 42 40 39 36 32 30 33 36 32 27 26 23 22 20 20 20
22 23 24 26 28 29 30 31 34 38 40 43 46 49 52 54 55 57 57 57 55 52 50 49 48 47 47 44 43 44 38 33 30 32 32 31 29 25 24 22 20 19 19
23 25 27 29 30 31 33 36 38 39 41 44 47 51 54 56 55 54 53 51 47 44 42 40 41 41 41 47 34 26 31 26 28 29 30 33 31 27 25 21 19 18 17
26 28 30 31 32 34 36 38 40 43 47 51 54 56 56 53 51 48 46 44 41 38 36 36 35 33 35 37 38 44 29 32 28 26 28 30 29 29 24 21 19 18 16
28 30 31 32 35 37 38 40 43 47 51 55 57 55 52 48 45 43 41 39 37 35 33 31 31 31 38 42 37 29 28 28 27 29 28 29 27 28 23 20 18 16 15
29 30 32 35 36 38 40 43 47 51 54 56 55 52 48 45 43 42 40 37 34 31 29 27 26 22 26 25 25 25 27 26 27 27 27 25 24 22 23 20 17 15 13
31 33 35 36 38 40 42 46 50 52 53 52 49 45 44 44 43 41 39 36 34 32 28 24 23 19 19 21 19 15 20 24 22 21 28 24 20 20 20 19 17 14 13
33 35 37 38 39 42 45 48 50 51 50 47 44 41 40 39 38 36 35 33 32 32 29 25 21 20 18 19 19 16 19 22 23 23 25 26 22 19 18 19 17 15 14
35 37 38 39 41 43 46 48 48 48 45 42 40 39 38 36 35 33 32 31 29 30 27 25 22 21 20 20 22 19 20 21 22 23 22 23 25 23 19 17 16 15 13
37 38 39 40 41 43 45 46 46 44 41 39 38 37 35 33 32 31 30 30 28 29 27 24 22 20 21 22 24 21 21 21 20 21 22 25 24 23 20 18 16 13 14
38 39 39 40 42 43 44 45 43 40 38 37 36 34 32 31 30 29 29 28 28 28 25 22 20 17 17 20 20 17 20 19 19 20 22 22 23 25 20 18 16 15 14
39 39 40 41 42 43 43 42 40 37 36 34 34 33 31 31 30 29 28 28 27 27 25 21 18 17 14 16 16 20 15 11 9 11 16 22 25 24 20 18 16 14 15

GFSGL_700_spd_030.txt.gz
Wind_Speed
26 27 28 28 25 29 28 27 29 30 34 38 39 38 31 27 29 34 36 36 41 43 33 33 32 33 32 30 28 29 30 30 30 28 25 26 36 35 35 35 36 37 38
24 22 22 25 26 27 27 29 31 32 34 34 30 28 24 31 35 37 39 43 44 34 35 36 33 34 33 28 29 31 31 29 29 32 30 32 33 36 35 35 35 35 35
20 21 23 26 28 29 30 32 33 35 34 33 32 33 30 34 36 41 48 47 40 33 35 36 36 33 31 28 30 30 27 28 30 32 34 33 34 35 35 34 34 32 32
23 25 27 29 31 34 35 36 38 38 36 34 33 35 36 37 44 40 43 32 34 35 36 36 35 32 30 30 31 29 30 30 30 33 35 34 34 34 34 33 32 30 29
24 26 28 31 33 34 36 36 35 36 37 34 30 36 40 37 41 47 41 37 35 36 36 39 37 32 30 33 35 35 35 33 34 34 34 34 34 33 33 32 31 28 28
25 28 31 34 36 35 32 32 33 34 32 32 33 37 41 46 44 35 32 35 36 37 39 38 34 34 32 35 37 38 37 38 37 34 34 34 33 33 32 31 30 27 27
28 31 33 31 29 30 31 32 32 32 30 31 34 34 35 35 28 30 32 36 38 38 37 34 34 34 38 38 39 38 39 39 37 34 35 34 33 32 31 30 29 26 26
29 28 27 28 30 31 33 33 34 35 32 34 36 34 32 29 29 30 34 37 38 37 37 36 37 38 39 40 38 40 40 40 38 36 35 32 33 31 30 29 28 26 25
24 25 26 27 28 29 30 31 31 32 31 33 34 30 29 30 29 30 33 38 38 37 38 39 40 41 39 40 39 40 40 41 39 36 36 34 33 31 29 29 28 27 26
23 24 24 25 25 25 25 25 25 24 24 25 25 26 28 29 30 31 35 38 40 40 41 42 42 41 40 41 40 40 41 40 38 39 35 34 33 31 29 28 27 27 26
23 23 23 22 22 21 21 22 22 23 24 24 25 26 28 30 32 34 36 40 43 46 47 47 46 45 43 42 41 42 42 36 37 39 38 36 34 32 30 28 27 26 25
23 23 22 22 22 22 23 24 24 24 25 26 28 29 31 33 36 39 41 45 48 51 52 53 52 50 49 46 45 44 41 36 37 42 38 37 33 31 30 29 27 26 25
23 22 22 22 22 22 22 23 24 26 27 29 30 33 36 37 40 43 44 47 49 52 54 56 56 55 53 51 49 46 41 40 39 40 38 35 32 29 28 29 27 26 25
23 23 22 22 22 23 23 24 27 28 30 31 34 36 39 41 44 47 51 54 56 57 57 56 55 52 49 49 48 47 45 43 40 39 36 34 33 37 34 29 27 26 25
23 23 22 22 23 24 26 27 29 30 31 33 36 38 41 45 49 53 57 59 59 58 55 52 50 47 44 42 38 42 40 42 39 39 41 35 32 31 33 30 27 25 25
23 23 22 22 24 26 28 31 29 31 34 36 38 41 44 49 53 56 58 56 53 51 49 46 43 41 38 34 33 34 39 44 37 43 41 36 31 32 30 31 30 24 24
22 21 22 25 27 28 29 30 32 35 36 37 39 43 47 52 55 57 55 51 48 45 44 42 40 37 36 33 25 27 26 34 44 28 28 30 27 30 31 30 31 25 23
21 23 25 27 29 30 31 33 35 36 38 40 43 47 50 53 55 52 49 46 44 42 40 38 37 35 33 30 27 25 27 32 28 35 27 26 27 26 29 26 27 26 21
23 25 27 28 29 31 33 35 37 38 40 43 46 49 52 54 51 47 44 43 42 40 38 36 33 32 29 27 26 26 31 28 24 28 29 28 28 27 28 26 27 25 19
25 27 28 29 31 33 35 36 38 40 42 44 47 50 52 50 46 44 43 42 40 37 35 33 32 30 27 25 22 23 22 23 24 23 22 21 24 27 26 26 25 22 18
27 28 29 31 33 35 36 38 40 41 43 45 47 49 48 45 43 42 41 40 37 35 33 31 31 30 25 23 22 22 19 17 20 23 23 24 21 23 26 25 22 21 18
28 29 31 32 35 36 38 39 41 42 43 45 46 46 43 41 40 39 38 36 33 32 33 31 31 30 24 21 22 20 21 19 11 16 18 20 20 24 21 21 20 20 18
29 31 32 35 37 38 39 40 41 42 43 44 43 42 40 38 38 36 35 33 31 29 30 30 31 29 22 21 20 18 26 20 19 18 17 20 22 22 25 23 19 19 18
32 34 36 37 38 39 40 40 41 42 42 41 41 39 37 37 36 35 33 32 30 29 29 29 31 28 21 18 18 18 20 25 22 20 21 22 22 22 24 26 21 19 18
35 36 38 39 40 40 41 41 41 40 40 39 38 36 35 35 35 34 34 33 32 30 29 29 28 25 20 18 17 15 17 22 22 20 21 21 21 23 22 27 23 20 18
37 39 40 40 41 41 41 40 40 39 38 37 35 34 34 34 34 33 32 32 31 30 29 28 26 24 20 18 16 14 14 18 20 21 22 23 23 24 24 24 23 21 18

GFSGL_700_spd_033.txt.gz
Wind_Speed
33 34 31 27 30 28 28 29 31 32 32 32 34 36 38 37 34 32 33 36 34 38 44 43 33 31 33 33 34 36 35 33 33 31 25 27 33 36 36 38 37 37 36
34 33 31 28 29 27 28 29 30 31 32 33 37 38 37 39 38 31 39 34 36 39 41 33 30 33 34 35 36 34 33 31 31 34 29 30 33 34 34 36 37 35 35
26 29 29 27 25 26 29 31 33 35 37 39 39 40 37 37 35 38 37 42 40 46 33 30 32 35 37 37 35 33 34 32 31 33 35 31 35 34 33 36 37 38 35
21 22 23 24 25 29 31 34 36 36 37 39 40 39 39 37 37 38 38 45 44 29 32 33 35 35 36 36 35 32 35 35 34 39 35 34 33 33 35 36 37 38 37
22 22 25 28 30 31 34 36 38 39 35 34 31 32 33 33 36 38 36 39 35 32 35 35 36 37 38 36 34 34 34 37 40 42 41 36 36 33 34 34 38 38 37
27 29 30 31 31 33 36 37 35 34 34 33 31 31 33 32 33 35 38 36 35 35 36 37 38 38 37 36 35 35 37 40 42 44 47 45 41 39 38 37 39 39 38
27 27 28 31 33 34 33 33 34 35 36 36 35 36 34 37 36 37 36 36 36 38 38 38 39 38 37 37 39 43 43 40 42 44 46 45 43 45 43 40 38 38 37
24 27 30 32 31 31 32 33 34 34 34 34 33 33 34 33 35 33 33 34 38 38 38 40 40 41 41 41 44 45 46 48 45 44 43 42 41 45 42 39 38 37 35
27 28 28 28 29 30 30 31 31 31 31 30 30 29 29 29 31 30 33 36 38 38 38 39 41 42 42 43 45 49 49 49 48 47 44 41 40 42 39 38 37 36 35
26 26 26 27 26 27 27 28 28 28 27 26 26 27 27 27 30 31 32 35 37 39 41 42 44 46 48 49 49 49 51 48 45 47 42 42 41 40 39 37 35 35 33
23 24 24 25 25 26 26 26 26 26 26 26 26 27 28 28 32 32 32 35 39 42 45 47 48 51 54 54 54 54 53 49 46 44 42 43 47 41 35 34 32 32 30
23 23 24 24 23 24 25 26 26 26 26 27 27 27 28 29 34 36 36 36 39 44 48 51 54 56 56 56 56 55 53 49 48 45 45 46 44 51 42 40 35 30 27
24 24 24 23 23 24 24 25 25 25 26 27 28 29 30 31 34 38 38 40 44 48 52 55 55 55 53 51 49 49 48 47 44 46 44 47 46 39 42 36 34 30 28
26 24 24 24 24 24 24 24 25 25 27 29 29 30 32 34 37 39 42 45 50 54 57 56 54 49 46 44 41 38 35 37 39 42 42 40 41 43 38 35 32 34 35
27 25 25 25 25 24 23 25 27 27 28 30 31 33 34 36 39 42 47 50 54 57 57 54 50 47 44 42 39 36 28 25 30 33 47 36 42 40 37 38 30 27 28
28 27 25 25 25 24 26 26 27 29 30 30 32 34 36 39 43 46 49 52 54 53 50 48 45 44 42 40 38 36 31 27 25 29 30 33 26 31 34 38 32 28 32
29 26 26 24 24 25 26 28 32 29 29 31 33 36 37 42 45 47 50 51 51 48 45 44 43 43 42 40 37 35 30 24 22 25 23 23 33 26 34 35 29 29 26
26 25 23 23 24 26 27 28 29 31 34 37 39 38 40 42 45 47 49 49 46 43 41 42 42 41 38 37 36 33 28 24 26 19 19 25 25 25 27 25 26 24 23
21 20 22 24 26 27 28 29 31 32 34 36 38 40 43 44 46 48 48 47 44 41 40 39 38 36 34 33 34 32 27 23 25 28 21 23 23 21 25 25 22 21 21
20 21 22 25 27 29 30 31 33 34 36 38 39 42 43 45 45 46 46 45 42 40 39 37 33 31 31 33 33 29 25 23 21 24 30 25 26 25 23 24 23 22 21
17 20 24 27 30 31 32 33 35 36 38 40 42 44 44 45 45 44 43 41 39 39 38 35 31 29 30 32 33 26 22 21 19 15 14 13 19 16 16 19 23 20 21
21 25 28 30 32 33 34 35 36 38 40 42 43 44 44 44 43 42 40 38 37 37 36 35 31 29 29 31 32 24 20 19 19 19 15 16 15 16 17 19 21 23 22
27 29 31 32 34 35 36 37 39 40 42 43 44 44 44 43 42 40 38 37 36 36 35 34 32 29 28 29 29 24 21 18 18 20 20 17 14 16 16 18 18 18 20
31 32 33 35 36 37 38 39 41 42 42 43 43 43 42 42 40 38 37 36 35 34 33 33 32 30 28 27 26 23 21 19 16 17 19 17 16 15 18 19 22 21 22
35 36 37 38 40 40 41 42 42 43 43 43 42 41 41 40 38 37 36 35 34 33 32 31 30 28 26 25 24 22 20 19 17 16 20 21 19 18 18 20 20 22 23
39 40 42 42 43 42 43 43 44 44 43 42 41 40 39 38 37 35 34 33 32 31 29 29 28 27 25 23 22 21 20 18 16 16 18 22 23 21 20 20 20 20 23

GFSGL_700_spd_036.txt.gz
Wind_Speed
37 38 37 34 34 33 23 22 23 26 28 29 31 32 34 34 34 35 33 36 35 35 44 36 37 35 36 33 32 32 34 34 37 36 38 37 36 38 40 41 44 41 35
32 35 33 33 32 28 22 22 23 27 28 30 34 35 35 36 36 37 34 35 45 40 38 40 39 34 32 36 36 36 34 35 38 40 38 35 34 33 39 42 41 42 38
26 30 29 32 28 25 23 23 25 27 29 33 36 37 37 39 39 36 39 35 36 36 36 41 36 35 36 36 36 35 36 38 38 38 39 37 37 38 41 45 45 43 41
23 27 26 24 22 24 24 26 29 31 33 35 36 38 37 34 31 35 33 34 32 33 36 37 40 38 37 36 36 36 36 38 38 38 40 41 42 42 44 47 47 48 45
20 23 23 20 23 26 29 31 33 33 35 37 35 33 35 30 32 32 36 38 37 39 39 39 38 36 36 35 35 35 35 36 38 40 43 46 47 47 48 48 50 52 48
24 23 24 26 30 31 34 33 35 36 34 32 33 33 34 32 32 36 35 37 36 37 38 36 34 33 33 35 35 35 36 38 41 43 46 48 48 50 51 53 52 53 49
27 28 30 33 32 30 32 35 36 35 34 33 33 33 34 33 32 32 33 33 34 35 33 33 33 33 33 35 37 39 41 42 44 47 50 51 49 45 47 54 54 52 48
32 27 25 26 29 31 32 31 31 32 33 33 32 32 32 31 31 30 31 33 33 33 33 33 35 37 37 39 42 45 46 47 49 50 52 52 51 47 45 48 51 49 46
25 25 26 28 30 30 28 29 29 29 30 30 30 30 30 31 30 30 30 31 32 32 32 34 36 37 40 43 47 51 54 55 54 54 53 52 50 50 44 42 42 42 42
25 26 29 29 28 26 27 28 28 28 29 29 28 28 28 31 31 29 30 32 31 32 34 36 37 41 45 49 53 56 60 59 59 58 57 50 47 49 45 41 37 37 35
27 27 27 27 25 26 27 28 28 29 28 28 28 28 29 31 31 29 29 31 33 36 38 40 43 46 50 53 54 55 56 56 56 54 51 48 42 45 43 43 36 39 38
26 26 26 26 26 27 28 29 30 28 29 28 27 27 30 31 32 31 30 32 35 38 41 43 47 50 53 54 53 51 49 48 48 48 46 42 41 42 42 45 41 34 31
27 27 26 27 29 29 29 29 29 28 28 27 27 27 29 31 33 32 33 35 37 40 44 47 49 52 52 50 47 45 43 42 42 40 37 37 32 34 37 40 38 39 35
29 29 29 29 29 30 29 30 28 28 27 27 26 27 29 31 31 33 35 36 39 43 45 47 50 51 50 47 44 41 40 40 39 37 34 30 27 31 29 33 38 40 32
32 32 31 30 29 30 29 29 27 26 27 27 27 29 29 31 34 36 37 38 42 45 46 49 50 50 49 45 43 42 40 39 38 36 32 31 30 26 31 26 31 32 34
35 34 32 31 31 31 29 29 26 25 25 27 28 30 32 32 36 38 39 41 44 46 47 49 50 49 47 44 43 42 40 38 36 33 29 30 28 27 23 22 36 29 31
36 36 35 33 30 29 28 26 25 24 25 27 28 30 33 34 38 40 41 43 45 46 47 48 48 46 43 42 41 38 37 35 34 29 25 20 17 16 18 25 17 16 21
40 42 39 32 28 24 21 22 25 27 28 30 31 33 35 35 38 40 42 43 44 45 46 46 45 43 40 39 37 34 34 34 32 26 23 24 13 11 17 18 19 19 21
43 38 32 25 20 22 22 22 24 27 30 32 36 39 40 38 41 43 44 45 46 47 47 45 42 39 38 36 33 32 32 34 31 24 20 23 18 10 13 18 19 20 18
42 29 26 24 21 21 22 25 27 30 32 35 37 38 39 39 41 43 44 45 46 45 45 43 39 37 35 33 31 31 31 33 28 22 19 20 27 21 17 16 19 21 18
23 23 21 21 22 23 27 30 31 33 34 37 38 40 40 41 42 43 44 45 45 44 43 41 38 36 34 32 30 29 29 32 25 21 18 16 17 19 15 17 22 23 20
20 19 21 24 26 28 32 33 34 35 38 39 40 41 42 43 43 44 44 45 44 42 40 38 37 35 33 31 30 29 27 29 22 19 18 15 15 19 15 11 17 17 18
22 24 26 28 31 33 35 37 38 40 41 41 41 42 43 44 45 45 44 43 42 40 38 36 35 33 32 30 28 28 26 26 21 19 17 18 14 14 15 13 13 15 16
27 29 31 33 34 36 38 40 41 42 42 42 42 43 44 44 44 44 43 42 39 38 36 34 33 32 29 27 25 25 24 24 21 19 17 16 18 18 18 16 15 15 13
30 32 34 36 38 40 41 42 42 43 43 43 44 44 44 44 43 42 41 39 38 35 33 32 31 30 29 27 26 24 23 22 20 18 17 14 18 19 16 13 13 16 15
35 37 38 39 41 42 43 43 44 44 44 44 43 43 42 41 40 39 38 37 35 32 31 30 30 29 29 27 25 23 21 20 18 17 17 15 17 21 21 18 16 17 16

GFSGL_700_spd_039.txt.gz
Wind_Speed
37 31 33 33 36 38 38 37 34 28 18 18 22 25 25 28 31 32 34 35 36 36 32 35 35 40 37 32 40 37 33 34 38 37 35 34 37 34 34 37 40 41 42
27 22 28 34 33 36 28 30 27 11 16 19 22 25 27 31 33 36 38 37 31 34 40 37 31 32 34 39 36 35 33 33 36 40 38 36 35 34 35 39 42 45 45
30 25 21 23 25 20 17 22 20 16 17 23 25 28 30 33 35 37 34 33 30 35 33 30 31 30 37 37 36 35 34 34 36 40 40 38 38 38 40 43 45 45 47
22 23 23 26 23 20 17 20 20 21 24 28 30 31 34 34 32 31 32 28 33 27 34 34 37 38 38 36 34 33 33 35 36 38 39 40 40 41 45 45 48 50 49
29 26 20 19 18 18 19 20 22 26 30 31 33 36 33 30 30 31 27 30 31 34 32 33 32 34 34 33 35 34 34 35 36 39 42 42 44 45 46 47 49 50 49
23 22 23 21 20 22 23 26 30 31 30 33 34 31 30 30 30 30 31 29 31 30 32 31 30 30 30 33 32 34 35 38 40 42 45 48 49 50 51 51 49 48 50
29 30 26 24 25 27 30 30 27 30 33 32 30 29 29 30 30 30 30 29 30 29 29 29 29 30 32 34 33 34 36 38 40 45 50 52 54 54 55 56 54 53 49
30 30 28 29 30 30 27 29 32 32 29 28 29 30 31 30 30 29 29 28 28 27 28 29 31 32 33 36 37 39 42 44 47 50 53 57 59 59 59 57 55 52 49
28 29 30 29 26 28 30 31 31 29 28 29 30 31 31 30 28 27 27 28 28 29 30 31 32 33 35 37 42 46 50 50 53 56 56 56 56 56 55 52 53 50 46
26 26 25 26 26 28 30 29 28 28 29 30 31 32 31 30 29 27 28 29 30 30 30 30 31 34 36 40 45 49 52 54 56 54 52 51 51 51 47 45 44 46 44
26 26 25 26 28 29 28 28 28 29 30 30 31 32 31 31 30 29 29 29 30 30 30 31 33 37 40 45 48 50 53 55 53 52 50 48 47 47 44 40 37 37 37
25 25 27 28 29 29 29 30 30 31 31 31 33 33 33 32 29 29 29 30 30 31 33 35 38 40 44 47 48 50 52 52 51 49 48 47 47 42 40 37 32 37 36
27 27 29 30 30 30 31 32 32 31 31 32 34 34 34 31 30 29 29 29 31 33 36 38 41 44 46 47 48 49 50 49 49 48 47 46 45 39 35 31 30 29 27
30 31 32 32 33 32 32 31 31 33 34 33 33 34 33 30 29 29 30 31 33 35 38 40 43 45 46 47 47 48 47 47 48 47 46 45 43 37 34 27 27 28 23
34 34 34 35 36 35 34 33 34 35 34 33 31 30 29 28 29 30 31 33 35 38 40 42 44 45 46 46 47 47 47 46 45 44 42 41 38 33 30 25 26 23 26
37 37 38 39 39 37 36 37 37 35 32 30 28 25 26 27 30 33 33 35 38 40 42 43 45 46 47 47 47 47 46 45 43 41 39 38 35 28 23 20 22 17 19
41 41 42 41 39 38 38 34 31 29 27 25 26 27 28 29 31 35 37 39 40 41 43 44 45 46 47 46 46 45 44 42 40 38 36 35 30 22 12 16 14 17 16
45 43 40 39 41 43 41 34 29 27 32 35 31 30 29 30 33 38 40 41 41 42 43 43 45 45 45 45 44 43 41 39 36 34 34 31 25 22 15 10 12 12 16
42 40 41 44 45 38 31 31 31 30 30 30 31 32 33 35 36 39 41 42 43 44 44 44 45 44 44 44 42 40 39 36 34 33 32 29 22 19 17 10 12 12 14
41 45 41 31 26 25 26 26 26 28 29 31 33 36 37 38 40 42 44 44 44 44 44 45 44 44 43 42 40 38 36 33 31 30 30 26 20 18 24 15 11 14 11
27 24 26 26 23 21 22 25 27 30 32 35 37 38 40 41 43 43 43 44 44 44 44 44 44 42 41 40 38 36 34 32 30 28 27 24 19 17 17 24 17 15 15
23 22 20 20 22 25 27 29 31 34 36 37 39 40 42 43 43 43 43 44 44 44 43 43 41 40 39 37 36 34 32 29 26 25 25 21 19 17 14 19 19 15 10
17 19 22 25 28 30 32 34 36 38 39 40 41 42 43 43 43 44 44 44 44 42 41 39 38 37 36 34 33 32 30 27 25 24 22 19 17 16 14 16 16 18 18
22 25 28 31 33 35 37 38 40 41 42 43 43 43 43 43 44 44 43 42 41 39 37 37 36 35 33 32 30 29 28 27 25 22 21 18 16 15 15 15 15 18 19
29 31 34 37 38 40 40 41 42 43 43 44 44 44 44 43 42 41 40 39 38 35 35 34 33 32 31 30 29 28 27 26 23 21 19 17 16 15 18 17 15 17 19
35 37 38 39 40 42 43 44 45 45 44 43 43 42 41 40 39 39 38 36 34 34 33 32 30 29 28 27 26 25 23 21 20 19 17 17 15 14 17 18 16 16 17

GFSGL_700_spd_042.txt.gz
Wind_Speed
32 27 24 30 29 32 36 36 38 39 42 14 19 21 20 25 24 28 32 34 37 35 37 35 39 40 36 33 32 35 39 40 48 41 40 37 38 39 39 39 38 41 44
33 34 31 25 30 36 38 42 21 46 40 6 12 15 17 22 25 29 33 37 35 37 44 40 40 35 42 31 37 38 40 42 43 46 43 40 38 38 39 39 40 43 46
32 35 40 27 28 31 19 17 25 19 39 12 14 15 18 23 29 33 35 36 37 38 35 34 35 36 37 33 38 42 40 40 41 43 43 41 40 37 39 40 42 44 48
28 28 28 28 18 16 17 19 23 17 17 20 21 21 24 29 31 33 33 32 33 33 31 34 36 37 40 36 36 37 40 41 39 41 42 41 41 40 42 43 46 46 48
24 24 23 23 21 17 16 19 18 18 19 22 25 27 29 31 32 31 31 31 32 34 31 34 31 39 32 37 38 38 37 35 35 37 40 42 44 45 48 49 53 52 54
23 23 26 25 23 20 21 20 20 22 24 26 27 28 30 32 32 31 31 32 30 29 30 29 34 32 38 35 33 34 35 35 37 39 42 46 49 51 53 56 58 59 61
25 24 25 27 27 25 23 24 25 25 28 27 30 32 33 31 30 29 28 27 28 28 28 33 32 33 33 32 31 32 33 35 38 42 47 50 52 54 57 58 58 60 61
26 28 27 27 28 28 29 28 28 25 27 29 30 30 29 29 27 27 28 28 29 29 30 32 32 33 33 34 33 34 34 35 40 44 47 49 52 54 55 56 57 57 56
28 29 30 30 30 31 28 24 25 27 28 30 29 28 28 28 27 27 29 29 29 30 32 32 33 33 34 35 36 38 39 41 45 47 49 50 52 53 53 56 55 54 53
28 29 28 27 28 27 25 26 28 30 30 30 29 29 29 28 28 28 29 30 30 31 32 32 33 34 35 36 38 41 43 47 50 50 50 51 52 52 53 52 53 51 50
31 30 28 27 26 26 28 29 31 32 31 31 31 30 30 30 30 29 30 30 31 31 31 31 33 34 35 38 40 43 47 50 51 52 53 53 52 52 51 50 49 49 47
29 29 28 27 28 29 30 31 32 31 32 32 33 33 33 33 32 32 32 32 32 31 30 32 34 36 38 40 43 46 48 50 52 53 53 53 52 51 50 48 47 45 42
28 29 29 30 30 31 32 32 31 32 33 34 34 35 36 35 36 35 35 33 32 31 32 34 36 38 40 42 45 47 49 50 52 53 53 52 52 51 49 47 45 41 38
30 32 33 33 33 33 33 33 34 35 36 35 36 37 37 37 36 34 33 33 30 32 35 38 39 40 42 45 47 48 49 50 51 51 52 51 50 49 47 44 42 35 30
34 35 35 36 36 37 37 37 37 37 37 37 38 38 37 35 32 33 30 33 35 35 37 39 41 43 45 46 47 48 48 48 49 50 50 50 48 46 43 40 34 29 23
37 39 40 41 40 40 40 40 40 39 39 38 35 32 31 30 30 33 38 36 37 37 39 42 43 46 47 48 48 48 47 48 49 49 48 47 45 42 39 34 25 20 17
40 42 44 44 44 44 42 40 40 39 38 35 29 28 31 38 39 41 39 38 39 41 43 44 45 47 49 48 48 48 48 48 49 48 46 43 41 39 36 30 18 17 17
43 44 44 44 44 44 43 42 43 45 41 38 40 38 38 39 42 41 41 41 42 43 42 45 48 48 47 47 47 48 48 47 46 44 42 39 37 36 33 25 18 15 18
43 43 44 43 42 43 44 42 35 33 32 31 32 34 35 36 37 39 41 44 46 46 46 47 46 46 46 47 47 48 47 45 43 41 39 36 34 33 30 24 19 16 13
39 39 39 39 38 33 30 31 30 28 28 30 32 34 36 38 41 43 44 44 44 45 45 45 45 46 46 47 47 46 45 42 40 37 35 34 31 29 28 21 20 20 16
32 31 29 27 25 26 26 25 26 27 31 33 36 38 41 43 44 45 45 45 45 45 44 45 46 46 47 47 45 43 41 39 37 35 32 30 27 25 24 21 18 23 17
23 21 20 21 21 22 24 26 29 32 35 38 40 42 44 44 45 46 46 47 47 46 46 47 47 47 46 43 41 40 38 35 33 32 29 27 25 23 22 19 19 22 21
15 16 18 20 24 27 30 33 36 38 40 42 44 44 45 46 46 47 47 47 47 47 47 46 45 43 41 40 38 37 35 33 31 30 28 25 22 21 20 18 17 19 23
17 21 24 27 31 34 37 39 41 42 44 45 45 46 46 47 47 48 48 48 48 47 45 43 42 40 38 36 35 33 31 30 30 28 27 24 20 19 18 18 15 17 20
26 29 32 35 37 39 41 42 43 44 45 46 47 48 48 48 48 48 47 46 45 43 41 40 38 37 35 33 31 29 29 28 27 26 23 21 19 17 17 17 16 16 16
33 35 37 39 40 42 44 45 46 47 48 48 48 47 47 46 45 45 44 43 41 40 38 36 35 33 31 28 27 26 26 25 24 22 21 19 17 16 16 16 18 17 16

GFSGL_700_spd_045.txt.gz
Wind_Speed
26 27 28 22 26 31 29 38 37 37 35 35 42 40 38 25 19 27 31 32 34 36 37 37 36 42 39 43 45 48 45 43 43 48 46 45 42 40 41 43 45 46 46
27 28 30 30 32 21 31 31 35 36 35 23 29 36 12 17 26 25 29 32 35 38 36 37 42 42 48 48 47 47 45 43 44 46 48 49 44 42 42 42 42 44 46
28 28 31 30 30 29 28 19 24 16 21 19 16 12 17 24 26 27 30 33 37 37 38 40 41 47 49 46 43 46 47 46 45 47 48 44 44 41 41 41 42 43 46
24 27 28 28 26 26 26 20 24 22 22 19 21 19 19 24 27 29 32 34 37 37 38 42 42 46 48 41 45 44 44 44 40 42 44 45 44 41 43 44 47 46 49
23 25 22 23 24 23 22 23 20 20 20 22 22 23 24 27 30 33 35 35 36 38 39 40 41 45 39 44 38 43 42 39 45 44 43 44 42 41 43 46 52 54 53
22 26 25 22 23 22 22 22 22 22 23 24 25 26 28 31 33 33 35 36 36 35 35 39 39 36 42 40 39 39 39 43 42 43 42 41 42 43 47 51 53 55 59
28 25 24 25 25 27 26 27 26 25 27 28 29 31 30 29 32 33 34 33 33 35 35 35 36 39 38 37 41 38 40 41 41 41 41 41 45 47 50 53 54 56 58
31 26 24 24 26 26 28 30 29 30 31 32 33 29 29 31 32 33 32 32 33 33 33 35 37 38 37 38 39 39 38 38 40 40 42 44 47 50 52 54 56 57 58
31 26 26 25 26 29 30 31 33 34 34 32 28 29 31 32 31 31 31 32 33 34 35 36 37 38 38 37 38 37 37 38 38 40 41 44 47 48 50 53 54 58 58
26 25 25 26 26 28 29 32 34 34 30 28 28 30 30 30 30 31 32 33 34 34 35 37 38 38 38 38 37 37 38 39 40 41 43 44 46 48 50 52 55 57 57
27 27 28 30 31 28 27 28 27 27 28 28 28 29 30 30 31 32 32 33 33 35 36 37 37 37 37 36 36 38 41 42 43 45 46 47 49 50 51 51 53 55 56
29 31 31 31 29 27 26 26 27 29 29 29 29 30 31 31 32 33 33 34 35 36 37 37 37 35 35 35 38 41 43 45 46 47 48 50 51 51 51 51 53 53 54
31 32 31 29 28 28 29 31 32 32 32 32 33 33 34 34 34 34 35 35 35 35 36 36 34 34 38 42 43 43 44 46 47 48 49 51 51 51 51 53 53 52 52
31 31 30 29 30 32 33 34 35 35 35 36 36 36 36 37 37 37 36 36 35 35 33 35 42 44 40 41 42 45 46 48 49 51 52 52 50 50 52 53 52 50 49
31 31 31 32 34 35 37 37 38 39 38 39 38 38 38 38 38 37 36 34 34 41 44 42 43 42 42 43 47 49 49 49 51 51 49 49 50 51 51 51 49 46 43
30 30 32 35 37 38 39 40 41 41 42 41 40 41 41 42 39 34 34 41 46 44 43 44 45 46 47 49 50 51 50 50 49 48 48 49 50 50 50 47 44 40 38
30 32 35 37 39 40 41 42 43 43 44 44 46 46 42 41 43 43 42 44 43 43 46 48 47 48 50 51 50 50 50 48 46 47 48 49 49 49 46 43 40 35 31
31 32 35 37 40 42 44 45 44 43 43 43 41 37 37 38 38 38 40 42 46 47 47 48 48 48 49 49 50 49 48 46 47 48 48 48 46 44 42 39 36 31 29
32 34 35 36 36 36 36 36 37 37 36 36 36 36 34 34 35 37 40 42 44 45 46 47 49 50 50 50 49 48 47 48 48 48 46 44 42 41 38 36 32 28 25
30 31 29 28 30 32 33 33 33 32 31 31 31 32 32 34 37 40 42 44 46 48 50 50 50 50 50 49 49 48 48 47 46 44 42 40 39 36 33 31 28 27 21
24 26 28 30 31 30 29 28 27 27 27 28 31 34 37 40 42 44 47 48 50 50 50 50 49 49 50 49 49 47 46 44 42 41 40 38 36 32 30 28 26 24 21
27 27 27 25 24 22 22 23 25 28 31 34 37 40 42 44 47 48 50 51 51 51 51 51 51 51 50 48 46 44 42 40 39 39 37 35 32 29 28 26 23 22 20
21 20 19 19 20 22 25 28 31 34 37 40 42 45 47 48 50 51 52 53 54 54 53 52 50 48 47 45 43 41 40 38 37 36 34 31 28 27 26 23 21 20 19
16 18 21 24 27 30 32 35 38 40 43 45 46 48 50 51 52 52 52 52 52 51 50 48 47 45 43 40 38 38 37 35 34 32 30 28 25 24 22 20 20 18 17
24 26 29 31 34 37 39 41 42 44 46 47 47 48 48 48 48 48 48 48 47 46 45 43 42 40 38 36 35 34 32 31 29 28 27 25 22 20 19 18 18 17 16
31 33 35 37 38 40 41 41 41 41 41 41 42 42 42 42 42 41 41 40 39 38 38 36 35 34 33 32 30 29 27 26 25 25 23 21 19 17 17 16 16 16 16

GFSGL_700_spd_048.txt.gz
Wind_Speed
18 20 22 23 25 29 31 29 34 34 37 37 37 40 47 46 48 43 43 32 19 27 34 36 37 39 41 37 39 40 50 40 51 55 54 50 48 39 37 40 43 45 44
22 23 23 23 30 31 30 34 18 27 26 41 40 49 50 41 36 46 20 24 27 33 35 37 38 40 43 36 41 40 46 47 56 56 51 50 45 42 41 41 42 43 45
25 28 27 27 27 27 26 33 22 25 17 12 22 17 22 27 22 23 29 32 32 32 35 40 42 40 36 41 44 49 52 54 56 49 50 46 45 42 43 44 44 43 43
19 21 24 26 25 25 24 26 33 27 24 25 23 25 25 21 22 26 29 33 33 36 37 38 39 41 41 45 47 52 51 51 45 49 43 50 46 44 46 46 46 45 46
12 11 11 18 22 23 26 28 26 29 25 25 23 25 25 28 28 29 31 33 34 36 39 40 41 43 44 46 48 47 49 43 49 41 48 46 45 46 46 47 49 50 51
18 20 19 22 22 25 24 26 26 25 25 24 23 24 26 27 29 32 35 36 37 39 41 42 43 43 44 41 44 44 40 49 47 43 46 45 44 45 46 47 49 52 54
21 23 26 28 27 25 26 26 27 27 26 25 27 28 29 29 32 35 37 38 40 41 40 42 42 41 42 42 42 42 47 46 41 48 46 45 45 45 46 47 48 51 51
25 27 28 31 30 25 25 27 27 28 29 31 31 32 31 33 35 36 37 37 38 39 40 40 40 42 40 43 46 45 44 45 47 45 44 44 44 45 46 48 51 51 52
29 28 26 30 29 27 26 27 30 31 34 35 35 35 35 36 35 35 36 36 38 38 39 40 41 42 43 46 45 41 46 46 45 44 43 43 46 47 48 49 49 52 55
30 29 29 32 29 28 28 29 31 33 35 36 37 38 37 35 36 37 36 36 38 38 39 40 42 45 47 45 45 47 46 43 42 43 43 45 45 45 46 47 50 52 53
28 31 32 32 30 29 31 33 33 33 34 35 36 36 34 36 36 36 36 37 38 40 41 43 45 45 46 47 46 45 42 42 44 44 44 43 44 44 44 46 48 50 50
30 32 34 33 32 32 32 31 29 30 32 34 34 35 36 36 37 37 37 38 39 41 42 44 45 46 46 46 44 44 47 47 46 47 45 46 48 48 47 48 48 48 49
33 34 34 32 31 30 29 27 30 32 32 34 36 37 37 37 38 39 40 41 42 42 43 44 45 45 44 44 48 49 50 52 52 46 48 51 51 50 49 48 47 48 48
32 33 33 31 31 30 29 31 32 33 34 36 36 37 38 39 40 41 41 41 42 43 43 43 43 46 51 53 53 53 52 51 49 50 50 51 50 49 47 46 46 47 49
29 31 31 31 30 28 28 29 31 33 34 36 37 38 39 39 40 40 41 42 42 42 44 47 49 49 48 50 49 49 51 50 50 50 50 49 48 46 44 45 46 47 50
28 29 29 28 27 27 28 30 31 33 34 36 38 40 41 41 40 42 44 44 43 43 44 44 43 45 47 47 49 50 48 48 48 48 47 46 45 44 44 44 45 47 44
27 27 27 26 25 27 28 30 33 35 35 36 37 38 38 39 41 39 36 36 37 38 39 41 43 45 47 47 47 47 48 47 47 46 46 45 43 44 44 44 44 42 39
28 26 25 25 26 26 27 28 28 28 28 30 32 34 35 37 38 38 37 37 37 39 41 43 44 45 46 47 48 48 48 46 46 45 43 43 44 45 43 42 40 38 37
27 26 25 24 23 23 23 24 25 28 30 33 35 36 35 35 34 34 34 36 38 40 42 44 45 47 48 49 49 49 48 47 45 45 44 44 43 42 40 38 37 36 34
24 25 25 22 22 23 25 28 30 30 31 32 31 30 30 30 32 33 35 38 41 43 45 47 49 50 50 51 51 50 49 47 46 45 43 42 40 39 37 36 34 32 30
21 19 19 21 24 25 26 26 26 25 25 25 26 28 30 33 36 39 42 44 46 48 49 50 51 52 52 51 51 49 47 45 44 42 40 38 37 36 34 33 31 29 27
19 20 21 21 21 21 21 20 21 22 25 27 30 34 37 39 42 44 46 48 50 51 51 51 51 50 49 49 47 46 44 41 39 37 36 35 34 32 31 29 28 26 24
17 17 17 16 17 19 21 24 26 29 32 34 37 40 42 43 45 46 47 48 48 48 49 49 48 47 46 45 44 42 40 37 35 34 33 31 29 28 27 26 25 23 21
15 17 20 22 25 27 30 32 34 36 38 39 40 42 42 43 43 43 44 45 45 45 45 44 43 42 40 37 35 34 33 31 30 29 28 27 24 23 23 22 21 19 17
22 25 28 30 32 33 35 36 37 37 37 37 37 38 39 40 40 41 40 40 39 38 37 36 35 33 31 29 28 27 27 26 25 25 23 22 21 20 20 18 17 16 15
28 29 31 32 32 32 32 32 33 33 34 35 35 35 36 36 35 35 34 33 32 31 30 30 29 28 27 27 26 24 23 22 21 21 20 19 18 17 16 14 14 13 13

GFSGL_700_spd_051.txt.gz
Wind_Speed
16 18 20 20 21 21 20 20 20 24 26 31 34 35 37 39 41 43 45 47 52 58 57 52 36 22 30 34 40 40 42 40 40 43 40 45 43 47 47 45 45 41 40
18 19 18 19 22 24 23 25 29 29 38 36 31 43 47 45 43 45 48 51 53 55 23 25 28 24 30 38 42 40 44 40 42 41 46 48 51 54 49 49 43 41 41
25 25 26 26 23 22 23 23 24 28 35 34 32 34 32 45 39 53 55 45 45 40 27 30 33 36 36 39 41 42 46 41 44 41 50 51 54 50 49 45 47 43 43
27 25 26 26 24 23 23 25 26 27 30 34 33 31 23 20 28 28 30 35 32 27 31 36 38 39 39 40 39 40 42 44 47 50 51 53 53 47 49 47 45 45 44
23 23 20 15 14 15 22 25 28 31 32 31 37 37 31 32 28 30 31 30 32 32 34 37 37 40 41 40 38 42 43 47 50 54 49 50 46 52 50 49 49 48 45
19 22 19 21 19 16 18 22 30 31 29 31 32 36 33 32 34 34 31 35 39 40 39 43 39 41 42 42 45 49 48 52 48 47 42 45 51 51 49 51 49 49 50
24 21 21 23 23 24 22 22 27 31 29 29 29 32 32 32 30 32 33 38 41 40 43 39 44 43 45 49 47 50 46 46 44 45 47 51 50 50 51 49 48 50 52
25 27 25 24 26 27 29 27 25 30 32 31 32 34 34 34 35 35 37 38 41 42 42 43 42 45 48 48 46 44 46 45 47 49 52 52 51 50 47 50 54 55 56
28 28 28 28 29 31 35 31 28 29 33 34 35 35 37 38 38 38 39 40 42 42 41 42 44 46 46 46 46 48 48 48 50 51 52 51 50 47 52 54 54 57 54
31 32 32 33 32 35 34 33 32 32 33 34 37 38 38 40 41 41 41 41 39 40 43 42 44 44 45 46 47 49 50 50 52 51 52 50 47 53 56 54 55 54 53
36 32 33 36 36 34 33 34 33 33 34 35 36 37 39 40 41 40 40 41 38 40 41 42 44 45 46 47 49 50 50 51 52 51 49 50 59 60 55 54 53 52 53
37 36 35 36 36 34 34 35 34 35 36 38 35 33 32 35 37 38 37 37 39 40 43 44 45 46 47 47 49 51 51 50 47 50 58 60 57 55 55 52 50 51 50
36 35 32 31 31 34 34 34 35 34 30 26 32 33 35 35 35 37 38 40 40 42 44 45 47 47 48 49 50 49 48 54 58 55 54 54 53 52 49 47 48 47 46
26 28 29 31 33 34 36 34 32 29 27 33 36 33 37 37 38 38 39 40 41 43 45 46 48 50 52 53 54 54 52 49 47 49 48 49 48 47 47 47 46 45 45
25 27 29 31 30 33 33 31 28 28 33 35 34 35 36 36 36 37 39 42 44 46 48 50 50 50 49 47 44 44 45 46 47 47 48 48 47 47 47 46 45 45 44
26 28 29 31 32 30 28 26 26 27 29 30 33 34 35 36 37 38 40 41 43 43 42 42 42 41 41 43 44 45 45 46 46 47 47 47 47 47 46 45 44 43 43
30 30 30 30 27 24 22 20 20 22 24 26 28 29 31 32 32 34 35 35 36 38 39 41 40 40 40 42 43 44 45 45 46 47 47 48 47 47 46 43 42 43 42
28 26 22 18 18 17 19 19 21 21 22 23 23 25 27 30 31 34 36 37 39 38 36 36 37 38 40 42 44 45 47 48 48 48 48 48 47 46 43 42 41 39 38
20 20 19 18 18 19 20 19 18 18 21 23 25 28 30 31 33 34 34 33 33 33 35 37 39 41 43 45 47 49 50 50 51 50 49 47 45 43 41 40 38 36 35
17 18 17 18 18 17 18 19 22 24 25 26 26 27 27 27 27 28 30 32 35 38 41 43 45 46 48 49 50 51 51 50 49 47 46 43 41 40 38 37 35 34 33
13 13 13 15 17 19 21 21 22 23 22 22 22 23 24 27 30 33 36 39 41 44 45 46 47 48 49 49 49 49 48 47 45 44 41 39 38 36 35 34 33 32 30
13 14 15 16 17 17 17 17 17 19 21 24 26 29 32 35 37 39 41 42 43 43 44 44 45 45 45 45 45 44 43 41 39 37 35 34 32 32 31 30 29 28 27
11 11 11 12 13 15 18 20 23 25 28 30 31 33 34 35 36 37 38 39 40 41 41 41 41 40 40 39 38 37 35 33 31 30 29 28 27 27 27 26 25 24 23
14 15 17 19 20 22 23 25 26 27 28 28 29 30 32 33 35 36 36 37 37 37 36 36 35 34 32 31 30 29 28 27 26 25 24 23 22 22 22 22 21 20 19
19 20 21 22 23 24 24 24 25 26 27 28 29 30 31 32 32 33 33 33 33 32 31 30 29 28 27 26 26 25 24 24 23 22 20 19 18 18 18 17 16 15 15
21 22 22 22 21 22 23 23 23 24 25 26 26 27 28 29 30 30 30 29 28 27 27 26 26 26 25 24 24 23 22 21 19 18 17 16 15 15 14 13 12 12 11

GFSGL_700_spd_054.txt.gz
Wind_Speed
21 21 21 19 19 20 19 18 18 17 19 21 23 26 27 30 33 37 39 40 44 44 48 49 51 54 57 65 59 50 34 30 34 42 43 37 42 37 46 44 38 48 52
22 24 24 25 26 25 23 22 23 25 26 26 29 33 35 39 40 43 42 42 47 49 48 51 55 52 51 37 23 17 21 28 39 42 41 44 45 41 47 40 53 54 54
24 25 25 26 27 26 26 27 29 29 28 29 33 35 34 34 36 44 50 58 55 48 48 48 55 52 33 24 28 33 36 37 40 41 42 41 41 41 46 50 53 56 54
28 29 31 31 30 29 27 28 30 31 33 33 35 36 37 40 39 41 38 37 42 43 48 43 41 40 37 36 39 40 37 40 40 41 43 43 46 47 51 56 55 53 51
30 30 32 32 32 33 32 29 30 33 34 35 37 39 37 43 43 43 38 29 33 37 39 41 38 37 36 38 41 39 43 42 39 40 44 44 50 54 53 49 49 51 53
31 27 26 26 29 29 28 25 23 28 32 36 40 41 41 43 46 47 46 40 42 43 40 38 35 42 43 42 43 40 42 42 41 45 51 51 49 50 48 48 51 54 52
28 29 28 29 29 28 28 27 26 26 27 29 37 40 39 40 43 44 47 47 43 47 45 45 47 47 46 44 43 42 43 45 48 51 51 48 48 47 49 51 55 53 50
32 27 31 32 34 32 32 32 30 31 32 29 31 37 37 38 38 39 42 45 44 45 44 46 48 46 43 48 44 43 46 50 51 49 47 49 47 49 52 55 53 51 51
37 33 32 37 37 37 37 39 37 34 33 30 30 35 39 39 39 41 43 44 45 46 45 45 43 42 47 49 38 44 53 51 48 48 49 50 49 51 53 54 51 52 54
40 38 39 37 41 43 43 44 40 37 33 30 30 33 38 42 42 43 45 47 48 47 46 41 42 39 41 43 48 54 50 46 48 50 51 51 53 55 54 50 50 58 60
42 44 43 45 41 41 44 47 45 38 34 32 33 35 36 40 43 44 45 47 45 42 41 41 43 43 42 48 51 48 47 48 51 53 53 55 55 53 54 58 57 56 55
41 43 43 41 45 44 45 48 42 35 36 37 36 39 39 42 44 44 43 40 41 42 42 42 43 44 48 47 46 46 48 50 52 54 55 54 56 56 54 52 52 50 50
34 35 39 45 44 46 43 41 40 43 41 40 39 41 40 38 35 35 39 38 34 36 40 40 41 43 43 44 45 46 49 53 55 55 53 51 52 51 50 50 49 50 49
46 43 40 41 39 37 36 39 39 41 40 36 39 35 31 33 36 38 36 34 33 32 35 40 42 42 44 48 51 51 50 49 48 48 49 50 50 50 49 50 49 48 49
42 41 38 34 33 34 39 39 38 35 32 33 32 30 34 37 36 34 31 30 33 37 39 42 43 43 44 44 45 46 47 48 49 49 48 48 48 48 48 49 49 50 50
26 29 34 38 40 35 34 33 32 33 32 30 30 30 32 31 30 31 33 36 37 36 36 36 37 39 42 44 46 48 48 47 46 46 47 48 49 50 51 51 51 50 50
25 25 26 27 28 34 37 33 26 28 29 29 30 30 30 29 27 27 29 30 32 34 36 37 40 42 44 44 43 43 44 45 46 48 50 51 52 53 54 53 52 51 49
22 25 26 24 23 22 20 19 21 22 22 22 23 23 23 24 25 27 30 32 34 36 38 40 40 39 39 40 42 44 47 49 51 53 54 55 55 55 54 52 50 48 46
18 16 16 14 15 17 17 18 18 18 18 19 21 23 25 27 30 31 32 33 35 34 34 35 37 39 42 45 47 50 51 52 53 53 53 53 52 51 48 46 45 43 41
14 13 12 12 12 13 13 15 17 19 21 23 24 25 26 26 27 28 28 29 31 34 37 40 43 45 46 47 48 49 49 50 50 50 49 47 46 44 42 41 39 38 36
9 10 11 11 13 15 17 19 20 20 20 20 19 20 21 24 26 29 32 35 37 39 40 41 43 44 45 45 46 45 44 43 42 41 41 39 38 37 35 34 33 32 32
8 10 11 12 14 14 14 14 14 16 18 20 22 25 27 29 31 32 34 36 36 37 38 38 39 39 39 39 39 38 38 37 36 35 34 33 31 30 29 29 28 27 27
6 7 8 10 11 13 15 17 19 21 23 24 26 27 29 29 30 31 31 32 32 33 33 34 34 34 35 34 33 33 32 31 30 30 29 28 27 26 26 25 24 23 23
12 13 14 15 16 18 19 20 21 22 22 23 24 24 25 26 26 27 28 29 30 31 32 31 31 30 29 28 28 28 28 27 27 26 25 24 23 23 22 21 21 20 19
15 16 16 17 17 17 18 18 18 19 20 20 21 22 23 24 25 26 28 28 29 29 29 28 27 26 25 25 25 25 25 24 24 23 21 21 20 20 19 18 17 16 16
16 16 16 15 15 16 16 17 18 18 19 20 20 21 22 23 25 26 26 27 26 26 25 25 24 24 24 24 24 23 23 22 21 20 19 19 18 18 16 15 14 14 13

GFSGL_700_spd_057.txt.gz
Wind_Speed
20 19 17 16 17 18 18 18 17 18 19 22 22 25 27 28 31 36 35 35 37 39 40 41 43 43 46 45 45 48 52 58 62 40 27 21 22 32 35 35 34 40 45
23 23 22 22 22 21 19 18 19 20 22 23 25 27 28 29 31 34 35 34 35 39 39 40 44 43 44 44 47 50 55 39 32 28 29 32 34 37 34 38 40 40 42
26 26 26 26 27 26 24 24 25 25 26 28 30 30 30 32 35 37 39 38 36 37 41 43 51 53 46 47 48 51 47 39 33 41 39 37 36 40 40 40 42 46 45
28 29 28 27 25 24 26 29 31 32 33 34 33 33 34 35 37 38 37 40 40 39 38 40 49 54 55 45 47 45 45 44 43 41 39 38 42 41 40 45 47 44 48
30 31 28 29 31 33 33 33 34 32 33 35 36 36 37 39 40 41 40 42 46 46 43 41 37 35 36 39 43 43 39 40 45 46 43 44 43 47 39 46 46 54 53
35 34 32 34 32 34 37 39 40 40 36 37 37 37 39 41 43 44 43 44 46 47 49 47 44 41 42 41 42 39 45 49 50 50 44 53 45 40 50 52 52 48 48
32 38 40 39 34 33 32 36 37 37 35 32 33 34 35 37 39 42 45 47 49 50 53 55 54 47 45 50 51 53 53 53 50 53 52 46 42 47 51 50 48 50 49
32 33 38 39 35 35 35 36 34 35 34 34 35 35 35 34 35 37 39 41 44 47 48 49 50 51 54 55 55 53 48 55 55 50 44 37 46 52 50 48 49 50 51
37 34 36 39 39 41 40 39 39 40 41 41 41 41 40 35 32 34 38 42 43 44 45 47 46 48 49 50 53 50 54 50 50 46 45 46 51 51 49 50 51 53 54
35 38 39 42 44 42 40 43 45 48 50 49 46 44 43 38 34 34 36 41 44 45 46 47 48 50 50 51 55 48 53 56 47 46 49 51 51 51 51 52 53 54 53
37 34 43 45 45 47 47 45 46 50 53 52 51 50 46 39 36 38 40 42 46 48 49 48 50 51 50 50 49 51 47 41 43 48 50 51 50 52 53 52 51 53 56
44 40 39 44 50 52 53 52 50 46 48 54 54 48 39 38 38 40 41 41 48 45 47 48 48 48 49 46 37 37 40 47 51 48 48 49 49 50 52 56 56 54 53
53 51 46 42 43 46 47 52 53 50 55 56 48 43 51 48 49 57 45 43 42 40 45 48 47 38 34 36 41 41 41 43 44 44 45 48 52 54 53 52 53 52 51
57 55 54 48 43 39 43 47 48 49 47 43 47 49 52 53 51 45 44 44 43 38 35 35 35 35 36 35 37 39 41 42 44 48 49 50 50 51 50 50 49 48 49
45 46 54 46 43 36 37 35 36 40 42 46 46 45 51 41 38 37 39 36 36 32 33 32 32 33 33 35 39 42 43 44 46 47 48 48 48 47 47 49 51 52 53
32 34 35 47 38 34 39 39 41 41 42 40 39 36 35 35 33 28 27 24 25 26 27 29 30 32 34 36 39 42 45 46 45 45 45 46 47 49 51 53 54 55 56
23 28 30 40 42 39 37 42 38 40 40 35 35 35 30 24 20 20 21 22 24 26 27 29 31 33 36 39 41 41 42 42 43 45 47 50 52 53 54 54 54 54 53
17 22 24 28 26 29 14 20 21 17 17 16 17 17 18 18 19 20 22 25 26 28 31 32 34 35 36 37 38 40 43 45 48 50 51 51 52 52 52 51 50 50 49
7 5 5 8 12 14 18 14 14 15 16 15 15 17 18 20 22 24 25 27 29 30 31 31 32 34 36 39 42 44 46 47 47 48 48 48 48 48 48 47 47 46 45
11 12 11 8 8 9 10 10 12 13 15 17 19 21 22 23 24 26 26 27 28 30 33 36 38 39 40 42 43 43 43 44 45 45 45 45 45 44 43 42 41 39 37
4 5 7 7 8 10 13 14 14 16 17 18 19 20 22 23 24 26 28 30 33 34 35 36 38 38 38 38 39 40 41 41 41 40 39 38 37 36 35 34 33 31 30
7 8 8 9 10 11 11 13 14 15 16 18 20 22 25 27 28 29 30 31 31 32 33 33 34 35 36 37 37 37 36 35 34 33 33 32 31 31 30 29 28 26 26
8 9 11 12 13 14 15 16 17 18 20 21 23 24 25 26 28 29 28 29 29 29 29 31 32 33 33 33 33 32 31 30 29 28 28 27 27 27 26 25 24 24 23
12 13 14 14 15 16 17 18 19 19 20 21 22 23 23 24 24 24 25 26 27 27 28 29 29 29 29 29 28 27 26 25 25 25 25 25 24 24 23 23 22 21 21
15 15 15 16 16 16 16 17 17 17 18 18 19 20 21 22 22 23 23 24 25 26 27 27 27 26 26 25 25 24 24 23 23 23 23 22 22 22 22 21 20 18 17
16 16 16 16 16 16 16 16 16 17 17 19 20 20 21 22 22 23 24 24 25 26 26 25 24 24 23 23 23 23 22 22 21 21 21 21 21 21 20 18 17 17 16

GFSGL_700_spd_060.txt.gz
Wind_Speed
15 14 14 14 13 13 12 14 16 18 20 24 26 30 33 37 40 38 41 44 48 45 44 42 41 39 42 43 43 45 46 45 49 48 45 46 40 29 28 27 27 29 31
18 18 18 18 18 18 16 15 17 18 19 19 21 24 26 28 31 32 33 34 38 40 40 42 41 39 40 40 40 46 45 42 44 46 43 42 36 38 38 35 34 32 31
22 21 21 23 23 22 21 21 22 22 22 22 24 25 24 26 28 30 32 34 36 37 38 40 38 38 41 41 43 48 52 52 47 44 48 43 43 43 41 40 36 33 35
28 27 25 25 25 24 24 26 27 27 27 27 28 28 29 29 30 32 33 34 36 37 37 38 39 38 37 38 40 40 38 45 39 44 47 45 40 41 44 47 42 40 48
26 34 31 29 27 28 28 28 29 31 33 33 33 33 33 34 34 34 36 38 39 40 40 41 43 42 41 41 46 39 36 37 44 42 41 41 42 45 50 48 50 46 46
27 29 33 37 35 33 34 35 36 35 36 37 37 37 36 38 35 35 38 41 42 43 43 43 45 45 47 48 47 49 50 41 46 48 48 48 49 53 55 56 48 46 38
33 29 30 37 41 39 38 40 39 38 40 42 44 44 44 40 38 37 37 41 44 43 44 46 47 46 47 48 50 53 56 52 48 50 53 57 69 56 49 52 56 39 44
25 34 32 32 34 40 46 46 42 40 39 39 41 44 43 39 38 37 37 41 41 42 42 43 44 44 44 47 50 52 52 51 54 51 55 56 55 53 64 50 42 42 45
34 29 34 37 37 36 41 46 42 43 42 40 41 43 44 44 43 42 43 43 42 42 40 41 42 43 42 40 42 45 48 50 51 54 52 53 60 52 49 43 45 45 46
39 40 36 34 42 40 39 39 43 47 47 46 45 46 47 49 48 47 45 43 43 42 44 43 41 42 43 44 46 48 48 51 59 64 54 57 59 45 41 41 42 46 49
37 37 41 40 42 44 41 43 44 50 49 48 49 52 53 55 55 49 47 46 44 44 44 44 43 42 46 46 52 49 53 56 62 49 58 44 39 38 41 42 42 44 47
42 41 39 42 45 46 45 42 49 50 50 52 52 49 57 52 49 49 48 44 45 44 46 42 44 48 50 49 52 54 57 46 50 39 36 38 43 46 45 44 45 48 52
39 41 44 39 46 47 49 47 44 45 52 50 52 50 49 48 58 57 60 55 45 41 41 44 52 46 48 48 50 43 37 35 36 39 40 39 40 42 45 49 50 50 50
42 39 44 46 43 48 48 49 47 49 49 46 47 48 48 50 53 52 52 52 52 55 55 48 45 45 39 33 30 32 34 35 35 36 38 42 45 45 46 47 46 47 47
43 39 40 40 39 42 45 47 49 47 41 43 51 52 47 47 57 52 51 41 42 40 35 32 30 27 25 26 26 28 31 34 38 41 44 44 44 44 44 45 47 49 51
36 29 33 31 31 32 38 44 47 47 45 42 47 48 50 51 42 43 45 30 24 20 18 17 17 21 25 29 32 35 37 38 39 40 39 40 42 44 46 47 48 49 50
32 21 23 26 28 33 36 39 41 44 45 50 33 41 27 32 26 11 11 12 15 17 18 19 22 25 28 30 32 34 35 36 37 38 41 43 44 45 46 46 46 46 47
20 13 11 9 12 7 6 11 14 18 17 11 4 3 4 3 7 10 11 13 16 18 20 23 25 26 28 30 32 34 36 39 40 40 41 42 43 44 44 44 44 44 44
9 7 3 4 1 2 3 3 2 3 1 3 2 6 8 10 11 13 15 16 19 20 22 24 26 28 30 32 33 34 36 37 38 39 40 41 42 42 42 41 41 41 41
7 6 5 6 5 4 4 3 4 5 7 8 7 8 10 12 14 16 18 20 23 25 26 27 28 29 31 32 33 33 35 36 37 38 38 38 38 38 38 38 37 36 35
8 8 8 8 9 9 10 12 13 13 13 13 14 15 16 17 18 20 23 23 24 26 28 29 29 29 29 30 32 33 34 35 35 36 35 35 35 34 33 32 31 30 29
9 9 10 11 12 13 13 14 15 16 18 20 20 20 20 21 22 23 24 24 25 26 26 27 28 29 30 30 31 31 32 32 32 32 31 30 29 28 28 27 27 26 25
13 13 14 15 15 16 17 17 17 18 18 19 20 21 23 25 25 24 25 25 24 24 26 27 27 28 29 30 30 30 30 29 28 27 26 26 25 25 25 24 23 23 23
17 17 17 17 18 18 19 19 19 19 20 20 20 21 20 21 21 21 22 23 24 24 24 25 26 27 27 27 27 26 26 25 24 24 24 23 23 22 22 21 21 21 21
19 19 19 19 18 18 19 19 18 18 18 18 18 19 19 20 21 21 22 23 23 24 24 24 25 25 25 25 24 24 23 23 22 22 21 21 20 20 20 20 20 18 18
19 18 18 17 16 16 15 15 16 17 18 19 20 20 21 21 22 22 22 23 23 23 23 23 23 24 24 23 23 22 21 20 19 19 19 19 19 20 19 19 17 17 16

GFSGL_700_spd_063.txt.gz
Wind_Speed
14 10 10 9 8 8 8 10 12 16 16 16 22 27 30 32 33 36 37 41 46 43 44 45 44 44 46 44 42 43 44 44 48 47 46 45 45 42 37 36 36 40 36
16 17 14 13 13 13 12 12 14 15 16 16 18 22 25 28 28 31 31 36 40 41 43 46 43 44 45 43 41 41 43 42 46 51 49 52 51 47 38 38 38 41 41
16 18 20 19 18 16 16 17 18 19 20 21 22 21 23 25 28 29 31 33 35 36 37 38 36 39 40 39 39 38 37 41 44 47 45 49 45 46 49 42 40 46 41
11 18 21 23 23 23 22 23 24 24 25 26 25 25 27 27 29 30 31 32 33 32 34 36 36 38 36 36 39 42 42 42 42 44 47 44 41 41 41 40 40 43 43
19 17 20 24 27 28 29 28 29 30 30 31 31 32 33 33 32 32 33 33 35 36 36 37 37 38 38 38 41 41 43 44 45 48 47 49 49 45 41 44 42 44 47
28 25 23 21 26 29 32 35 35 35 35 37 36 36 38 38 38 37 37 37 38 39 39 40 41 41 41 41 43 43 46 48 51 52 54 54 52 50 49 48 48 52 54
24 31 31 26 28 28 32 36 37 39 42 43 43 43 43 43 41 41 41 43 42 42 42 43 43 42 42 44 45 46 47 49 50 51 53 55 59 55 51 53 59 58 56
26 25 30 37 33 30 34 35 37 42 45 46 46 46 47 48 48 47 46 47 47 46 47 48 48 46 45 45 47 48 50 51 53 53 49 57 59 58 60 66 65 57 56
28 33 34 37 39 39 41 41 37 38 42 45 47 48 49 47 47 47 48 50 51 54 53 53 53 50 48 46 48 46 46 46 50 48 48 56 61 63 65 60 61 54 49
24 28 31 35 39 42 45 47 47 41 41 42 45 47 49 50 48 47 48 51 53 56 56 57 53 53 48 47 43 46 44 49 55 54 57 66 65 62 58 55 54 41 35
28 28 30 34 38 41 42 44 46 47 46 47 47 46 48 49 53 52 51 49 52 54 55 55 54 51 51 49 50 46 51 56 65 68 55 55 56 50 51 40 39 36 40
37 36 35 33 37 42 43 42 48 50 50 48 46 44 43 48 51 49 48 50 49 51 54 55 53 55 56 56 53 55 62 66 50 57 59 55 38 34 33 33 36 39 42
36 37 39 42 39 39 43 43 42 52 51 52 51 48 48 44 44 48 54 49 56 56 54 59 58 58 63 61 65 62 52 55 48 40 35 32 32 32 34 36 39 44 47
38 40 40 42 42 44 41 42 46 47 51 49 52 53 49 48 49 48 52 53 60 57 65 66 66 71 70 50 39 40 44 38 28 25 26 28 32 36 40 43 44 45 45
35 37 37 36 40 36 34 38 42 47 49 49 47 52 54 61 42 56 64 65 57 49 59 58 52 22 30 25 20 16 16 19 22 28 33 35 36 38 40 42 44 44 46
31 32 26 27 28 30 30 31 31 33 39 42 46 53 50 47 51 50 41 38 33 23 17 17 16 14 15 14 17 22 25 27 28 31 34 36 38 39 39 40 41 42 43
23 24 24 22 19 20 15 16 21 26 34 42 45 39 30 15 11 11 8 5 4 6 11 10 14 14 18 21 22 24 26 28 31 32 34 35 35 36 36 38 38 39 39
17 17 16 14 14 13 12 11 8 6 6 5 4 5 4 5 4 3 3 5 6 10 14 14 18 17 19 21 24 25 27 27 28 29 31 31 33 34 34 35 36 36 36
12 11 11 11 10 9 8 8 7 7 6 4 2 0 4 4 8 7 9 8 10 13 16 16 19 20 21 22 23 24 26 27 27 28 29 31 32 32 32 33 33 34 35
12 11 11 11 11 11 10 9 9 9 9 8 7 6 6 7 8 10 12 14 17 20 20 19 19 20 22 23 24 25 25 25 27 28 28 30 31 31 31 32 32 32 31
9 9 9 9 10 11 12 12 12 12 12 13 12 13 14 15 15 15 15 15 16 16 16 16 17 18 19 20 21 23 24 25 26 28 29 29 29 29 29 29 29 28 28
11 13 14 14 15 15 15 15 16 16 16 15 14 13 13 14 14 14 15 16 16 16 16 17 18 20 21 22 23 24 25 27 27 27 27 27 27 27 26 25 25 25 24
15 15 16 17 17 18 18 19 18 18 18 18 18 16 15 15 15 15 15 16 17 18 19 20 22 23 24 24 25 26 26 26 26 25 25 25 24 23 22 22 21 21 21
18 17 17 18 19 19 18 18 18 18 18 18 17 16 16 17 18 19 19 19 20 21 21 22 22 23 23 24 25 24 24 24 24 23 22 21 21 20 19 19 19 20 19
18 18 17 16 16 16 17 17 16 15 16 17 17 18 19 18 18 20 21 21 21 22 22 23 23 23 23 24 24 23 23 22 21 20 20 19 18 18 17 18 18 17 16
18 17 16 14 13 13 14 15 16 17 18 19 19 19 21 21 20 21 22 23 23 23 23 23 23 23 22 22 22 21 21 19 19 18 18 17 16 17 17 16 16 15 14

GFSGL_700_spd_066.txt.gz
Wind_Speed
12 10 8 7 7 6 5 8 12 14 18 18 25 30 30 28 32 39 41 40 41 41 40 39 39 40 44 45 44 44 44 45 50 47 45 43 44 42 43 46 52 49 53
10 14 12 12 11 10 9 9 10 11 14 16 18 20 26 29 31 33 35 37 39 40 39 41 38 41 42 45 47 47 48 47 51 52 48 47 47 45 47 46 46 48 49
4 6 13 16 16 15 15 15 15 15 15 17 18 18 20 24 28 30 32 34 37 38 39 40 38 44 44 46 47 47 47 47 49 52 49 46 45 44 43 40 43 44 45
10 10 13 9 11 17 21 21 21 21 22 23 23 23 25 25 27 29 32 32 33 33 36 38 40 43 42 43 44 44 44 47 46 50 51 52 53 49 49 44 43 43 42
18 18 17 15 14 14 17 23 26 28 29 29 30 31 31 32 32 33 33 34 37 38 38 38 38 39 39 41 44 44 45 47 48 50 52 53 55 56 50 44 51 53 47
21 23 24 23 24 25 25 24 22 24 30 35 36 36 37 37 36 37 38 39 41 42 41 42 42 42 43 43 46 47 48 51 51 52 53 56 57 58 55 51 51 53 53
25 26 29 32 32 31 30 32 33 31 30 33 36 41 42 42 42 42 44 47 47 47 47 48 48 47 46 47 48 50 52 54 55 54 57 58 59 59 59 58 54 56 52
23 25 28 31 33 35 38 39 37 35 37 37 37 38 40 44 47 48 50 51 52 53 53 52 53 52 52 51 53 53 55 55 55 53 54 56 61 61 62 65 62 59 65
18 21 27 31 34 37 39 43 43 42 42 41 41 43 41 42 42 46 51 52 53 54 56 57 56 55 55 55 54 54 55 56 58 60 58 63 57 60 62 66 64 63 70
16 19 22 23 27 36 41 45 43 43 44 45 46 45 49 50 46 44 41 48 52 52 52 49 51 55 55 56 57 61 56 59 62 63 59 66 61 64 67 71 78 64 60
22 24 25 25 26 29 30 37 46 51 51 46 47 50 49 48 50 49 41 40 46 45 47 49 50 53 54 54 55 56 58 62 63 61 71 64 73 72 72 66 54 63 54
30 30 29 30 32 32 31 32 35 40 48 54 55 55 56 53 53 49 44 44 40 45 47 52 55 60 55 56 61 65 62 62 64 69 70 73 67 62 49 46 40 33 32
33 34 35 35 36 37 38 38 37 36 40 48 54 56 57 58 58 53 51 47 50 43 53 60 58 65 62 64 70 76 62 68 69 73 68 54 34 30 26 26 27 30 33
31 33 34 35 36 37 38 40 41 40 38 44 49 49 48 53 58 57 57 56 57 51 59 62 66 61 65 71 63 62 56 28 20 24 22 21 22 23 27 28 32 34 35
33 33 34 35 37 38 38 36 36 37 33 32 33 39 42 45 51 58 55 60 59 55 58 59 58 51 47 28 31 21 17 17 18 20 20 23 25 27 29 30 31 33 34
28 29 30 30 31 31 29 25 24 24 26 30 32 32 37 39 42 45 41 28 41 31 28 28 18 16 11 9 10 11 14 16 18 21 24 25 27 29 31 32 33 35 37
24 23 21 21 20 21 22 25 21 18 19 18 14 11 10 8 3 3 2 2 4 5 5 6 7 8 7 11 14 14 16 18 21 25 26 27 28 30 32 33 34 35 35
18 19 18 17 17 17 15 15 17 15 13 10 7 6 4 4 2 1 0 2 5 4 6 10 9 11 13 15 18 20 22 23 23 24 25 26 26 27 28 29 30 30 30
16 15 15 14 13 12 12 13 12 12 12 11 9 7 6 7 7 7 8 8 9 9 11 14 16 18 19 19 19 19 20 21 21 22 23 23 23 24 25 26 28 29 29
13 12 12 12 12 11 11 11 11 11 11 11 12 12 11 11 11 12 14 15 15 16 17 17 17 16 16 16 17 18 19 20 20 21 22 22 23 24 24 26 26 27 28
11 12 13 14 15 15 15 15 16 16 16 17 18 18 18 18 18 17 16 15 15 15 15 15 14 15 15 16 17 18 19 20 21 21 21 22 23 24 24 24 25 25 25
14 15 16 17 18 18 18 19 19 19 18 16 16 16 16 16 15 15 14 14 14 14 14 14 15 16 16 16 17 17 18 20 20 21 21 21 21 21 22 23 23 23 23
18 18 19 20 20 21 21 20 20 20 19 18 17 16 15 15 15 15 14 14 15 16 16 17 17 17 18 19 19 20 21 21 21 21 21 21 21 22 23 23 22 21 21
20 20 20 20 20 20 20 20 19 17 16 16 16 16 16 17 17 17 18 18 19 19 20 20 20 21 21 21 21 21 21 21 21 21 22 22 22 21 20 19 18 18 18
20 20 20 19 19 18 18 17 17 17 16 16 16 17 18 20 21 21 21 21 21 21 21 21 22 22 23 22 22 22 22 21 21 21 21 20 19 18 17 17 17 17 17
19 17 16 16 15 14 15 16 17 18 19 20 21 21 21 22 23 24 24 25 25 25 24 24 23 23 22 22 23 22 21 21 20 19 18 18 17 16 16 16 16 16 15

GFSGL_700_spd_069.txt.gz
Wind_Speed
7 7 6 4 3 3 4 5 7 12 18 19 22 21 23 22 26 30 33 34 36 35 36 38 43 45 46 44 40 44 45 46 49 44 42 39 41 41 41 42 44 45 46
8 8 9 9 7 5 5 7 8 10 13 17 22 25 26 29 31 29 32 35 38 41 42 42 46 48 51 48 47 45 45 48 52 53 48 48 48 45 46 46 45 46 47
12 12 12 11 11 10 9 9 10 13 15 18 20 22 23 26 32 35 38 37 37 40 42 44 45 47 46 48 48 47 48 50 53 55 55 53 52 48 47 48 48 48 47
9 10 12 11 14 15 15 15 15 15 17 19 21 22 25 27 27 28 31 34 36 37 40 41 43 46 45 46 47 46 45 49 52 57 56 53 52 51 50 51 50 47 48
18 17 16 16 17 16 18 19 21 21 22 24 25 25 27 28 30 32 33 33 33 36 38 38 39 42 41 41 45 44 47 50 52 53 55 54 54 56 55 52 56 53 55
18 21 21 22 22 22 23 25 24 24 26 28 30 31 32 33 33 35 37 39 40 41 42 41 42 43 43 43 46 48 49 53 54 55 57 59 59 59 59 57 57 58 59
25 26 28 28 28 28 28 29 29 29 32 33 34 36 39 38 37 39 40 43 46 47 47 47 48 48 48 49 50 51 53 55 58 58 62 62 62 62 61 63 60 60 61
21 23 25 28 29 29 31 33 34 34 34 34 35 39 42 41 40 41 42 44 45 48 51 51 52 53 54 55 56 58 59 61 62 62 64 66 66 65 62 61 61 60 63
16 19 21 22 24 28 32 34 35 36 37 39 39 39 41 41 40 43 44 44 45 47 48 50 53 57 58 60 63 63 63 64 64 65 65 66 65 63 63 59 60 67 65
16 18 20 21 23 24 27 29 31 36 40 43 45 46 46 46 44 45 45 49 51 49 53 57 53 56 59 60 56 57 60 58 60 62 65 64 63 66 69 69 66 69 66
19 20 21 22 24 26 28 29 30 32 36 39 40 44 48 54 56 54 52 49 48 47 47 52 56 59 53 54 52 56 60 59 61 62 65 69 69 71 67 72 76 75 72
20 21 22 24 25 26 27 29 31 33 35 37 39 42 47 50 52 56 58 58 55 54 55 55 58 55 58 62 59 69 61 71 60 72 73 83 78 77 71 71 59 47 51
24 26 27 27 28 29 30 31 32 33 35 37 39 42 44 47 52 55 59 61 61 53 55 63 61 75 64 67 67 62 70 67 70 65 62 59 49 36 34 28 26 27 27
25 27 28 29 30 31 32 32 33 33 34 36 40 42 44 45 45 49 50 48 49 51 53 58 63 63 61 68 63 48 56 50 46 44 42 38 28 28 23 24 24 25 27
22 23 25 26 27 28 28 28 29 31 31 32 34 38 41 39 37 39 42 45 47 46 46 50 49 48 49 46 31 28 25 25 24 21 20 20 21 21 23 25 27 28 30
20 22 23 24 25 26 27 27 27 28 28 27 23 25 27 24 21 21 18 15 11 18 8 12 11 11 7 10 9 10 11 12 14 16 19 21 23 24 26 27 28 29 29
21 21 21 21 22 22 23 23 23 22 20 19 19 17 15 19 19 13 10 7 8 7 5 5 4 4 5 6 9 11 13 15 17 19 21 23 23 25 25 26 27 27 27
18 19 18 18 18 19 19 19 18 17 16 15 15 13 12 12 11 14 16 15 12 11 11 11 12 12 12 14 15 17 19 20 23 23 23 23 23 24 25 24 25 26 27
17 17 17 16 16 15 15 16 16 15 15 16 16 16 16 16 15 15 16 17 19 19 20 20 20 20 19 20 21 22 21 20 20 20 20 21 22 22 23 23 24 24 24
14 13 14 14 15 16 17 17 17 17 17 17 18 18 19 19 20 20 20 22 23 24 24 23 22 21 20 19 19 19 19 19 20 20 20 21 22 23 23 22 22 23 23
12 13 15 16 17 19 19 20 21 21 21 21 21 21 21 21 21 20 19 19 19 18 18 18 18 18 19 19 20 20 20 21 21 22 22 22 22 22 22 22 22 22 22
16 18 19 20 21 22 22 22 23 23 23 23 22 21 20 19 18 18 18 18 18 18 18 18 18 19 19 20 20 20 21 21 21 21 21 21 21 21 21 20 20 19 19
21 22 23 23 24 24 23 23 23 23 22 22 21 20 19 18 18 17 18 18 18 19 19 20 20 20 20 21 21 21 21 21 21 21 21 21 20 20 19 19 19 19 19
24 24 24 24 24 23 23 22 22 21 20 19 19 19 19 19 19 19 19 19 20 20 21 21 22 22 22 23 23 22 22 22 22 21 21 20 20 19 18 18 18 18 18
24 23 23 23 22 22 21 20 19 18 19 20 20 20 20 20 20 21 22 23 23 23 24 24 24 24 25 25 24 24 23 22 22 21 21 20 19 18 18 17 17 17 17
23 23 22 21 20 19 18 17 18 18 19 21 22 23 24 25 25 25 25 25 25 25 25 25 25 25 25 25 24 23 23 23 22 21 21 20 18 17 17 16 16 16 16

GFSGL_700_spd_072.txt.gz
Wind_Speed
13 11 9 8 6 4 4 5 5 5 8 15 15 17 17 18 20 20 34 31 35 38 38 41 43 48 46 40 32 37 39 41 46 42 41 38 42 39 39 40 40 42 44
14 14 12 10 8 6 5 5 6 7 8 10 14 13 15 21 22 23 27 32 31 33 34 36 36 34 36 35 37 37 43 45 51 52 48 48 47 44 46 47 47 48 49
12 11 11 11 11 10 9 8 7 8 9 10 12 13 14 15 18 23 29 32 32 35 38 39 39 37 39 41 42 45 49 51 53 55 54 48 49 51 51 52 50 48 48
12 11 10 11 14 14 14 13 12 12 12 12 13 14 16 19 22 24 24 26 27 29 32 35 39 40 40 42 46 48 50 52 53 56 57 55 54 54 55 53 52 49 51
16 14 12 11 13 12 13 14 15 16 16 18 19 19 20 21 23 24 27 29 30 32 32 33 36 38 39 40 45 46 49 53 54 56 60 60 59 56 56 52 56 53 56
15 15 14 13 14 16 17 17 18 19 20 20 19 20 24 26 27 29 31 33 34 37 38 39 40 41 41 41 44 46 48 52 54 56 58 61 60 59 58 60 59 59 62
11 14 17 19 20 19 20 20 21 22 24 26 28 29 31 32 34 33 34 37 38 41 42 43 43 44 45 46 46 49 50 52 54 56 61 61 62 62 62 63 65 65 65
15 17 19 21 23 24 26 28 29 29 28 29 30 31 32 35 37 40 42 43 43 46 46 45 45 46 45 46 47 53 56 57 59 61 63 65 69 70 68 68 67 68 68
12 14 15 17 18 19 21 22 24 27 30 33 35 37 38 40 41 42 43 43 45 46 48 49 49 50 50 54 55 57 55 58 64 65 66 69 76 76 72 67 65 59 62
15 15 16 17 18 19 21 22 22 24 25 27 30 33 35 38 40 42 46 49 48 48 48 50 52 55 55 51 51 53 52 59 67 60 64 69 71 74 75 63 62 66 74
17 18 19 21 22 23 24 24 25 26 25 26 28 31 34 37 39 42 44 47 49 51 53 54 57 59 57 51 49 53 54 59 63 60 68 68 70 76 78 70 70 76 76
17 18 19 20 21 21 23 25 26 28 29 30 31 32 33 34 35 38 42 46 50 53 56 57 56 57 58 54 52 60 62 67 67 71 75 68 77 71 75 70 69 69 65
16 17 18 18 19 20 21 23 24 25 27 28 29 30 32 34 36 37 38 38 40 46 51 55 52 55 53 56 58 61 56 65 66 58 47 48 55 51 48 45 41 39 33
15 15 16 16 17 18 20 21 21 22 22 24 26 27 29 31 32 34 35 38 38 40 42 43 45 50 52 56 55 49 45 47 41 37 37 40 37 34 37 29 25 25 25
17 17 17 17 17 17 17 18 19 21 21 22 23 23 23 23 25 26 26 24 23 26 31 32 30 31 31 26 24 19 18 15 17 19 20 18 18 20 20 21 22 23 25
18 18 18 18 17 17 18 18 19 20 20 20 21 20 18 18 18 17 17 18 17 16 13 15 18 18 15 13 11 10 9 9 10 12 14 17 17 19 20 22 24 26 26
16 16 17 17 18 18 18 18 19 19 18 18 18 18 18 18 17 17 17 17 17 17 16 14 13 13 14 17 17 18 18 18 19 20 20 21 21 22 22 23 23 22 22
16 16 16 15 15 15 15 16 17 18 18 18 19 19 20 20 20 20 20 20 21 21 21 23 22 20 20 20 21 22 23 23 23 22 22 22 22 22 21 21 21 22 22
14 14 14 14 14 14 15 16 16 17 17 19 19 20 20 21 21 22 22 23 23 23 24 24 24 26 24 23 23 21 21 20 20 19 19 20 20 20 20 20 21 21 22
11 11 12 12 14 15 17 18 18 20 21 21 22 22 23 22 23 23 24 24 24 24 24 23 22 21 21 20 19 19 19 19 19 19 19 20 20 21 21 21 21 21 20
12 14 16 17 18 20 21 22 23 24 24 24 25 24 24 24 23 23 23 23 22 22 21 21 20 20 20 20 21 21 21 21 22 22 22 22 22 22 22 22 21 21 20
17 19 20 22 23 24 25 25 26 26 26 26 25 24 23 23 22 21 20 20 20 20 20 21 21 21 22 22 22 22 23 23 23 23 23 23 23 23 22 21 21 20 19
21 22 24 24 25 26 26 26 26 26 26 25 24 23 22 21 20 20 20 20 21 21 21 22 22 23 23 23 24 24 24 24 24 24 23 23 23 22 21 21 20 19 17
25 25 26 26 26 26 26 26 25 25 24 23 21 21 20 20 21 21 22 22 22 23 23 23 23 24 25 25 25 25 25 25 25 24 24 23 23 22 21 20 19 17 16
25 25 25 25 25 25 24 23 23 22 21 21 21 22 22 23 24 24 24 25 25 25 26 26 26 27 26 26 26 26 26 25 25 24 23 23 22 21 20 19 17 16 15
25 25 24 24 23 22 21 20 20 20 20 22 23 24 25 26 26 26 26 25 25 25 25 25 24 23 23 23 22 22 22 22 22 22 22 21 21 20 19 18 17 16 15

GFSGL_700_spd_075.txt.gz
Wind_Speed
19 16 13 11 8 5 3 3 3 5 10 17 18 19 25 26 25 24 25 30 25 27 25 35 32 32 38 43 44 45 46 47 53 40 36 34 33 32 39 41 44 44 40
21 18 15 12 11 9 8 6 4 4 5 9 10 13 15 22 23 24 23 25 28 34 31 33 35 37 33 35 42 46 52 44 39 47 40 38 40 38 41 46 47 49 49
17 16 15 14 13 12 11 9 9 8 8 8 8 9 10 10 12 16 17 25 28 31 34 35 32 34 36 38 38 39 39 38 41 44 45 45 46 46 48 48 48 49 53
16 16 15 15 14 14 12 11 10 9 8 9 10 11 12 13 14 14 15 17 21 25 28 30 32 36 42 43 41 41 41 43 46 50 51 48 47 47 52 52 52 51 52
17 16 13 12 12 11 11 11 12 11 12 12 14 13 14 15 17 18 20 22 23 24 25 27 29 30 30 32 36 35 39 43 45 48 49 46 46 49 53 55 60 57 57
20 17 14 16 14 12 12 13 13 12 13 14 16 17 17 22 20 21 22 24 26 28 29 30 32 33 33 36 39 40 42 46 48 49 51 54 54 53 53 56 57 58 61
26 22 19 14 12 12 12 14 15 16 17 18 19 22 26 29 29 29 30 31 32 34 34 35 36 38 39 40 41 43 46 47 50 52 57 59 60 59 61 62 61 64 65
13 13 11 11 13 14 16 18 20 22 23 23 24 25 27 29 29 30 32 34 36 37 40 42 45 46 47 48 47 47 48 46 46 47 49 52 54 57 59 64 67 67 67
5 5 7 8 11 12 12 13 16 18 19 21 23 26 28 29 30 31 32 35 38 41 42 45 47 48 48 50 51 53 52 49 53 61 66 68 72 74 65 70 66 64 73
8 9 10 12 13 15 15 16 17 18 19 21 23 25 28 30 30 31 32 32 35 37 40 43 46 49 50 51 51 51 50 54 53 58 60 58 62 67 71 67 69 67 71
10 11 13 14 16 17 18 20 20 21 21 22 23 25 26 28 31 33 35 37 39 41 43 45 46 47 48 49 51 53 51 51 52 54 60 65 68 69 68 74 64 68 65
11 13 15 15 16 18 19 20 21 22 22 22 23 24 25 26 26 27 27 29 31 34 37 41 44 49 49 48 46 45 47 50 54 57 61 60 60 63 60 53 58 54 54
12 13 14 15 15 16 18 19 20 21 22 23 24 25 26 28 30 31 32 31 30 27 27 28 31 36 40 42 39 36 37 42 47 54 58 52 50 56 50 45 45 42 41
13 13 14 15 15 16 17 18 19 19 20 21 22 23 24 25 26 27 28 29 28 28 27 26 26 27 28 30 31 29 27 26 28 33 32 31 31 29 25 25 24 25 24
13 15 16 16 17 18 19 19 19 20 19 19 20 20 21 22 22 23 23 23 23 24 24 24 23 23 24 25 26 27 23 18 17 18 20 21 22 21 21 21 22 22 23
13 15 15 15 15 16 16 17 17 18 18 17 18 18 18 18 19 20 20 21 21 21 21 20 20 21 22 23 24 22 21 23 21 19 19 20 21 22 24 24 24 24 24
14 14 15 16 16 16 15 15 15 15 15 15 16 16 16 17 18 18 19 19 20 20 20 20 20 21 22 24 25 25 26 25 23 25 24 23 22 22 21 20 21 21 21
15 15 16 16 16 15 15 15 15 15 15 15 16 17 17 18 19 19 20 21 21 22 22 22 22 22 22 22 22 23 23 23 23 21 21 22 21 21 20 20 20 21 22
13 14 14 14 14 14 14 14 15 16 16 17 18 19 20 21 22 22 22 22 22 22 22 22 22 22 21 20 20 20 19 20 20 20 20 19 20 20 21 21 21 22 22
12 12 12 12 13 14 15 17 18 19 20 21 22 22 23 23 23 23 23 23 23 22 22 22 22 21 20 20 20 20 20 20 21 21 21 21 21 22 22 22 22 22 22
11 12 13 14 16 18 19 21 22 22 23 23 23 23 23 23 23 22 22 22 22 21 21 21 21 20 20 20 21 21 21 22 22 23 23 23 23 23 23 23 23 23 22
14 16 17 19 20 21 22 22 23 23 23 23 23 22 22 21 21 21 21 20 20 20 21 21 21 21 21 22 22 23 23 23 24 24 24 25 25 25 24 24 24 23 23
19 20 20 21 21 22 22 23 23 23 23 22 21 20 20 20 20 20 20 20 21 21 21 22 22 23 23 24 25 25 25 25 26 25 25 25 24 24 23 23 22 21 21
21 21 22 22 22 23 23 23 22 22 21 20 20 19 19 19 20 21 22 23 23 24 24 24 24 25 25 26 26 26 26 26 25 25 25 24 23 23 22 22 21 20 20
22 23 23 23 22 22 22 21 21 21 20 20 20 20 21 22 23 24 25 25 25 25 25 25 25 25 24 24 24 23 23 23 23 23 22 23 22 22 21 21 20 19 18
23 23 23 22 22 21 21 20 20 20 20 21 22 23 24 25 25 25 25 25 24 24 23 22 22 21 20 19 18 17 17 17 17 17 18 18 19 19 19 18 18 18 17

GFSGL_700_spd_078.txt.gz
Wind_Speed
22 19 16 13 11 9 9 8 7 6 8 9 19 29 32 22 24 22 22 22 24 26 23 24 32 28 26 31 34 42 43 41 44 48 45 38 35 35 35 37 37 42 45
24 20 18 15 13 11 10 9 8 7 6 10 11 17 20 24 27 26 26 23 25 26 30 27 24 28 24 25 33 37 41 43 47 48 52 48 42 47 45 43 45 45 46
25 21 21 19 17 15 13 11 10 10 9 11 11 13 12 12 17 23 29 28 27 26 27 30 28 30 30 29 32 34 33 36 38 39 46 47 44 38 38 44 49 48 49
22 20 20 20 20 19 17 16 13 12 12 13 14 15 17 16 16 17 17 18 19 24 27 26 26 28 31 32 37 39 41 42 44 45 43 43 42 41 46 48 49 50 50
23 20 18 18 18 18 18 17 17 17 17 17 18 19 20 21 20 20 20 21 22 22 24 26 28 29 31 30 31 30 32 34 35 38 39 37 39 39 40 41 48 46 47
25 23 19 18 18 17 16 16 16 16 16 16 18 21 22 21 22 23 25 26 26 27 28 30 32 33 35 37 39 41 41 42 43 46 48 52 52 49 49 51 54 56 56
24 25 23 19 17 19 19 19 19 18 18 18 19 19 21 22 22 23 24 25 27 29 33 34 34 34 35 37 38 38 39 40 43 44 48 49 52 52 52 50 53 51 52
30 27 28 30 27 19 18 17 18 18 18 19 20 22 23 24 23 24 24 27 31 34 35 37 38 39 41 42 43 45 45 47 48 47 50 50 53 53 53 55 54 57 63
20 21 27 28 19 18 17 16 16 17 18 19 19 20 21 22 22 22 24 29 31 34 36 38 39 41 43 44 44 45 45 48 50 51 53 58 59 60 59 56 59 57 59
15 11 13 13 12 13 13 13 14 15 16 18 19 20 21 22 24 24 24 26 28 30 32 34 35 37 39 40 41 43 46 49 52 56 56 57 60 63 64 65 65 63 64
4 7 8 9 14 16 15 16 16 17 19 20 21 22 24 25 26 26 28 29 30 31 32 34 35 35 35 35 35 36 38 41 46 51 54 55 57 60 62 65 67 68 69
6 7 8 11 14 15 16 17 17 18 19 20 22 23 23 23 24 24 24 25 26 28 30 33 35 36 37 36 35 33 32 31 33 37 42 46 50 55 55 58 63 64 58
12 14 13 13 14 14 15 15 16 16 17 18 18 19 20 21 21 22 22 22 23 24 26 27 28 30 31 31 31 30 29 27 26 27 27 30 34 39 41 42 42 40 37
9 10 10 11 11 11 12 15 16 16 17 18 19 19 20 20 21 22 23 23 23 24 24 25 26 27 28 29 29 29 28 26 24 24 24 25 26 28 29 30 30 30 30
11 11 11 12 13 13 14 15 16 17 18 19 20 20 21 22 22 23 23 24 24 24 24 25 26 27 28 28 29 30 30 30 29 28 27 26 26 26 27 28 30 31 30
12 13 13 14 15 15 16 17 18 19 19 19 20 20 21 21 21 22 23 23 23 24 24 25 25 26 27 28 28 29 30 31 31 30 30 29 28 28 29 29 30 29 28
12 13 14 15 15 16 16 17 17 17 17 17 18 19 20 21 21 21 22 22 23 23 24 24 25 26 27 28 29 30 30 31 31 31 30 29 28 28 27 26 26 25 25
13 13 13 13 14 14 15 15 16 16 16 16 17 17 18 19 20 21 22 23 24 25 26 26 27 27 28 28 28 28 28 28 27 27 26 26 25 25 24 24 24 25 25
13 13 14 14 13 14 14 14 15 15 16 17 18 19 20 21 22 24 24 25 26 27 27 27 27 27 27 27 27 27 27 26 26 26 25 25 25 25 25 25 25 25 26
13 14 14 14 14 14 15 16 17 18 20 21 22 23 24 24 24 25 26 26 27 27 27 26 26 26 26 26 26 26 26 26 26 26 26 26 26 26 26 26 26 26 26
12 12 13 14 15 17 18 20 21 22 23 23 24 24 25 25 26 26 26 26 26 25 25 25 25 25 26 26 26 26 26 26 26 26 27 27 27 28 28 28 28 27 27
14 16 17 19 20 21 22 23 23 24 24 25 25 26 25 26 25 25 25 24 24 25 25 25 25 26 26 26 27 27 27 28 28 28 29 29 29 28 28 28 27 27 27
19 20 21 21 22 23 23 24 24 25 25 26 26 25 25 24 24 24 24 24 24 25 26 26 27 27 28 28 28 28 28 28 29 29 28 28 28 27 26 26 25 25 25
21 22 22 23 23 24 25 25 25 25 25 25 24 24 23 23 23 23 24 25 26 27 27 28 28 28 28 27 27 27 27 27 26 26 25 25 24 23 23 23 23 22 22
22 23 23 24 24 25 25 25 24 24 24 23 23 23 23 23 24 25 26 27 27 28 28 28 27 27 26 25 24 24 23 22 22 21 21 21 21 21 21 21 21 21 20
23 24 24 25 25 24 24 24 23 22 22 22 22 23 23 24 25 26 27 27 27 27 26 25 24 23 22 21 20 19 19 18 18 18 18 18 18 18 18 18 18 18 18

GFSGL_700_spd_081.txt.gz
Wind_Speed
30 25 18 16 13 12 9 9 11 11 11 10 11 21 21 23 23 25 21 22 28 20 23 24 25 30 32 36 28 23 27 31 37 35 37 36 41 44 44 42 40 37 39
33 26 19 18 15 13 12 11 10 9 8 8 7 16 26 24 23 23 21 18 21 20 19 22 24 22 23 21 24 23 26 29 30 35 33 36 37 36 39 45 45 43 44
35 28 21 19 17 16 15 13 12 10 8 10 9 11 15 20 24 24 24 19 23 22 20 24 26 27 27 27 27 26 27 33 31 37 36 35 36 36 37 37 36 38 41
38 31 25 21 21 19 18 17 16 14 12 12 14 15 16 18 21 23 23 25 25 23 25 26 23 24 26 26 28 29 29 30 31 33 33 33 35 31 34 35 35 36 40
38 32 24 21 20 19 19 17 17 16 16 16 18 19 20 20 19 18 19 18 18 17 21 24 21 22 24 24 25 26 29 33 35 36 38 38 36 36 37 37 41 38 39
37 30 25 22 19 18 19 19 19 19 19 19 19 19 20 20 20 21 21 23 25 26 28 27 27 29 31 31 32 33 34 39 40 40 40 42 39 40 42 48 50 47 47
30 28 26 24 22 20 18 17 19 19 20 21 22 22 22 22 22 22 24 28 29 29 28 27 27 30 31 31 32 32 35 38 41 44 46 48 51 51 51 50 53 52 54
35 31 29 27 26 24 19 20 22 21 20 20 21 21 21 21 20 21 23 25 28 31 33 34 34 36 36 37 38 40 42 44 45 47 48 50 51 52 51 52 51 52 54
34 34 33 31 32 30 29 33 21 21 24 25 25 25 26 27 26 27 28 30 32 32 33 34 35 36 36 37 37 40 42 44 46 48 51 54 56 56 57 58 56 59 61
31 29 20 28 33 33 32 35 18 20 19 20 20 20 20 21 21 23 24 25 26 27 28 29 29 30 31 32 33 35 37 39 41 43 45 48 50 53 56 57 60 57 59
12 8 8 20 13 12 17 18 16 15 17 18 19 19 19 20 21 22 23 24 25 26 27 27 28 29 29 30 30 32 33 34 36 38 39 41 42 44 47 49 51 53 54
9 5 3 4 6 10 11 14 15 15 17 17 18 18 19 21 22 22 23 24 25 25 27 28 29 30 30 31 31 32 32 32 33 34 34 35 36 37 38 39 39 39 39
2 2 5 6 7 8 8 10 12 16 19 20 19 19 20 20 21 21 22 23 25 25 26 28 28 28 28 29 29 29 29 29 29 29 30 31 33 33 34 34 35 35 34
8 9 10 9 9 9 10 12 14 14 15 16 16 16 17 18 19 20 21 21 22 24 25 26 27 28 29 29 29 28 28 28 29 29 29 30 30 31 32 33 33 34 35
6 7 7 7 8 9 10 11 12 12 13 14 15 16 17 19 20 20 21 21 22 23 24 25 26 27 28 29 29 30 30 30 30 30 31 31 31 32 32 32 33 33 33
8 8 9 10 10 10 11 13 14 15 16 17 17 18 18 20 20 21 22 23 23 23 25 26 27 27 28 29 29 30 31 32 33 33 33 33 33 33 33 33 33 33 33
10 11 11 12 13 13 14 15 15 16 16 17 18 19 20 21 21 22 22 23 24 25 26 27 28 29 29 30 31 32 33 34 34 33 33 33 33 33 32 32 32 31 31
13 13 14 14 14 14 15 15 16 16 17 17 18 19 20 21 22 23 24 25 26 27 28 29 30 30 31 31 32 32 32 32 32 33 33 32 32 32 32 32 31 30 30
13 13 14 14 15 15 15 16 16 17 18 19 19 20 21 23 24 25 27 28 29 29 30 30 30 31 31 31 31 32 32 32 32 32 32 32 32 32 31 31 31 31 31
13 13 13 13 14 14 15 15 16 17 19 20 21 23 24 25 26 27 28 29 29 30 30 31 31 31 31 31 31 31 31 31 31 31 31 31 31 31 31 32 32 33 33
13 13 14 14 15 15 17 18 20 21 22 23 24 25 26 27 28 29 29 30 30 31 31 31 31 31 30 30 31 31 31 31 31 31 31 31 31 32 33 33 33 33 33
14 15 16 17 18 20 21 22 23 24 25 25 26 27 28 29 30 30 30 29 29 29 29 29 29 29 30 30 31 32 32 32 32 31 31 32 32 33 32 32 31 30 30
18 20 21 22 23 24 24 25 26 26 27 28 29 30 30 30 30 30 29 29 28 28 28 29 29 30 31 31 32 32 32 31 31 31 31 30 30 29 28 27 26 25 25
24 24 25 25 25 26 26 27 28 29 30 30 31 31 30 30 29 29 29 28 29 29 29 30 30 31 31 31 31 31 30 29 29 28 27 25 24 23 22 22 22 21 21
26 26 26 27 27 28 29 29 30 30 30 30 30 30 29 29 28 28 28 28 29 29 29 30 30 30 30 30 29 28 27 26 24 23 22 22 21 21 21 21 20 20 20
27 27 28 28 29 29 29 29 29 29 29 29 28 28 28 28 28 28 28 28 29 29 29 29 29 28 28 26 25 24 23 23 22 21 21 21 21 20 20 19 19 19 19

GFSGL_700_spd_084.txt.gz
Wind_Speed
31 33 27 22 19 16 13 10 11 8 8 11 12 15 18 17 14 17 26 26 23 31 36 34 39 37 35 31 23 26 29 29 26 25 28 30 35 35 34 33 36 37 36
35 33 28 22 18 16 14 12 11 9 7 7 8 9 18 19 21 21 17 20 24 33 26 20 17 19 24 24 26 20 23 23 30 28 26 30 27 26 30 34 34 37 39
35 35 29 23 19 18 17 15 13 11 8 5 6 4 15 20 17 21 21 19 18 14 18 18 15 16 23 25 26 26 23 25 25 29 27 30 29 29 30 32 31 31 29
35 34 32 27 23 21 21 18 16 15 12 9 9 10 12 21 22 20 18 17 20 21 19 14 19 19 20 18 23 23 29 24 26 28 31 26 26 24 28 29 29 29 29
35 38 36 33 26 22 22 18 17 16 15 12 11 11 13 15 18 21 20 19 23 21 22 21 20 22 21 20 22 23 23 25 26 26 27 31 33 31 32 31 29 31 28
30 36 37 32 27 25 23 20 19 20 19 17 16 15 15 15 15 15 16 17 17 22 24 20 25 24 25 25 30 30 28 30 31 33 35 37 39 41 40 42 43 43 43
28 29 33 31 30 27 25 24 19 20 20 20 20 20 20 19 19 18 19 20 21 21 24 30 31 30 29 28 31 29 31 31 33 33 38 40 44 45 47 48 48 49 51
30 32 31 30 28 25 24 22 18 18 18 19 21 22 22 23 21 22 22 23 22 23 25 26 28 28 28 32 36 37 39 39 40 41 42 44 46 48 48 50 51 52 54
35 36 33 32 33 31 30 28 26 19 25 25 21 20 20 20 20 20 22 24 26 28 30 31 33 34 35 36 38 39 41 42 43 44 44 45 46 46 48 49 51 52 53
35 36 42 36 41 39 35 33 33 33 35 32 21 22 23 23 25 26 27 28 29 29 29 30 29 29 30 30 31 32 34 35 36 37 38 39 40 42 42 43 42 41 42
17 17 23 17 31 16 22 23 30 32 33 31 14 15 17 18 20 21 21 22 23 24 24 25 26 26 26 27 27 28 30 31 32 33 35 35 36 37 38 38 38 38 38
2 1 5 5 4 14 4 7 7 6 9 12 16 18 16 16 16 18 19 19 20 21 22 22 23 23 23 25 26 27 27 28 30 31 32 33 34 34 35 35 36 36 36
4 4 3 0 4 7 6 4 4 4 7 9 10 13 14 15 16 15 15 18 19 21 21 21 22 23 24 25 26 26 27 29 29 31 32 32 33 34 35 36 36 37 36
3 1 2 2 1 1 3 3 5 6 8 12 13 16 18 19 18 18 20 20 21 22 22 23 24 25 26 27 27 28 29 29 30 31 31 32 33 33 33 34 34 34 35
3 3 3 3 3 2 4 6 9 10 12 13 14 15 15 16 17 18 20 21 21 21 22 23 25 25 26 27 27 28 29 29 30 30 30 30 31 31 31 32 32 33 33
4 5 6 6 7 8 8 9 9 10 11 12 13 14 15 16 17 18 19 20 21 22 23 24 25 26 27 27 28 28 29 30 30 31 31 32 32 32 33 33 33 33 33
6 6 7 8 8 9 10 10 11 12 12 12 13 14 15 16 17 18 19 19 21 22 23 24 25 26 28 29 30 31 31 32 33 33 33 34 34 33 33 33 32 32 33
8 9 10 10 11 11 11 12 12 12 13 14 15 15 16 17 18 19 20 21 23 24 25 26 28 29 29 30 31 32 33 33 33 34 33 33 34 34 33 33 33 31 32
11 11 11 11 11 12 12 13 13 14 14 15 16 17 17 18 20 21 22 24 25 26 27 28 29 30 32 32 33 34 33 33 33 33 33 32 33 32 32 32 32 33 32
12 13 12 12 13 13 14 14 15 15 15 16 18 19 20 21 22 23 24 25 27 28 30 30 31 32 32 33 32 32 33 32 32 33 32 32 33 33 33 33 32 33 34
12 12 12 13 14 15 16 17 18 19 19 20 22 23 23 24 24 25 26 28 29 29 31 31 31 31 32 31 32 32 31 32 32 32 32 33 33 32 32 33 33 33 33
13 13 14 15 16 18 19 20 22 22 23 22 23 24 25 26 27 28 28 29 29 30 31 31 31 30 31 31 31 32 32 32 32 32 32 32 32 30 31 30 30 29 27
15 17 18 19 22 22 23 23 24 24 25 26 26 26 27 28 29 30 29 30 30 29 30 31 30 30 31 31 31 30 31 31 31 30 30 29 29 27 27 25 24 23 22
22 22 23 23 24 24 24 24 25 26 27 28 28 29 29 30 30 30 29 29 30 29 29 29 29 30 30 31 31 30 31 29 29 28 26 26 24 23 22 21 21 20 20
26 26 27 26 26 26 27 27 27 27 28 28 28 29 28 28 28 28 27 27 27 28 28 28 29 29 29 29 29 29 28 27 25 24 24 23 22 21 20 20 19 19 19
28 28 29 29 29 29 29 29 28 28 27 27 27 26 26 26 26 25 26 25 26 27 27 28 28 28 28 28 27 26 25 24 23 22 22 22 21 20 20 19 19 18 18

GFSGL_700_spd_087.txt.gz
Wind_Speed
29 26 24 26 27 19 16 13 12 9 8 10 10 12 15 14 14 22 24 24 25 36 31 33 31 35 35 35 33 34 36 35 34 28 30 34 33 33 27 25 25 27 25
25 28 28 27 26 21 17 14 12 9 8 8 9 9 15 17 12 14 18 24 25 24 28 33 25 29 31 32 34 37 31 25 32 29 22 29 22 24 25 25 24 27 30
26 25 29 29 28 23 19 16 13 12 10 8 8 9 13 21 20 18 18 23 18 19 23 23 24 20 18 16 16 22 20 25 21 25 22 21 21 27 25 28 28 27 26
33 28 33 32 31 27 21 19 17 14 12 9 8 7 8 19 18 21 19 19 22 22 19 16 26 25 21 18 20 20 23 23 23 27 24 23 25 26 30 26 24 27 25
34 29 33 34 33 27 23 20 18 16 13 12 9 9 7 19 23 19 17 16 16 21 23 24 23 17 19 20 22 26 22 24 27 26 27 27 24 22 25 26 26 26 29
25 28 32 32 32 27 23 23 20 20 17 15 14 12 11 12 18 23 22 20 23 24 23 19 25 25 23 23 20 20 19 22 25 24 25 29 30 30 35 31 37 35 39
24 26 27 27 30 29 28 25 24 23 22 19 18 18 16 15 16 18 19 20 19 23 22 23 23 24 25 20 22 25 27 27 26 26 31 31 34 36 38 38 44 44 46
26 27 24 23 30 31 33 31 28 27 25 24 22 23 22 19 19 20 20 20 18 20 22 20 23 24 28 29 29 27 27 31 36 36 37 38 39 41 42 43 45 49 50
27 33 31 28 30 32 34 35 33 30 28 26 23 22 23 27 23 21 21 21 20 20 20 22 22 25 28 30 32 33 35 35 36 40 42 44 45 43 42 42 43 43 44
28 33 33 40 40 38 34 34 34 34 30 28 30 24 27 28 22 24 25 25 24 25 27 27 27 30 33 34 35 36 35 35 35 35 36 36 37 37 37 38 38 38 37
9 15 15 19 22 31 27 37 37 37 34 35 31 29 30 34 25 25 23 21 20 24 25 28 28 28 29 29 29 30 30 31 31 32 33 33 34 34 34 34 34 34 35
4 2 1 1 3 6 10 12 21 21 19 18 20 20 13 23 17 10 16 18 17 18 20 21 21 22 24 25 26 26 27 28 29 29 30 30 31 32 32 33 34 35 35
7 8 7 4 4 1 3 3 3 7 6 2 5 8 8 13 14 14 11 11 12 13 15 17 18 19 20 23 23 24 26 26 27 28 29 30 31 32 34 34 35 36 36
6 6 6 5 5 3 1 4 4 3 3 8 12 10 8 10 13 13 14 16 18 19 20 22 26 24 23 23 23 24 26 27 27 28 29 30 31 32 33 34 35 36 36
3 2 2 2 2 2 2 2 4 7 9 9 9 11 14 15 16 18 19 21 23 23 22 22 22 21 21 22 24 25 25 26 27 28 29 29 31 32 32 34 34 35 35
3 4 4 4 5 5 5 4 6 8 9 10 11 12 13 14 14 15 15 15 16 16 18 19 19 20 21 21 23 25 25 26 27 28 29 30 30 31 31 32 33 34 34
6 6 6 6 7 8 8 8 9 10 11 12 12 13 14 15 14 15 15 16 16 17 18 19 19 21 22 23 24 25 26 27 27 28 29 30 31 31 32 31 32 34 34
7 8 9 9 10 10 10 10 10 11 11 12 13 13 14 15 15 15 16 16 17 18 19 20 21 22 23 24 25 26 27 28 28 28 30 31 32 32 33 33 33 33 33
9 10 10 10 11 12 12 11 11 12 13 14 14 14 14 15 16 16 17 19 19 20 20 22 23 24 25 27 27 27 27 29 29 29 30 32 33 33 33 33 33 33 32
11 11 11 11 12 12 12 11 12 13 13 14 15 15 16 18 19 20 20 20 21 22 22 24 25 26 27 27 29 29 29 30 31 32 32 33 33 32 33 33 32 32 33
12 12 12 13 13 13 13 13 13 14 16 17 18 18 18 18 19 21 21 22 23 24 24 25 27 28 29 30 29 29 31 31 31 32 32 32 32 32 33 32 32 31 31
13 13 13 15 15 14 16 17 17 17 18 19 20 20 20 20 21 22 23 24 25 26 27 27 27 28 29 29 30 30 31 30 30 31 31 31 31 30 31 30 29 28 27
15 15 17 19 20 20 22 22 22 21 20 21 21 22 23 24 23 23 24 24 24 27 27 27 27 28 28 27 27 29 29 29 29 30 30 30 29 29 27 27 25 23 22
19 19 20 21 22 22 22 23 24 24 24 24 24 25 25 25 25 24 25 27 26 25 26 25 26 27 28 27 27 28 28 28 28 28 28 27 26 25 24 23 22 21 21
22 22 22 22 22 23 23 23 23 24 25 25 25 25 25 25 25 24 23 24 26 24 24 24 24 25 25 26 27 27 27 27 26 26 25 24 23 23 22 21 20 20 19
24 24 24 23 23 23 24 23 23 23 24 24 23 23 24 23 22 22 20 21 22 22 22 23 23 24 24 25 25 25 26 25 24 24 23 22 22 21 20 20 20 19 18

GFSGL_700_spd_090.txt.gz
Wind_Speed
32 30 32 30 25 24 23 20 18 16 10 12 13 13 17 18 19 17 15 23 28 34 40 28 37 29 30 30 33 32 33 26 24 28 27 28 30 31 35 34 28 24 23
33 30 30 28 27 22 23 22 19 13 10 11 12 14 17 18 18 16 22 22 25 25 32 28 39 35 33 32 32 34 31 29 34 33 33 34 34 28 33 33 31 27 22
33 26 24 28 25 21 24 24 18 16 13 12 11 12 14 15 18 11 16 23 23 28 31 30 32 33 29 35 39 38 33 30 28 29 24 29 26 23 27 26 24 24 31
21 23 22 23 26 25 26 26 21 18 14 11 10 10 9 13 20 17 16 14 22 21 25 30 27 31 30 27 25 22 20 20 23 26 25 26 22 25 24 29 29 29 32
21 33 22 25 23 22 27 26 21 17 15 13 12 9 7 10 19 19 18 15 19 16 16 18 24 24 24 29 20 23 20 18 21 17 17 22 28 28 26 28 26 29 30
19 23 17 19 21 24 27 26 24 20 18 16 15 12 10 11 17 20 17 17 17 23 27 29 27 27 26 23 19 21 25 26 27 24 25 21 21 25 27 28 31 34 34
18 21 22 22 22 21 27 30 30 27 22 19 18 17 15 14 17 21 25 22 22 22 25 26 23 27 28 22 27 25 21 18 22 24 28 27 26 24 26 28 30 36 37
24 24 21 23 25 25 26 24 29 32 27 24 22 21 20 19 19 22 26 28 28 29 29 28 27 27 28 25 28 27 22 23 24 25 26 29 33 35 35 38 36 38 42
28 26 25 31 35 29 26 25 26 27 30 28 26 24 21 21 21 22 25 26 25 25 24 23 25 25 24 27 26 29 28 29 31 33 33 36 35 37 39 42 44 43 43
24 24 31 37 32 34 35 32 30 35 33 31 33 28 26 26 25 26 28 28 27 26 29 31 24 27 29 30 28 31 33 33 34 37 36 34 33 33 34 34 35 35 35
8 15 18 23 24 29 32 30 40 44 38 39 34 33 35 34 33 36 34 35 35 30 33 35 35 32 32 33 32 31 32 31 30 29 28 28 28 29 29 30 31 32 33
3 4 4 2 9 9 16 17 16 21 17 28 27 29 33 34 36 37 34 36 32 33 26 18 18 20 21 26 22 24 25 25 25 26 26 27 29 30 31 31 32 33 33
4 4 5 7 7 4 5 6 6 8 12 15 15 16 14 14 13 11 11 9 9 8 10 15 16 16 17 18 17 18 20 22 24 26 28 29 29 30 31 31 31 31 32
4 5 4 5 6 7 7 3 6 4 3 3 3 4 9 12 8 6 5 7 6 7 8 11 15 18 20 21 23 26 29 31 31 30 29 28 29 29 30 31 32 33 33
2 1 1 1 1 2 3 5 4 3 4 5 4 5 6 8 9 11 11 14 16 19 22 23 23 23 25 27 28 27 25 25 25 26 27 27 28 29 31 32 33 34 35
1 2 3 3 2 3 3 3 3 5 7 8 10 11 12 12 12 13 15 17 16 17 19 20 20 19 19 19 20 20 22 23 25 26 27 28 28 29 31 32 34 35 37
6 6 6 6 6 6 6 7 8 9 10 11 12 12 12 12 13 13 13 14 15 16 16 16 17 18 18 19 21 21 22 23 25 26 27 28 30 31 31 33 34 35 36
10 9 9 10 10 10 10 10 10 11 12 12 11 11 11 11 12 12 13 14 15 16 17 17 18 19 19 20 21 22 23 24 26 28 29 30 31 32 32 33 33 34 34
12 12 12 11 11 12 13 13 13 13 13 12 12 13 14 14 15 15 15 16 17 18 18 19 20 19 20 21 23 25 26 27 28 30 30 31 31 32 33 33 34 35 34
13 13 13 13 13 13 13 13 14 14 14 14 14 15 15 16 16 17 18 19 19 20 20 21 21 22 22 23 25 26 28 28 29 30 31 32 33 34 34 34 34 34 34
12 13 14 13 13 13 13 14 14 15 15 16 16 17 19 20 21 21 21 21 21 22 23 23 24 24 25 26 27 28 29 29 31 31 31 32 32 33 33 32 32 32 33
13 14 14 14 14 15 15 16 17 19 20 21 21 20 21 22 22 23 23 23 23 24 25 26 26 27 27 28 29 29 29 30 31 30 30 30 30 30 30 30 30 30 29
16 17 19 18 19 19 19 20 20 21 22 23 23 23 23 23 24 24 25 25 25 25 26 26 28 28 28 29 29 28 28 28 27 27 27 27 27 27 27 28 27 27 26
22 22 23 23 23 24 24 23 22 22 22 22 23 23 23 23 24 25 25 26 27 27 26 27 28 27 25 25 25 25 25 25 24 24 25 25 26 26 26 26 25 25 24
23 23 24 24 25 24 24 24 24 24 24 24 24 24 23 23 24 25 26 26 26 25 24 24 24 23 23 22 22 23 23 24 25 25 26 26 26 26 25 24 24 24 23
25 25 24 24 25 25 25 25 26 26 26 25 25 25 25 23 22 23 23 24 24 23 23 22 22 22 23 24 24 25 25 25 26 26 26 25 25 24 23 24 24 22 21

GFSGL_700_spd_093.txt.gz
Wind_Speed
33 34 31 29 27 30 27 26 27 24 22 20 20 17 18 25 27 27 32 32 28 31 26 32 42 34 42 32 35 26 26 29 32 27 29 21 20 24 23 20 24 26 26
38 37 29 29 30 29 28 27 25 25 20 21 21 17 18 19 21 22 24 20 18 22 25 28 38 41 38 35 33 29 31 35 32 30 31 24 26 25 26 30 29 34 36
32 30 31 28 32 30 25 26 25 24 20 22 20 14 14 16 19 19 21 21 16 25 25 28 27 36 33 35 30 34 35 35 34 26 29 30 33 33 33 35 35 38 35
34 37 46 35 32 31 28 27 24 23 21 21 17 15 14 13 12 17 15 13 22 17 23 25 33 30 38 34 36 33 31 30 31 29 26 27 31 33 34 32 29 31 34
17 27 29 37 27 27 26 25 23 20 20 20 17 17 14 11 12 16 16 14 14 18 19 21 30 33 34 35 33 29 33 34 29 23 23 24 27 22 27 26 25 24 29
17 19 5 28 19 21 22 24 16 13 17 20 19 18 15 12 11 17 21 15 16 15 11 20 29 32 25 28 31 33 26 23 25 19 18 19 19 22 27 30 31 28 30
14 15 16 13 24 19 21 21 20 20 22 22 22 21 17 13 14 12 14 15 14 13 18 18 20 22 31 34 28 26 28 21 21 22 24 25 22 21 24 25 29 31 33
16 24 18 27 27 20 23 24 23 28 26 28 27 24 20 17 16 20 22 22 20 20 19 18 22 24 26 31 28 29 20 26 26 22 23 27 30 29 26 26 30 32 33
15 15 24 20 19 23 23 23 22 28 28 27 27 26 25 22 21 22 25 27 28 25 23 23 27 28 31 28 27 30 29 30 30 29 29 28 29 30 32 33 35 37 37
10 16 21 23 29 30 28 26 28 29 27 25 27 26 26 27 23 23 25 27 29 30 31 32 34 34 33 32 29 27 27 31 31 33 32 35 33 33 36 35 33 34 35
3 4 8 12 17 20 25 33 37 34 34 33 33 31 28 25 26 27 29 29 31 30 32 32 31 28 30 31 31 32 36 38 36 37 37 32 29 26 27 27 27 28 29
4 4 2 2 3 7 11 19 25 26 24 26 28 31 33 34 30 36 36 41 41 40 41 37 40 38 35 37 37 38 33 27 23 27 27 23 22 24 25 26 27 28 29
1 2 1 1 1 1 4 7 8 11 14 16 19 22 21 19 23 23 23 23 23 26 26 26 28 33 33 30 18 14 19 21 20 21 20 21 24 26 27 27 28 28 28
1 1 1 0 2 3 4 3 1 2 4 5 7 9 10 12 16 16 12 11 11 10 14 14 9 10 11 12 14 16 18 20 21 23 24 25 24 24 25 27 29 30 30
3 2 1 2 2 1 1 2 0 0 1 0 3 4 5 5 6 6 7 8 8 10 12 13 15 16 17 16 17 18 20 23 26 27 28 28 28 29 29 29 29 29 30
4 5 4 4 3 3 3 3 3 3 4 5 6 6 7 8 8 8 10 10 11 12 12 13 14 16 17 18 20 22 24 25 25 25 25 24 25 26 27 29 30 31 33
7 8 9 9 8 9 8 8 8 9 10 11 11 12 13 13 14 15 15 14 15 16 17 18 17 17 18 19 21 22 22 23 23 23 23 24 25 27 29 31 33 35 36
11 11 11 11 12 12 11 11 11 12 11 11 12 12 13 14 14 14 14 15 15 15 15 15 16 17 18 19 20 21 21 22 22 23 24 26 28 30 32 33 34 35 37
14 14 14 14 14 14 13 13 13 13 13 13 14 14 14 15 15 15 16 16 16 16 16 17 18 18 19 20 21 22 23 24 25 26 28 30 31 32 33 34 35 36 36
15 16 16 15 15 14 14 14 14 14 14 15 15 16 16 16 16 17 17 18 18 19 19 19 20 21 22 23 24 24 25 26 28 29 30 31 32 33 33 34 34 34 34
17 16 16 16 17 17 17 16 16 16 17 17 18 18 18 19 19 20 20 20 21 21 21 21 22 23 24 25 26 26 28 29 30 31 31 31 32 32 32 32 32 32 32
18 19 19 18 18 18 19 19 19 20 20 21 21 22 23 23 23 23 23 23 24 24 24 25 25 26 26 27 28 29 30 30 30 30 30 30 30 30 30 30 29 29 29
21 22 22 22 22 23 23 24 24 25 25 26 26 26 26 25 26 26 26 26 27 27 27 27 28 28 28 29 29 29 29 29 29 29 28 28 28 28 28 27 27 27 27
27 27 27 27 27 27 27 28 28 28 28 29 29 29 29 29 28 28 28 28 28 29 29 29 29 29 29 29 29 29 28 28 27 27 26 26 26 26 26 26 26 26 25
29 29 29 28 28 28 28 28 28 28 28 28 28 28 28 29 30 30 29 29 29 29 29 29 28 28 28 28 28 27 27 26 25 25 25 25 26 26 26 27 27 25 24
29 29 29 29 29 29 29 29 28 28 28 28 27 27 27 28 28 28 28 29 28 27 27 27 27 27 27 26 25 25 25 25 25 25 26 26 26 26 26 26 26 25 26

GFSGL_700_spd_096.txt.gz
Wind_Speed
22 18 21 30 34 33 33 27 31 31 29 27 25 24 23 22 23 26 25 27 30 35 35 39 35 35 34 37 37 39 30 33 28 31 44 28 26 24 24 23 23 24 29
25 24 24 27 29 37 28 28 30 29 29 27 24 24 22 20 24 26 25 31 32 33 34 37 32 34 37 31 35 33 29 25 27 29 34 33 31 28 28 30 32 29 28
23 27 31 41 35 39 29 31 32 30 29 27 25 21 19 20 24 21 20 22 28 26 17 19 29 27 28 33 31 34 24 27 26 30 32 38 38 38 33 31 30 35 32
24 23 25 29 33 31 31 31 29 32 30 29 23 18 18 20 22 17 17 14 15 14 11 17 20 25 30 26 37 30 31 28 28 32 35 31 31 29 33 32 36 37 36
12 13 25 34 42 30 39 31 30 33 30 26 19 16 18 19 20 16 12 13 14 20 18 17 22 19 28 23 34 29 28 30 33 35 33 35 32 32 33 32 34 35 36
14 14 13 24 24 33 44 34 33 28 23 19 16 14 15 19 19 16 13 15 12 15 13 15 15 23 23 23 24 35 31 31 31 27 27 28 27 28 28 27 25 22 22
14 12 18 17 9 28 37 32 28 23 21 20 17 16 16 18 19 15 13 15 16 9 6 5 20 17 26 33 27 30 30 25 29 24 23 22 20 23 20 20 21 25 28
15 10 11 8 8 26 36 23 20 21 21 19 17 17 20 18 20 17 12 12 14 15 14 9 12 15 27 27 21 25 30 27 27 30 28 25 24 25 24 23 25 27 28
8 14 14 20 22 25 26 25 20 16 15 16 16 17 22 22 20 20 18 18 21 16 20 21 20 16 23 21 28 27 32 38 31 28 29 28 27 27 30 28 29 31 32
6 9 9 12 13 16 18 23 23 21 18 18 19 23 23 20 18 19 23 25 22 25 25 22 24 20 23 26 27 25 27 29 29 31 28 32 31 34 31 32 34 37 34
11 8 7 7 12 17 15 18 19 23 27 24 25 27 30 24 23 25 25 26 29 31 28 31 31 34 31 28 30 32 33 33 33 34 34 32 36 40 34 34 34 29 32
10 9 8 7 4 7 14 13 18 26 19 22 25 30 30 30 31 30 29 30 30 32 32 35 37 32 31 38 37 35 35 37 39 39 39 39 33 30 22 23 24 26 28
8 9 9 8 6 4 4 8 9 11 11 11 13 15 18 21 20 22 26 31 35 37 38 36 33 35 42 40 40 40 43 42 43 37 28 21 17 19 21 22 24 26 26
7 7 7 7 7 6 5 3 1 1 3 4 5 6 7 10 12 13 15 16 18 20 18 19 25 27 27 26 31 28 23 15 13 13 13 16 17 18 19 22 24 26 27
7 6 5 5 5 4 4 3 2 2 2 1 1 2 3 5 7 8 9 11 11 13 14 15 16 15 12 10 11 12 15 18 19 18 19 19 20 20 21 21 23 24 25
8 7 6 6 6 6 6 6 4 3 3 3 2 2 3 4 5 6 7 7 8 9 10 11 12 13 13 13 14 14 13 13 14 15 16 18 20 22 23 23 24 24 26
11 10 10 9 9 8 9 9 9 9 9 10 10 10 10 10 11 12 12 13 13 14 13 13 13 13 13 14 14 15 16 17 18 19 20 21 23 24 24 24 24 26 27
14 14 14 13 13 13 11 11 12 12 12 12 13 14 14 15 15 14 14 14 14 14 14 14 15 16 16 16 17 18 19 19 20 20 20 21 21 22 24 25 27 29 31
18 17 16 15 15 15 16 15 14 14 15 15 15 15 16 16 16 16 16 16 17 17 17 18 18 17 17 18 18 18 18 19 19 20 21 22 23 25 26 28 29 30 32
20 20 20 19 18 17 17 17 17 16 16 16 16 16 16 17 17 17 18 18 19 19 19 19 19 20 20 19 19 20 20 20 21 22 23 24 25 27 28 29 30 31 32
20 21 21 21 21 21 20 19 19 18 18 18 18 18 19 20 20 20 21 21 21 21 21 21 22 22 22 22 22 23 23 24 24 25 26 27 27 28 29 29 29 30 30
24 24 23 23 23 23 23 23 22 22 22 21 22 22 22 23 23 23 23 23 23 23 23 23 23 23 23 24 24 24 24 25 25 26 26 27 27 28 28 28 28 28 27
27 28 28 28 28 28 28 28 28 27 27 27 27 26 26 26 26 26 25 25 25 24 24 24 25 25 25 25 25 25 26 26 26 27 27 27 27 27 26 26 25 25 25
30 29 29 30 30 30 30 30 30 30 30 29 29 29 29 28 28 27 26 26 26 25 25 25 25 25 26 26 26 26 26 26 26 26 25 25 25 25 25 25 25 25 25
31 31 31 30 30 30 30 30 30 30 29 29 30 30 29 28 28 28 28 27 26 26 25 25 25 26 26 26 26 25 25 25 24 24 24 24 24 25 25 26 26 27 26
29 29 29 29 28 28 28 27 28 28 29 29 29 29 29 29 29 28 28 27 27 26 25 25 25 25 25 24 23 23 24 23 23 24 24 25 26 26 27 28 28 27 27

GFSGL_700_spd_102.txt.gz
Wind_Speed
16 20 24 25 30 35 34 37 36 32 40 39 39 48 46 29 31 33 35 33 32 29 28 29 32 34 35 34 34 35 36 35 35 37 32 32 29 49 47 37 37 39 40
15 20 25 28 33 32 33 33 36 35 36 37 44 43 42 33 35 36 34 31 29 29 29 25 28 31 33 35 35 39 46 43 40 36 33 31 31 41 35 35 41 43 35
19 21 23 21 22 27 25 26 31 32 36 39 34 35 40 34 37 36 32 30 25 23 26 28 28 32 37 36 37 40 42 39 38 35 34 31 31 29 28 38 43 37 40
9 24 24 25 21 22 23 19 23 25 34 39 34 37 34 34 34 30 30 27 25 24 22 26 26 29 32 38 43 43 39 35 32 33 32 31 33 31 38 43 39 39 38
17 16 19 26 28 13 20 20 22 26 26 26 26 34 35 33 31 30 28 26 25 24 23 19 23 25 22 29 26 32 36 37 37 33 38 39 33 32 36 37 37 35 34
7 10 14 26 27 24 19 19 31 28 27 31 35 41 43 39 31 30 29 26 23 22 21 21 22 27 29 25 30 25 22 29 32 31 42 36 31 32 34 39 38 40 38
9 14 9 6 11 23 27 27 30 32 38 45 47 42 47 37 33 30 29 26 24 21 23 20 21 16 19 26 24 24 19 26 25 30 38 31 34 31 33 38 34 43 43
9 8 8 7 5 10 10 15 21 27 28 33 43 41 37 34 33 31 30 26 22 20 23 21 20 17 11 21 22 19 21 23 22 28 31 28 30 36 35 33 35 41 47
11 8 7 6 6 9 11 14 15 25 31 40 39 38 33 34 32 30 29 25 22 21 22 20 19 16 12 10 15 17 20 16 25 34 31 27 25 29 32 34 31 32 33
16 16 15 12 10 7 7 6 9 24 32 35 36 32 30 27 25 26 27 23 20 21 23 23 22 20 14 15 13 14 16 18 28 28 28 34 29 39 33 34 29 35 36
19 20 19 18 15 12 11 7 4 8 15 16 26 27 28 26 23 20 19 23 24 24 25 23 24 23 20 20 18 17 24 24 22 27 33 37 45 35 36 35 38 40 37
19 18 18 18 18 17 15 13 9 6 2 9 8 12 19 26 26 25 24 24 24 23 25 27 29 27 30 24 23 25 25 28 31 30 41 33 36 42 40 44 38 44 40
18 17 17 18 17 17 17 16 15 12 8 4 2 4 7 10 13 17 25 28 30 30 31 30 28 26 29 31 31 31 30 32 31 33 35 35 34 35 34 42 43 46 46
16 16 16 16 16 15 15 14 13 13 12 9 7 6 5 6 7 10 12 12 15 17 21 24 23 25 28 29 31 37 33 33 36 40 40 37 37 38 38 40 43 45 45
15 15 15 15 14 14 14 13 13 12 11 9 8 5 4 6 6 6 7 7 8 10 10 12 13 15 18 21 23 25 28 29 32 35 36 36 35 37 40 42 44 40 34
14 14 15 15 15 14 13 12 11 11 10 10 9 8 6 6 6 6 6 6 6 7 8 9 10 12 14 16 17 19 21 22 24 24 25 26 26 26 25 25 24 22 22
14 14 14 14 14 15 15 13 12 13 12 12 11 10 11 12 11 11 11 11 11 11 11 11 12 13 13 15 16 17 17 18 19 19 20 20 20 20 20 21 21 21 20
14 14 15 15 15 15 15 16 16 15 14 13 14 15 15 14 14 15 16 16 15 15 16 15 15 15 16 16 17 17 18 19 18 19 19 18 17 16 15 14 14 14 14
18 18 19 18 18 17 17 17 17 18 19 19 18 17 17 17 17 17 17 17 16 16 16 16 16 16 15 15 15 15 14 14 15 15 14 14 14 14 15 17 18 19 20
20 20 21 22 23 23 23 23 22 21 20 20 21 21 21 20 19 18 18 18 18 17 17 17 17 17 17 16 16 16 17 17 17 17 18 18 20 20 21 21 22 22 23
25 24 24 24 25 26 26 27 27 27 26 25 24 24 23 23 23 22 21 21 20 20 19 19 19 19 19 19 19 20 20 21 21 22 22 22 22 23 23 23 24 25 25
29 29 28 28 28 27 27 27 28 29 29 29 28 27 27 27 27 27 26 25 25 24 24 23 22 22 22 22 22 22 22 23 23 23 23 24 24 24 25 25 25 25 25
31 31 31 31 30 28 27 27 27 27 28 28 29 29 29 28 28 29 29 29 28 28 27 26 26 25 25 25 25 24 24 24 24 24 25 25 25 25 25 25 25 25 25
32 32 31 31 29 29 27 27 26 25 25 25 27 28 28 28 28 28 28 28 29 29 28 28 27 27 27 27 26 26 26 26 26 26 26 25 25 25 25 25 25 24 24
32 31 30 30 29 29 28 27 26 26 25 25 25 25 25 26 26 26 26 26 27 27 27 27 27 27 27 27 27 26 26 26 26 26 26 25 25 25 24 24 24 23 23
31 31 30 30 29 28 27 27 27 26 26 25 25 25 25 24 24 24 24 24 24 25 26 26 26 26 26 26 26 25 25 25 25 25 25 24 24 23 23 23 23 23 23

GFSGL_700_spd_105.txt.gz
Wind_Speed
23 20 19 21 18 21 26 31 37 36 39 35 36 36 40 45 47 44 38 42 44 43 43 40 36 32 33 30 32 31 37 37 37 36 35 32 32 34 31 29 38 39 39
29 24 20 22 23 23 28 31 33 35 37 36 35 38 38 38 46 47 47 38 43 40 37 36 34 30 28 33 36 36 33 34 37 38 33 36 32 31 30 30 43 48 45
23 27 23 24 24 25 30 29 31 33 35 32 32 35 36 39 45 49 52 30 28 34 35 36 32 32 33 30 34 33 32 37 37 39 41 39 41 36 32 32 46 41 33
26 22 31 25 30 27 28 30 32 34 38 35 35 34 32 35 37 33 35 40 34 33 35 33 29 29 30 34 34 36 32 37 43 40 45 42 42 30 34 37 43 36 37
21 16 21 14 22 26 27 23 33 33 39 49 39 37 38 41 36 38 40 35 34 35 32 27 26 26 29 32 30 31 34 39 46 50 44 45 34 33 37 34 35 38 42
15 13 13 14 18 18 31 20 24 24 18 36 38 36 36 36 37 34 28 31 34 33 31 29 28 33 29 30 29 33 35 38 37 38 38 41 36 36 36 35 33 35 47
13 12 11 12 10 6 18 23 27 18 22 29 32 37 37 40 36 42 40 33 35 33 31 33 31 28 26 27 29 35 34 34 33 31 29 38 38 38 42 33 35 36 31
14 12 8 7 9 9 7 9 20 22 26 34 42 34 37 38 40 40 38 34 35 34 32 33 29 26 25 24 28 31 26 24 30 27 21 32 30 35 39 30 32 31 34
13 14 15 16 12 9 9 6 10 17 17 17 35 42 45 46 44 40 40 38 39 36 34 33 29 29 25 22 15 18 24 25 28 18 23 22 19 32 31 31 34 35 42
16 18 21 20 18 17 15 14 10 8 8 17 23 25 25 41 42 39 39 41 37 34 34 33 31 28 25 23 21 19 19 20 19 21 19 19 31 28 25 31 36 37 34
19 20 20 20 21 20 21 20 19 14 6 3 9 23 30 43 40 36 33 31 29 31 29 23 23 25 29 26 24 21 17 18 16 15 16 28 29 26 26 30 34 32 40
17 18 19 20 22 22 22 21 19 19 17 14 8 0 6 17 22 26 26 29 30 29 29 32 30 26 30 28 26 24 23 21 22 23 23 26 37 37 38 38 38 39 45
16 16 17 19 20 20 20 20 19 19 17 15 15 13 10 4 4 9 17 23 28 32 31 29 32 33 36 29 35 27 25 27 28 29 30 33 31 34 38 42 39 46 46
15 16 16 16 16 16 17 17 17 17 17 16 15 14 13 12 10 8 7 6 10 15 14 21 25 26 28 34 36 34 35 36 32 31 35 33 36 38 43 44 41 45 46
14 15 15 15 16 16 15 14 14 13 13 13 13 12 12 11 12 11 10 9 9 9 11 9 10 12 16 20 19 23 24 25 30 31 31 31 31 36 38 41 44 44 45
15 14 15 16 16 15 15 15 15 14 14 12 12 12 11 12 12 11 11 11 11 10 10 11 11 11 12 14 15 16 18 18 19 21 23 26 28 30 31 32 31 32 32
15 16 17 17 17 18 18 18 16 15 15 15 14 12 13 14 14 14 14 14 14 14 14 14 14 14 14 15 15 16 17 18 19 20 21 22 23 25 25 27 28 28 29
24 24 23 23 23 22 20 19 19 19 19 18 17 17 16 14 15 16 17 17 18 18 18 17 18 17 17 17 18 18 18 19 19 19 20 20 21 22 22 23 23 23 23
23 25 26 27 28 29 28 28 26 25 24 22 21 21 21 20 19 18 18 19 19 18 19 20 20 20 20 20 20 20 20 20 20 20 20 20 21 21 21 20 20 20 19
24 24 25 26 27 29 30 31 33 33 32 31 28 26 25 24 24 23 21 20 20 21 21 20 20 21 21 21 20 20 21 21 20 20 19 19 18 18 17 17 17 17 17
28 28 28 29 29 29 30 32 32 33 34 35 35 31 31 29 27 26 26 25 23 22 22 22 22 22 22 22 22 22 21 21 21 21 21 20 20 20 21 21 21 22 22
31 31 32 32 32 32 31 32 32 32 32 32 33 33 31 32 32 30 28 27 27 27 26 25 25 25 25 24 24 24 24 24 24 23 24 24 25 25 25 25 25 24 25
34 34 34 34 32 32 31 30 29 29 29 29 30 31 30 30 30 30 30 30 29 28 28 28 28 27 27 27 27 26 26 26 26 26 26 26 25 25 25 25 25 26 25
36 36 35 34 33 31 30 29 28 28 27 28 28 28 29 29 29 29 28 28 29 29 29 28 28 28 28 28 28 28 27 27 27 27 27 27 26 27 26 26 26 26 26
35 33 32 31 30 29 29 28 28 28 28 28 28 27 28 28 28 29 28 26 26 27 27 28 28 28 27 28 28 28 28 28 29 29 29 28 28 28 27 27 26 26 25
33 33 32 32 31 30 30 29 28 28 27 27 27 28 28 28 28 28 29 27 26 26 25 25 26 27 27 27 27 27 27 27 27 27 28 27 27 26 26 25 25 25 24

GFSGL_700_spd_108.txt.gz
Wind_Speed
27 27 28 25 25 22 20 23 23 23 27 36 37 37 39 32 35 38 39 41 46 39 41 42 42 42 41 38 35 35 34 32 31 32 26 31 33 35 28 28 27 28 31
25 24 27 26 27 25 23 23 26 30 31 33 36 38 36 33 26 31 37 39 41 40 45 44 44 42 38 37 36 34 32 27 30 28 30 32 33 29 31 29 29 31 36
25 23 24 26 26 26 27 26 28 27 28 35 34 33 36 34 33 32 32 37 42 33 37 40 30 31 33 37 33 33 30 29 35 34 31 30 31 29 32 30 30 30 34
24 23 24 23 23 28 30 35 32 27 29 32 34 28 37 28 29 33 36 43 42 38 37 26 31 32 33 32 33 35 33 31 29 31 30 33 33 35 35 34 36 36 38
21 21 20 20 22 20 22 27 30 33 29 32 35 37 35 24 27 28 32 37 38 35 45 46 36 32 30 32 32 31 31 36 32 37 35 35 39 43 44 42 39 36 41
18 20 20 20 18 18 20 24 25 32 35 23 39 50 30 31 31 30 31 32 36 35 29 35 28 30 30 30 30 30 31 34 33 35 36 39 40 42 47 48 39 36 40
18 19 19 17 15 13 13 13 18 25 27 25 38 49 28 39 33 32 32 35 29 31 29 28 31 31 34 36 31 31 32 31 34 34 41 39 34 35 41 37 38 36 39
17 17 16 16 14 11 9 10 9 14 17 25 18 18 28 30 38 32 35 34 33 39 35 31 36 34 33 33 31 30 32 32 35 31 33 34 30 30 33 36 37 35 36
14 16 17 20 20 21 19 17 15 15 9 15 16 25 28 32 33 29 34 36 38 37 36 37 36 36 33 31 31 32 25 23 19 24 28 34 25 26 24 28 27 34 34
15 18 19 22 23 24 26 26 25 20 16 12 8 10 25 32 35 43 41 40 43 36 35 36 35 37 32 31 31 29 28 24 19 22 30 28 28 20 20 23 24 28 31
16 17 19 21 23 23 25 25 25 25 24 21 18 12 8 12 14 25 42 39 40 45 50 45 42 36 33 30 32 29 29 26 20 21 21 20 21 18 19 25 32 34 34
15 17 18 20 21 21 22 22 23 23 22 21 21 19 17 13 4 11 18 18 21 28 29 30 33 32 29 26 29 30 29 31 27 21 20 18 18 19 26 32 26 29 28
15 16 17 19 20 20 20 20 20 20 20 20 19 18 18 18 17 14 8 4 10 13 15 24 26 29 27 30 32 35 34 29 28 26 25 26 23 22 30 37 36 34 31
15 16 17 18 19 19 19 19 19 19 19 20 20 18 17 16 16 15 14 13 11 10 7 8 11 16 25 30 33 31 34 39 34 30 32 32 32 32 32 35 36 40 44
16 17 18 18 18 19 20 20 20 21 20 18 17 18 18 16 14 14 13 13 13 12 12 11 10 10 10 13 16 18 19 22 25 25 30 30 32 33 34 35 37 38 40
15 16 17 18 19 20 20 21 22 22 22 22 21 19 18 19 19 16 15 15 13 12 12 12 12 12 11 11 12 13 13 13 15 15 18 20 21 22 21 23 24 27 30
21 22 23 24 24 25 25 25 24 22 22 23 23 22 20 18 18 20 20 18 17 16 15 14 14 14 14 14 14 14 15 15 15 16 16 17 18 19 20 21 22 23 23
25 24 24 25 26 27 27 27 27 27 26 23 23 23 24 24 22 20 20 21 21 20 20 19 17 16 16 17 18 18 18 18 18 18 18 18 19 20 21 22 23 23 23
26 28 29 29 29 30 30 30 30 30 30 28 28 28 27 25 26 26 25 22 22 23 22 21 21 20 19 19 19 20 20 20 20 20 20 20 20 20 20 21 21 22 22
29 29 30 31 32 32 34 34 33 34 33 32 28 29 30 30 28 26 25 27 26 25 24 23 22 22 21 21 20 20 21 21 21 21 21 21 20 20 19 19 20 19 18
30 32 33 33 34 34 34 35 35 35 35 34 35 30 28 29 29 28 26 26 27 27 26 26 25 24 23 23 22 22 21 21 21 20 20 20 20 19 19 19 18 18 17
33 34 36 36 37 37 35 34 32 31 30 30 31 31 30 28 28 27 26 25 25 26 27 27 26 26 27 26 25 25 24 23 22 22 22 22 22 21 21 21 21 21 20
35 36 36 36 34 33 32 30 30 30 29 28 29 29 29 29 29 28 26 25 24 24 24 26 26 26 27 28 28 27 25 25 26 25 25 25 24 24 24 24 24 24 23
35 35 34 33 32 31 31 30 30 30 29 29 29 29 29 29 29 30 29 25 25 25 24 24 23 25 26 26 26 28 29 28 28 27 27 26 27 26 25 24 24 24 24
34 33 32 32 32 32 31 30 30 29 29 29 28 28 29 29 29 29 31 29 26 26 25 24 23 22 24 24 25 26 27 27 28 29 29 28 28 27 27 26 26 25 25
34 33 34 34 34 33 33 32 31 31 30 29 29 29 28 28 28 29 29 31 29 26 26 26 23 23 23 22 23 23 24 25 26 27 27 27 28 27 27 27 27 26 27

GFSGL_700_spd_111.txt.gz
Wind_Speed
28 26 27 27 29 29 29 30 28 26 24 23 25 28 30 33 37 30 31 34 35 39 38 39 37 33 36 35 34 31 27 29 26 24 21 28 29 27 30 31 31 28 29
28 25 26 27 27 31 29 30 30 27 27 26 28 27 31 34 38 33 33 31 33 36 39 40 41 35 39 33 36 39 27 30 28 27 26 26 29 27 26 29 32 35 34
26 25 26 26 26 28 28 29 31 29 29 30 32 28 34 41 37 34 30 25 28 30 31 37 40 39 31 35 36 37 42 33 27 27 26 27 26 27 28 29 33 31 34
25 24 25 25 25 23 25 25 27 31 31 32 32 34 25 45 32 38 31 29 28 28 29 29 29 29 38 43 48 46 32 32 27 29 29 30 32 29 30 31 35 37 34
21 20 21 22 23 23 24 23 24 29 32 27 32 29 31 37 26 21 31 33 36 33 34 33 33 30 20 19 18 24 29 32 31 30 32 32 29 31 32 32 34 36 37
17 18 19 20 20 21 23 22 22 23 20 24 29 28 22 34 23 19 26 25 26 32 37 35 30 34 30 26 25 27 23 28 28 31 32 34 29 32 35 34 31 37 40
14 16 16 17 18 17 16 16 16 18 18 20 22 24 25 31 33 33 32 28 27 28 31 34 31 24 25 32 30 29 31 28 30 34 33 32 32 33 36 35 38 40 46
11 14 17 18 19 21 20 18 14 15 14 14 17 22 20 26 35 43 29 31 33 28 25 26 22 22 27 28 28 28 33 30 33 31 29 31 33 37 43 35 35 34 37
11 15 18 19 20 22 24 27 28 27 24 20 10 7 11 18 15 26 29 31 33 26 28 32 31 40 31 28 33 35 35 33 31 28 28 29 30 32 31 33 33 28 32
14 17 20 20 21 22 25 26 28 28 29 29 29 24 16 12 11 17 21 27 30 28 35 35 39 36 32 32 30 32 32 33 28 28 27 27 28 27 33 32 32 30 34
15 17 16 19 21 22 24 24 26 26 25 24 25 25 26 25 20 12 9 18 24 32 29 34 30 36 31 33 32 33 34 31 30 30 29 25 21 19 24 31 27 30 35
16 18 19 20 20 22 23 23 24 24 24 24 25 24 22 21 22 22 18 11 7 10 13 19 33 41 37 38 36 39 36 34 35 31 32 27 25 21 18 24 27 23 21
17 17 18 19 20 21 22 22 22 23 23 24 24 23 23 23 21 18 16 17 15 13 10 10 8 9 22 37 35 39 34 31 33 37 34 31 27 27 23 19 23 24 25
16 17 18 19 20 20 21 21 22 22 23 23 24 23 23 22 21 19 17 16 13 12 13 14 13 12 11 9 17 28 33 36 34 35 32 33 33 31 31 30 27 28 35
17 17 17 18 18 18 20 20 21 22 22 23 22 22 22 20 19 19 18 16 15 14 13 12 12 12 12 11 10 10 9 12 18 26 32 37 34 37 35 34 35 37 39
16 16 18 19 21 22 23 23 23 23 24 24 24 23 22 22 22 21 20 19 18 17 16 14 13 12 12 11 12 12 11 10 11 12 15 18 20 25 26 30 34 35 35
17 19 21 22 23 24 24 25 26 25 26 25 24 25 24 24 22 21 21 21 21 20 18 17 16 15 15 15 14 13 13 13 13 12 12 13 14 15 17 19 20 20 21
20 21 22 24 25 25 26 27 28 27 26 27 28 27 26 25 25 25 24 24 23 22 22 21 19 18 17 17 17 17 17 16 16 16 15 15 15 15 16 16 17 18 19
24 25 26 26 27 29 30 31 32 32 30 29 28 30 30 28 26 27 27 26 26 25 24 22 22 21 20 19 18 18 19 19 19 18 18 17 17 18 18 18 19 20 21
29 30 31 33 34 34 33 33 32 32 31 28 28 27 26 27 26 26 26 26 26 26 26 25 24 23 22 21 20 19 19 19 19 19 19 19 20 19 19 19 19 19 20
30 31 31 32 32 32 32 32 31 30 30 30 28 26 25 25 25 24 25 25 24 25 26 25 25 25 25 24 22 21 20 20 20 20 20 19 19 20 20 19 19 18 18
30 31 31 31 31 31 30 31 31 31 31 31 31 29 26 26 25 24 23 24 24 23 23 24 23 24 25 24 25 24 23 22 22 22 23 22 20 20 19 19 18 17 17
30 30 30 30 29 29 29 30 31 31 31 31 31 32 31 30 28 27 25 23 23 24 23 22 23 23 23 23 25 25 25 24 24 24 23 22 22 22 21 21 20 21 20
29 29 29 29 29 30 30 31 31 31 32 32 32 32 32 32 31 30 29 29 25 22 23 23 22 23 23 22 22 23 24 25 25 25 24 24 23 22 21 22 21 22 22
31 31 31 31 31 31 32 31 31 32 32 32 32 31 31 31 30 30 30 30 29 26 24 22 22 22 22 22 21 22 22 23 24 24 24 24 25 24 23 23 22 22 23
31 31 32 33 33 33 34 35 35 35 35 33 32 30 29 29 29 29 29 28 29 28 27 25 22 22 21 21 22 21 21 21 22 23 22 22 23 23 23 23 23 23 23

GFSGL_700_spd_114.txt.gz
Wind_Speed
31 31 30 29 29 30 31 31 32 32 32 32 30 29 29 29 30 35 39 38 40 35 31 38 39 39 41 47 42 46 37 38 35 39 33 30 27 27 28 25 23 28 22
31 28 26 26 27 28 30 33 35 33 32 31 32 31 30 28 30 29 33 40 42 36 32 34 39 38 37 35 48 50 46 32 30 34 30 29 27 25 26 25 29 27 31
24 24 24 25 26 27 28 32 35 34 32 29 32 34 34 33 34 33 36 35 38 35 36 35 37 40 39 41 43 46 41 39 37 34 30 26 27 27 29 29 33 32 27
21 22 22 23 24 25 27 31 32 30 28 27 31 33 32 37 36 34 37 40 41 33 34 34 39 40 40 46 41 45 46 39 39 39 33 31 28 27 27 31 33 32 31
18 18 18 19 20 22 24 26 26 24 24 25 24 29 26 29 32 35 36 37 38 40 30 34 34 42 31 29 28 32 39 39 45 39 42 35 30 29 31 31 31 32 34
14 13 15 16 16 18 20 21 21 23 24 24 21 22 22 26 30 22 31 22 23 26 30 33 23 27 24 27 30 35 29 43 48 46 35 35 30 29 29 31 34 36 37
9 10 11 13 16 19 20 20 18 17 18 17 18 20 22 24 26 17 24 28 27 29 26 34 38 33 31 29 33 28 19 23 26 30 31 34 30 30 30 30 33 36 36
7 8 11 14 17 19 21 24 25 26 27 27 23 16 13 20 22 20 24 21 26 22 34 34 34 38 36 34 26 30 30 21 23 30 29 31 27 28 31 31 30 35 34
7 11 14 18 19 21 23 26 27 25 25 27 28 30 25 17 10 10 15 17 18 34 39 37 38 39 35 32 29 27 31 28 28 28 28 28 30 30 30 34 37 34 41
13 14 14 15 17 19 21 21 21 23 26 26 25 25 25 27 27 21 11 7 13 19 30 33 46 30 28 28 29 25 29 33 30 34 36 33 33 31 33 32 31 31 39
14 13 16 17 18 20 21 21 22 23 24 23 24 24 24 24 24 24 25 20 11 5 21 24 32 37 29 32 35 35 31 26 33 31 31 31 30 33 27 29 31 32 40
14 16 16 16 18 19 19 20 20 21 22 22 23 23 23 23 24 22 20 19 19 20 16 7 11 15 31 36 40 37 40 30 30 32 30 32 32 34 28 28 27 29 35
15 14 15 16 17 17 17 18 19 20 21 22 22 23 24 24 23 21 19 18 17 15 12 13 17 16 13 12 24 28 34 34 35 36 34 33 35 32 32 31 29 24 27
13 13 14 15 16 17 18 18 18 18 19 20 21 22 22 21 20 20 19 18 17 15 13 13 11 8 12 15 12 11 13 22 27 35 36 36 39 34 35 33 32 31 28
14 16 17 17 18 18 19 21 23 25 25 26 26 26 24 23 22 21 20 20 19 17 15 14 12 11 11 9 9 14 11 10 11 19 24 32 36 40 39 37 41 38 37
15 16 17 18 19 21 23 25 26 27 28 28 29 28 28 29 28 27 25 22 21 21 20 18 16 15 14 13 12 11 12 11 12 11 13 15 19 24 28 33 39 38 41
16 18 20 21 22 23 24 24 25 28 31 32 31 32 31 31 29 28 29 27 26 24 23 22 21 20 18 16 15 16 15 13 14 13 13 15 17 16 18 18 19 23 26
17 19 22 24 25 26 27 28 28 27 25 26 27 28 28 29 30 30 29 30 29 29 28 26 26 24 22 21 19 18 19 19 17 16 16 16 17 17 17 17 17 17 18
20 22 22 24 26 27 26 26 26 27 27 26 26 26 26 27 28 29 29 29 29 29 28 28 27 27 26 24 22 21 21 20 20 20 18 18 18 18 18 17 17 18 18
23 25 27 28 29 28 29 29 29 29 29 29 27 26 24 25 26 26 27 28 29 28 27 27 27 27 27 27 26 24 24 23 22 21 20 19 19 19 18 18 19 19 19
27 28 29 29 29 30 30 31 32 32 32 32 31 30 29 27 27 27 28 27 27 27 27 27 27 26 25 26 26 26 26 25 25 24 22 21 20 19 19 19 20 20 20
28 28 28 29 30 30 31 32 33 34 35 35 35 34 33 31 29 28 28 28 27 28 27 27 27 26 25 25 24 25 25 25 26 25 24 23 21 20 19 18 18 19 20
29 29 29 29 29 30 31 32 32 33 34 35 36 36 36 35 34 32 31 29 28 26 27 27 26 26 26 25 25 24 24 24 24 24 24 24 23 22 21 21 21 20 20
28 28 28 29 30 30 31 32 32 33 34 35 36 36 36 36 35 33 32 31 30 29 26 25 26 27 26 26 25 25 23 23 23 23 24 24 23 23 22 22 21 21 21
27 27 28 30 30 31 31 32 33 35 36 36 36 36 36 35 33 31 30 30 29 28 27 26 24 24 25 26 25 24 24 23 22 22 22 22 23 24 23 23 22 21 21
27 28 29 30 31 32 33 34 35 35 35 35 35 35 35 34 32 32 31 29 28 27 27 26 25 22 22 23 24 24 23 23 22 22 22 22 22 22 23 23 24 24 23

GFSGL_700_spd_117.txt.gz
Wind_Speed
25 27 28 30 30 31 31 34 34 33 32 33 32 32 33 34 34 35 36 35 37 38 39 39 41 42 47 40 38 43 47 46 50 49 37 35 38 37 36 34 33 31 29
23 24 26 27 26 27 26 27 30 31 33 34 32 31 32 33 34 35 35 35 36 35 39 42 38 37 31 38 41 41 45 49 52 48 32 38 41 41 35 35 33 31 29
21 20 20 21 23 24 24 24 26 28 30 33 33 31 32 32 33 35 36 37 38 34 33 39 38 37 36 37 41 40 41 43 43 43 37 35 37 38 38 34 34 33 33
16 16 16 17 18 19 20 20 23 26 27 28 30 30 30 26 28 31 36 40 39 37 38 38 40 42 41 40 44 43 43 39 45 52 43 39 37 38 36 36 34 35 33
13 12 12 13 14 15 16 16 17 19 21 22 24 25 26 27 25 25 26 33 37 39 41 41 41 47 45 42 42 41 43 40 39 43 49 47 46 36 38 31 34 33 32
9 9 10 11 12 15 17 17 17 18 19 20 19 19 20 21 22 21 25 27 28 34 37 46 47 50 48 35 38 45 46 46 44 49 54 58 54 45 34 38 37 34 35
7 6 7 9 11 13 16 19 21 23 26 28 28 21 18 18 21 22 24 26 27 31 32 30 37 49 48 36 44 37 49 39 36 38 44 52 51 41 39 37 37 35 33
7 7 8 10 12 14 16 18 21 24 25 27 28 28 33 30 22 15 16 21 25 24 27 30 21 24 32 27 27 29 32 36 40 33 41 36 39 38 36 38 37 34 34
5 9 13 12 11 13 15 16 18 20 21 21 23 23 24 29 33 33 25 16 13 18 19 25 24 27 34 34 30 34 35 34 36 31 30 27 33 35 37 37 36 39 38
9 8 11 12 14 15 16 18 19 21 22 22 22 23 23 19 18 23 29 30 25 22 17 15 27 25 30 35 38 37 31 32 36 33 34 35 34 34 32 35 36 38 39
9 11 12 13 14 16 18 19 19 21 21 21 21 21 21 20 22 21 17 14 20 27 28 25 15 7 25 31 30 35 36 32 32 38 31 26 30 33 36 36 37 36 36
10 11 13 15 17 18 19 19 20 20 19 20 21 21 21 21 20 20 21 22 19 15 14 21 24 25 21 10 27 36 40 37 37 36 42 42 35 36 35 37 37 35 31
10 12 13 15 16 17 18 19 19 19 20 20 20 20 20 20 21 22 21 20 19 20 20 17 12 11 16 22 19 14 16 31 34 36 36 36 36 39 36 37 37 34 34
11 13 14 15 16 16 17 18 19 20 21 22 23 23 24 24 22 21 20 20 20 20 19 19 18 16 12 9 8 13 17 13 11 25 33 36 37 37 39 39 39 37 37
13 15 16 17 18 20 21 23 24 25 25 27 28 29 29 28 28 30 30 27 25 23 22 21 19 19 18 17 14 12 11 9 13 15 15 21 27 32 42 41 42 41 41
15 17 18 20 22 24 25 27 28 29 30 30 29 28 28 29 30 30 30 31 30 28 26 26 25 24 22 21 19 18 17 15 15 14 15 17 18 22 28 33 39 41 45
17 20 21 22 23 24 25 26 28 29 29 29 29 29 28 28 27 27 28 28 29 30 30 29 28 27 27 26 25 23 20 19 19 19 19 18 19 20 20 21 24 23 30
19 21 23 26 27 27 28 27 26 24 24 25 27 28 28 29 29 28 28 27 28 29 31 30 30 29 28 28 28 27 26 24 22 21 22 21 21 21 20 19 21 21 22
21 23 25 27 28 29 29 28 27 27 27 27 25 26 27 28 29 30 31 31 30 29 28 30 31 31 29 28 28 28 27 26 26 25 23 22 22 21 21 21 21 21 21
22 24 26 28 28 29 28 28 28 30 30 31 31 31 30 29 29 29 30 30 30 30 30 30 31 31 32 30 28 27 27 27 26 26 25 25 23 23 22 20 19 20 21
23 25 27 29 29 29 30 29 30 31 33 34 36 35 35 36 36 35 33 32 31 31 31 31 31 31 32 31 30 27 26 26 26 25 25 24 24 23 23 24 22 20 20
25 27 29 30 31 31 31 32 33 34 35 35 36 37 38 38 38 37 36 34 33 32 31 31 32 32 31 30 30 29 26 25 25 25 25 25 24 23 23 23 24 24 22
26 29 30 31 31 31 32 32 33 34 35 37 37 37 38 38 37 36 37 36 34 33 31 30 29 30 32 31 29 29 28 25 24 24 24 25 25 25 24 24 24 24 23
27 29 30 31 31 32 32 33 34 35 36 37 37 37 37 37 36 35 36 35 34 33 32 31 30 28 28 30 30 28 27 26 24 23 23 24 24 25 25 25 24 24 24
28 30 30 30 31 31 32 32 34 35 35 36 36 36 36 36 36 35 35 36 34 33 31 30 30 29 28 27 27 28 26 24 24 23 23 23 23 24 25 25 25 25 24
28 29 29 30 31 31 31 32 33 34 34 35 35 36 36 36 36 36 36 35 34 32 32 30 29 27 27 27 26 26 25 25 23 22 22 22 22 22 23 24 24 25 25

GFSGL_700_spd_120.txt.gz
Wind_Speed
27 29 30 28 28 29 30 30 30 30 29 29 30 31 33 33 35 35 35 37 38 37 35 34 34 33 35 33 37 42 44 47 52 51 52 46 46 50 47 43 43 44 42
22 23 25 24 25 26 26 25 25 25 27 29 29 30 32 32 33 33 33 35 37 37 35 34 33 31 33 37 39 42 46 47 48 51 47 54 43 61 49 44 42 45 42
21 21 20 19 20 21 22 22 22 23 23 25 26 27 30 30 30 30 32 34 36 39 38 37 35 32 34 35 36 39 40 38 43 42 41 42 46 41 52 40 42 42 40
16 15 14 14 15 14 13 14 16 17 19 19 21 23 25 27 27 28 29 31 35 37 39 39 35 35 38 35 40 37 38 33 39 42 40 41 42 48 50 36 43 46 44
10 8 8 8 7 8 11 14 16 18 21 21 21 20 20 21 23 24 27 30 29 28 28 33 38 39 35 39 36 38 43 40 42 41 42 44 43 36 38 36 40 43 41
9 9 7 5 4 6 10 12 15 18 20 21 23 28 29 24 20 18 21 25 26 28 27 29 37 40 41 40 44 41 49 46 42 41 43 43 42 40 45 41 41 39 41
8 6 5 4 6 10 10 13 13 14 17 17 19 22 26 29 32 29 24 19 19 25 25 28 29 32 34 36 38 48 47 49 43 35 41 44 43 42 40 40 46 44 41
5 4 7 12 10 9 12 13 13 15 17 18 19 20 20 20 23 27 31 33 30 23 15 21 25 26 32 33 27 33 37 47 44 42 47 47 46 46 50 50 49 52 49
6 11 10 7 9 10 11 12 14 16 17 19 20 20 20 20 19 19 19 23 32 34 32 26 18 17 24 28 25 29 43 52 48 50 49 47 43 45 46 42 45 49 45
5 6 8 10 11 12 14 15 17 18 20 21 21 21 21 21 21 20 20 20 19 21 28 35 30 29 24 17 24 29 29 36 35 34 38 46 53 39 41 39 46 54 41
7 9 11 12 12 13 15 17 19 21 22 23 25 25 25 23 23 23 22 22 21 21 20 17 24 31 33 27 25 13 29 31 38 44 42 36 37 35 38 37 38 40 44
8 10 12 13 13 16 18 19 20 21 22 23 23 24 25 26 27 26 26 26 25 23 21 20 19 17 16 21 25 26 21 12 25 32 34 39 40 37 42 37 39 38 38
9 10 11 13 15 16 17 18 20 21 22 23 23 24 23 23 25 26 26 26 25 26 25 24 22 20 19 17 15 15 16 23 16 14 25 32 36 38 36 41 37 36 40
9 11 13 15 17 19 21 22 23 23 23 23 24 24 25 24 23 22 23 24 24 25 25 25 25 25 24 22 21 18 15 13 16 18 15 12 25 30 34 42 44 44 41
11 13 16 19 22 24 24 26 27 27 27 27 27 27 27 27 29 29 28 27 25 25 25 26 26 24 22 22 23 22 20 18 18 16 15 15 16 15 24 30 37 42 44
13 16 20 22 24 25 27 27 29 30 30 30 30 30 31 32 31 30 30 28 28 29 29 29 29 29 29 29 25 23 22 22 21 20 21 19 17 17 18 18 23 29 32
15 19 21 23 23 24 25 27 28 29 30 30 30 30 30 30 29 30 31 31 31 31 31 31 31 31 30 30 30 29 26 24 24 23 23 22 22 22 20 19 20 20 24
17 20 23 24 25 26 27 30 31 30 30 30 31 31 32 32 31 30 30 31 31 32 33 33 32 32 32 31 31 30 28 27 25 25 24 24 25 24 23 23 21 21 22
20 22 24 25 27 27 29 30 32 31 30 30 30 31 31 32 33 33 34 34 32 31 31 32 32 33 32 33 33 33 31 29 27 25 25 25 25 25 25 25 23 22 22
21 23 25 26 27 27 28 30 31 31 32 32 33 33 33 34 34 35 36 36 35 34 32 30 31 32 32 33 33 33 33 31 28 26 25 25 24 25 25 24 25 24 22
22 23 26 27 27 27 29 31 32 32 33 34 35 36 37 37 37 38 38 38 37 37 36 34 31 30 30 32 33 34 33 32 30 27 25 25 24 24 24 25 24 24 24
23 25 27 28 28 29 29 30 31 32 33 34 35 36 36 36 36 37 37 37 38 39 39 38 36 34 31 30 31 32 32 32 30 28 26 25 24 24 24 23 23 23 23
24 26 27 28 29 30 30 31 33 33 34 35 36 36 36 36 37 38 38 39 37 37 37 37 37 36 34 32 31 31 32 30 29 28 25 24 25 24 23 23 23 23 23
25 27 28 29 30 29 30 31 33 33 34 35 35 36 37 37 38 37 37 36 36 35 35 34 34 34 34 32 31 30 30 31 29 27 26 23 24 24 23 23 23 23 23
26 28 28 29 29 29 29 31 33 34 35 35 35 36 37 36 36 36 35 34 34 34 33 33 33 32 31 30 30 30 29 28 28 26 24 24 23 23 23 23 22 22 22
27 28 28 28 29 29 30 31 32 33 33 34 35 35 35 35 35 35 35 34 33 33 33 33 32 31 30 29 28 29 29 28 27 25 24 22 22 22 22 22 22 21 21

GFSGL_700_spd_123.txt.gz
Wind_Speed
18 19 20 24 27 24 24 25 29 30 30 30 30 30 30 31 32 34 33 32 32 33 34 35 35 33 34 32 33 36 38 40 43 41 45 49 47 48 50 53 56 63 59
20 19 17 19 20 21 21 21 23 23 23 24 25 26 28 29 29 30 29 30 33 32 31 33 32 31 34 32 33 35 38 38 40 44 44 48 47 48 51 54 48 51 57
17 16 15 12 15 15 15 15 15 16 17 18 19 20 23 24 23 24 25 26 27 30 29 30 33 34 35 36 37 35 35 36 42 46 47 47 47 49 52 51 52 47 56
13 12 10 9 8 8 6 6 7 10 15 17 18 18 17 16 16 16 17 20 22 25 27 28 31 34 37 37 36 35 36 35 36 42 43 42 41 43 42 44 52 55 52
10 9 10 10 7 4 3 5 8 10 10 11 14 16 20 20 20 18 15 15 19 23 24 24 27 25 29 33 33 34 37 41 38 45 41 41 37 41 37 35 42 53 47
9 10 9 7 5 2 7 6 8 10 11 12 12 13 15 19 22 23 24 22 18 15 20 26 28 30 30 33 35 36 38 37 39 38 43 41 40 43 39 38 36 43 55
7 6 5 2 4 8 7 8 10 11 13 15 16 17 18 19 19 18 18 20 21 23 20 15 19 26 30 31 35 39 38 44 47 45 46 47 49 43 40 38 37 32 34
6 2 6 11 8 7 9 9 11 11 12 14 16 17 19 19 19 20 20 20 18 19 22 23 21 21 16 26 30 34 39 40 41 43 49 47 50 42 50 42 35 38 44
6 10 7 5 6 8 9 10 11 13 14 15 17 18 19 19 19 19 19 19 19 20 18 17 21 27 24 22 13 20 26 28 35 41 45 48 47 46 49 41 36 38 40
2 2 3 5 7 9 10 12 13 15 18 21 22 23 23 23 22 21 20 20 20 19 19 20 20 19 18 25 25 24 16 15 26 29 36 37 37 39 41 40 44 47 44
1 4 7 9 10 12 14 16 18 20 22 22 23 23 24 24 24 23 22 21 21 21 20 19 19 18 18 18 18 22 22 26 22 16 21 34 48 46 49 47 47 50 47
4 6 9 11 13 14 15 15 16 17 18 19 20 21 22 23 24 25 27 26 26 25 24 23 21 20 20 19 19 18 18 17 19 21 18 17 19 28 40 40 45 52 56
5 8 9 11 12 13 14 15 16 17 17 19 20 20 20 21 22 24 25 26 27 28 29 29 28 26 24 24 22 20 19 19 19 17 21 19 15 18 26 34 37 41 46
7 8 10 12 13 14 15 16 18 18 20 21 22 22 23 24 23 22 22 22 22 23 24 25 26 29 31 31 28 26 25 23 20 19 17 17 20 18 15 21 33 38 38
7 8 11 13 15 17 19 21 22 22 23 24 24 26 27 28 29 30 28 26 26 26 25 24 24 24 25 26 27 26 26 24 22 22 20 21 18 18 22 21 17 22 32
7 10 12 14 17 20 21 22 21 22 23 26 29 30 31 31 32 34 34 33 32 32 32 32 32 32 31 28 27 27 27 26 26 23 23 23 21 22 20 19 20 21 18
8 10 12 16 18 20 21 22 24 25 26 28 30 31 31 32 33 34 36 36 35 34 33 33 32 32 32 32 32 30 29 29 29 28 26 24 24 24 23 22 21 20 21
9 11 14 17 19 20 22 23 25 26 27 29 30 32 34 35 35 35 35 36 36 35 35 34 33 32 32 31 31 30 30 29 29 29 28 27 26 25 24 24 23 22 22
11 14 17 19 21 22 23 25 26 28 28 27 29 31 32 34 35 36 37 36 37 36 36 35 33 32 32 32 32 33 32 32 31 29 29 29 27 25 25 25 24 24 23
14 17 19 20 22 23 25 26 28 29 29 29 29 30 31 32 33 34 36 37 38 39 39 39 38 36 33 30 30 31 32 32 32 31 29 27 27 27 25 24 24 24 24
16 18 20 21 23 23 25 26 28 28 29 30 31 33 34 35 37 38 39 39 39 39 39 39 38 37 36 35 32 29 29 31 33 33 31 28 26 25 25 24 23 22 22
18 19 21 22 23 25 26 27 28 28 29 29 31 32 34 36 36 37 38 38 39 39 38 38 37 37 37 36 35 33 31 29 29 30 30 29 27 24 24 24 22 22 21
19 20 21 23 24 25 26 27 28 28 29 29 30 31 33 34 35 35 36 36 36 36 36 36 35 36 36 36 36 35 33 31 30 30 29 27 26 24 23 23 23 21 21
20 21 22 24 25 25 26 27 28 28 29 30 31 32 33 34 34 35 35 35 35 35 35 35 35 35 35 35 34 34 33 33 31 31 30 29 25 23 22 22 22 21 20
21 22 23 24 24 25 26 27 27 28 28 29 30 32 32 33 34 34 34 34 34 34 34 34 34 34 34 33 33 32 32 32 32 30 29 28 26 23 22 21 21 20 19
21 22 23 23 24 25 26 26 26 27 28 28 29 30 31 32 32 33 33 34 34 34 34 34 34 34 34 33 32 31 31 31 30 29 28 27 25 22 21 20 20 19 18